<?xml version="1.0" encoding="UTF-8" standalone="no" ?>
<gpx xmlns="http://www.topografix.com/GPX/1/1" xmlns:xsi="http://www.w3.org/2001/XMLSchema-instance" xsi:schemaLocation="http://www.topografix.com/GPX/1/1 http://www.topografix.com/GPX/1/1/gpx.xsd" version="1.1" creator="VisuGPX - https://www.visugpx.com">
  <metadata>
    <name>Abbaye de Valcroissant - Dome ou Pié Ferré</name>
    <desc><![CDATA[Dernier trail des Vacances : que du bonheur...]]></desc>
  </metadata>
  <trk>
    <name><![CDATA[runtastic_20110731_0627_Course à pied]]></name>
    <trkseg>
      <trkpt lat="44.74152" lon="5.42673">
        <ele>615.5</ele>
        <time>2011-07-22T04:27:33.000Z</time>
      </trkpt>
      <trkpt lat="44.7415" lon="5.42683">
        <ele>812.20001220703</ele>
        <time>2011-07-22T04:27:38.000Z</time>
      </trkpt>
      <trkpt lat="44.74149" lon="5.42687">
        <ele>812</ele>
        <time>2011-07-22T04:27:40.000Z</time>
      </trkpt>
      <trkpt lat="44.74148" lon="5.42691">
        <ele>811.79998779297</ele>
        <time>2011-07-22T04:27:42.000Z</time>
      </trkpt>
      <trkpt lat="44.74146" lon="5.42695">
        <ele>811.79998779297</ele>
        <time>2011-07-22T04:27:44.000Z</time>
      </trkpt>
      <trkpt lat="44.74145" lon="5.42699">
        <ele>811.59997558594</ele>
        <time>2011-07-22T04:27:46.000Z</time>
      </trkpt>
      <trkpt lat="44.74143" lon="5.42702">
        <ele>811.40002441406</ele>
        <time>2011-07-22T04:27:48.000Z</time>
      </trkpt>
      <trkpt lat="44.74139" lon="5.42717">
        <ele>811.20001220703</ele>
        <time>2011-07-22T04:27:55.000Z</time>
      </trkpt>
      <trkpt lat="44.74137" lon="5.42723">
        <ele>811</ele>
        <time>2011-07-22T04:27:58.000Z</time>
      </trkpt>
      <trkpt lat="44.74135" lon="5.42732">
        <ele>810.79998779297</ele>
        <time>2011-07-22T04:28:02.000Z</time>
      </trkpt>
      <trkpt lat="44.7413" lon="5.42744">
        <ele>810.40002441406</ele>
        <time>2011-07-22T04:28:09.000Z</time>
      </trkpt>
      <trkpt lat="44.74129" lon="5.42747">
        <ele>810.59997558594</ele>
        <time>2011-07-22T04:28:10.000Z</time>
      </trkpt>
      <trkpt lat="44.74125" lon="5.42759">
        <ele>810.40002441406</ele>
        <time>2011-07-22T04:28:16.000Z</time>
      </trkpt>
      <trkpt lat="44.74122" lon="5.42771">
        <ele>810.59997558594</ele>
        <time>2011-07-22T04:28:21.000Z</time>
      </trkpt>
      <trkpt lat="44.74121" lon="5.42773">
        <ele>810.59997558594</ele>
        <time>2011-07-22T04:28:22.000Z</time>
      </trkpt>
      <trkpt lat="44.74118" lon="5.42786">
        <ele>811.20001220703</ele>
        <time>2011-07-22T04:28:28.000Z</time>
      </trkpt>
      <trkpt lat="44.74117" lon="5.42793">
        <ele>811.40002441406</ele>
        <time>2011-07-22T04:28:32.000Z</time>
      </trkpt>
      <trkpt lat="44.74117" lon="5.42795">
        <ele>811.40002441406</ele>
        <time>2011-07-22T04:28:33.000Z</time>
      </trkpt>
      <trkpt lat="44.74116" lon="5.42796">
        <ele>811.59997558594</ele>
        <time>2011-07-22T04:28:34.000Z</time>
      </trkpt>
      <trkpt lat="44.74113" lon="5.42803">
        <ele>812</ele>
        <time>2011-07-22T04:28:37.000Z</time>
      </trkpt>
      <trkpt lat="44.74112" lon="5.42806">
        <ele>812</ele>
        <time>2011-07-22T04:28:39.000Z</time>
      </trkpt>
      <trkpt lat="44.74111" lon="5.4281">
        <ele>812</ele>
        <time>2011-07-22T04:28:42.000Z</time>
      </trkpt>
      <trkpt lat="44.74108" lon="5.42816">
        <ele>812.40002441406</ele>
        <time>2011-07-22T04:28:45.000Z</time>
      </trkpt>
      <trkpt lat="44.74108" lon="5.42818">
        <ele>812.40002441406</ele>
        <time>2011-07-22T04:28:46.000Z</time>
      </trkpt>
      <trkpt lat="44.74107" lon="5.42825">
        <ele>812.79998779297</ele>
        <time>2011-07-22T04:28:50.000Z</time>
      </trkpt>
      <trkpt lat="44.74104" lon="5.42837">
        <ele>813.40002441406</ele>
        <time>2011-07-22T04:28:57.000Z</time>
      </trkpt>
      <trkpt lat="44.74102" lon="5.42842">
        <ele>813.59997558594</ele>
        <time>2011-07-22T04:29:00.000Z</time>
      </trkpt>
      <trkpt lat="44.741" lon="5.42845">
        <ele>813.59997558594</ele>
        <time>2011-07-22T04:29:02.000Z</time>
      </trkpt>
      <trkpt lat="44.74099" lon="5.42847">
        <ele>813.79998779297</ele>
        <time>2011-07-22T04:29:03.000Z</time>
      </trkpt>
      <trkpt lat="44.74096" lon="5.42854">
        <ele>814.40002441406</ele>
        <time>2011-07-22T04:29:08.000Z</time>
      </trkpt>
      <trkpt lat="44.74092" lon="5.42859">
        <ele>815</ele>
        <time>2011-07-22T04:29:12.000Z</time>
      </trkpt>
      <trkpt lat="44.74092" lon="5.42861">
        <ele>815.20001220703</ele>
        <time>2011-07-22T04:29:13.000Z</time>
      </trkpt>
      <trkpt lat="44.74091" lon="5.42862">
        <ele>815.40002441406</ele>
        <time>2011-07-22T04:29:14.000Z</time>
      </trkpt>
      <trkpt lat="44.74089" lon="5.42868">
        <ele>816.40002441406</ele>
        <time>2011-07-22T04:29:19.000Z</time>
      </trkpt>
      <trkpt lat="44.74089" lon="5.42869">
        <ele>816.59997558594</ele>
        <time>2011-07-22T04:29:20.000Z</time>
      </trkpt>
      <trkpt lat="44.74085" lon="5.42874">
        <ele>817.59997558594</ele>
        <time>2011-07-22T04:29:25.000Z</time>
      </trkpt>
      <trkpt lat="44.74084" lon="5.42874">
        <ele>817.79998779297</ele>
        <time>2011-07-22T04:29:26.000Z</time>
      </trkpt>
      <trkpt lat="44.74081" lon="5.42876">
        <ele>818.20001220703</ele>
        <time>2011-07-22T04:29:29.000Z</time>
      </trkpt>
      <trkpt lat="44.74079" lon="5.42879">
        <ele>818.59997558594</ele>
        <time>2011-07-22T04:29:32.000Z</time>
      </trkpt>
      <trkpt lat="44.74077" lon="5.42882">
        <ele>818.79998779297</ele>
        <time>2011-07-22T04:29:34.000Z</time>
      </trkpt>
      <trkpt lat="44.7407" lon="5.42891">
        <ele>819.20001220703</ele>
        <time>2011-07-22T04:29:42.000Z</time>
      </trkpt>
      <trkpt lat="44.74069" lon="5.42892">
        <ele>819.20001220703</ele>
        <time>2011-07-22T04:29:43.000Z</time>
      </trkpt>
      <trkpt lat="44.74065" lon="5.42897">
        <ele>819.20001220703</ele>
        <time>2011-07-22T04:29:47.000Z</time>
      </trkpt>
      <trkpt lat="44.74063" lon="5.42898">
        <ele>819.20001220703</ele>
        <time>2011-07-22T04:29:48.000Z</time>
      </trkpt>
      <trkpt lat="44.74059" lon="5.42906">
        <ele>819</ele>
        <time>2011-07-22T04:29:53.000Z</time>
      </trkpt>
      <trkpt lat="44.74058" lon="5.42907">
        <ele>819</ele>
        <time>2011-07-22T04:29:54.000Z</time>
      </trkpt>
      <trkpt lat="44.74053" lon="5.42914">
        <ele>819.40002441406</ele>
        <time>2011-07-22T04:29:59.000Z</time>
      </trkpt>
      <trkpt lat="44.74052" lon="5.42917">
        <ele>819.79998779297</ele>
        <time>2011-07-22T04:30:01.000Z</time>
      </trkpt>
      <trkpt lat="44.74047" lon="5.4292">
        <ele>820</ele>
        <time>2011-07-22T04:30:04.000Z</time>
      </trkpt>
      <trkpt lat="44.74046" lon="5.42921">
        <ele>820.20001220703</ele>
        <time>2011-07-22T04:30:05.000Z</time>
      </trkpt>
      <trkpt lat="44.74039" lon="5.42929">
        <ele>821.20001220703</ele>
        <time>2011-07-22T04:30:11.000Z</time>
      </trkpt>
      <trkpt lat="44.74036" lon="5.42931">
        <ele>821.20001220703</ele>
        <time>2011-07-22T04:30:13.000Z</time>
      </trkpt>
      <trkpt lat="44.7403" lon="5.42936">
        <ele>821.40002441406</ele>
        <time>2011-07-22T04:30:17.000Z</time>
      </trkpt>
      <trkpt lat="44.74021" lon="5.42945">
        <ele>822</ele>
        <time>2011-07-22T04:30:23.000Z</time>
      </trkpt>
      <trkpt lat="44.74012" lon="5.42949">
        <ele>822.40002441406</ele>
        <time>2011-07-22T04:30:29.000Z</time>
      </trkpt>
      <trkpt lat="44.7401" lon="5.42949">
        <ele>822.40002441406</ele>
        <time>2011-07-22T04:30:30.000Z</time>
      </trkpt>
      <trkpt lat="44.74004" lon="5.42952">
        <ele>822.40002441406</ele>
        <time>2011-07-22T04:30:34.000Z</time>
      </trkpt>
      <trkpt lat="44.73999" lon="5.42952">
        <ele>822.40002441406</ele>
        <time>2011-07-22T04:30:36.000Z</time>
      </trkpt>
      <trkpt lat="44.73985" lon="5.42947">
        <ele>822.59997558594</ele>
        <time>2011-07-22T04:30:44.000Z</time>
      </trkpt>
      <trkpt lat="44.73975" lon="5.42938">
        <ele>822.79998779297</ele>
        <time>2011-07-22T04:30:50.000Z</time>
      </trkpt>
      <trkpt lat="44.73969" lon="5.42935">
        <ele>822.59997558594</ele>
        <time>2011-07-22T04:30:53.000Z</time>
      </trkpt>
      <trkpt lat="44.73965" lon="5.42933">
        <ele>822.59997558594</ele>
        <time>2011-07-22T04:30:55.000Z</time>
      </trkpt>
      <trkpt lat="44.73954" lon="5.42933">
        <ele>822.20001220703</ele>
        <time>2011-07-22T04:31:01.000Z</time>
      </trkpt>
      <trkpt lat="44.7395" lon="5.42934">
        <ele>822.20001220703</ele>
        <time>2011-07-22T04:31:03.000Z</time>
      </trkpt>
      <trkpt lat="44.73943" lon="5.42937">
        <ele>822.20001220703</ele>
        <time>2011-07-22T04:31:07.000Z</time>
      </trkpt>
      <trkpt lat="44.73941" lon="5.42937">
        <ele>822.20001220703</ele>
        <time>2011-07-22T04:31:08.000Z</time>
      </trkpt>
      <trkpt lat="44.73935" lon="5.42942">
        <ele>822.40002441406</ele>
        <time>2011-07-22T04:31:12.000Z</time>
      </trkpt>
      <trkpt lat="44.73933" lon="5.42943">
        <ele>822.59997558594</ele>
        <time>2011-07-22T04:31:13.000Z</time>
      </trkpt>
      <trkpt lat="44.73923" lon="5.42949">
        <ele>823</ele>
        <time>2011-07-22T04:31:19.000Z</time>
      </trkpt>
      <trkpt lat="44.73915" lon="5.42956">
        <ele>823.59997558594</ele>
        <time>2011-07-22T04:31:24.000Z</time>
      </trkpt>
      <trkpt lat="44.73913" lon="5.42959">
        <ele>824</ele>
        <time>2011-07-22T04:31:26.000Z</time>
      </trkpt>
      <trkpt lat="44.7391" lon="5.42963">
        <ele>824.20001220703</ele>
        <time>2011-07-22T04:31:28.000Z</time>
      </trkpt>
      <trkpt lat="44.73905" lon="5.42968">
        <ele>825</ele>
        <time>2011-07-22T04:31:31.000Z</time>
      </trkpt>
      <trkpt lat="44.73901" lon="5.42972">
        <ele>825.40002441406</ele>
        <time>2011-07-22T04:31:34.000Z</time>
      </trkpt>
      <trkpt lat="44.73898" lon="5.42976">
        <ele>825.79998779297</ele>
        <time>2011-07-22T04:31:36.000Z</time>
      </trkpt>
      <trkpt lat="44.7389" lon="5.42989">
        <ele>826.40002441406</ele>
        <time>2011-07-22T04:31:41.000Z</time>
      </trkpt>
      <trkpt lat="44.73888" lon="5.42991">
        <ele>826.59997558594</ele>
        <time>2011-07-22T04:31:42.000Z</time>
      </trkpt>
      <trkpt lat="44.73879" lon="5.43005">
        <ele>827</ele>
        <time>2011-07-22T04:31:47.000Z</time>
      </trkpt>
      <trkpt lat="44.73876" lon="5.4301">
        <ele>827.20001220703</ele>
        <time>2011-07-22T04:31:49.000Z</time>
      </trkpt>
      <trkpt lat="44.73873" lon="5.43015">
        <ele>827.59997558594</ele>
        <time>2011-07-22T04:31:51.000Z</time>
      </trkpt>
      <trkpt lat="44.73864" lon="5.4303">
        <ele>829</ele>
        <time>2011-07-22T04:31:58.000Z</time>
      </trkpt>
      <trkpt lat="44.73854" lon="5.4304">
        <ele>829.40002441406</ele>
        <time>2011-07-22T04:32:05.000Z</time>
      </trkpt>
      <trkpt lat="44.73848" lon="5.43044">
        <ele>829.79998779297</ele>
        <time>2011-07-22T04:32:09.000Z</time>
      </trkpt>
      <trkpt lat="44.73845" lon="5.43046">
        <ele>830</ele>
        <time>2011-07-22T04:32:11.000Z</time>
      </trkpt>
      <trkpt lat="44.73834" lon="5.43053">
        <ele>830.79998779297</ele>
        <time>2011-07-22T04:32:18.000Z</time>
      </trkpt>
      <trkpt lat="44.7383" lon="5.43054">
        <ele>830.79998779297</ele>
        <time>2011-07-22T04:32:20.000Z</time>
      </trkpt>
      <trkpt lat="44.73823" lon="5.43054">
        <ele>831.20001220703</ele>
        <time>2011-07-22T04:32:24.000Z</time>
      </trkpt>
      <trkpt lat="44.73814" lon="5.43054">
        <ele>832.20001220703</ele>
        <time>2011-07-22T04:32:30.000Z</time>
      </trkpt>
      <trkpt lat="44.73812" lon="5.43054">
        <ele>832.20001220703</ele>
        <time>2011-07-22T04:32:31.000Z</time>
      </trkpt>
      <trkpt lat="44.73808" lon="5.43053">
        <ele>831.79998779297</ele>
        <time>2011-07-22T04:32:34.000Z</time>
      </trkpt>
      <trkpt lat="44.73807" lon="5.43053">
        <ele>831.79998779297</ele>
        <time>2011-07-22T04:32:35.000Z</time>
      </trkpt>
      <trkpt lat="44.73803" lon="5.43049">
        <ele>830.40002441406</ele>
        <time>2011-07-22T04:32:41.000Z</time>
      </trkpt>
      <trkpt lat="44.73796" lon="5.43051">
        <ele>828.20001220703</ele>
        <time>2011-07-22T04:32:47.000Z</time>
      </trkpt>
      <trkpt lat="44.73793" lon="5.43053">
        <ele>827.20001220703</ele>
        <time>2011-07-22T04:32:49.000Z</time>
      </trkpt>
      <trkpt lat="44.73784" lon="5.4306">
        <ele>823.79998779297</ele>
        <time>2011-07-22T04:32:54.000Z</time>
      </trkpt>
      <trkpt lat="44.73783" lon="5.43061">
        <ele>823.20001220703</ele>
        <time>2011-07-22T04:32:55.000Z</time>
      </trkpt>
      <trkpt lat="44.73778" lon="5.43064">
        <ele>820.20001220703</ele>
        <time>2011-07-22T04:32:58.000Z</time>
      </trkpt>
      <trkpt lat="44.73775" lon="5.43066">
        <ele>818.40002441406</ele>
        <time>2011-07-22T04:33:00.000Z</time>
      </trkpt>
      <trkpt lat="44.73771" lon="5.43075">
        <ele>813.59997558594</ele>
        <time>2011-07-22T04:33:04.000Z</time>
      </trkpt>
      <trkpt lat="44.73763" lon="5.43078">
        <ele>807.59997558594</ele>
        <time>2011-07-22T04:33:09.000Z</time>
      </trkpt>
      <trkpt lat="44.73759" lon="5.4308">
        <ele>803</ele>
        <time>2011-07-22T04:33:13.000Z</time>
      </trkpt>
      <trkpt lat="44.73758" lon="5.4308">
        <ele>801.79998779297</ele>
        <time>2011-07-22T04:33:14.000Z</time>
      </trkpt>
      <trkpt lat="44.73757" lon="5.43081">
        <ele>800.59997558594</ele>
        <time>2011-07-22T04:33:15.000Z</time>
      </trkpt>
      <trkpt lat="44.73749" lon="5.4309">
        <ele>714.59997558594</ele>
        <time>2011-07-22T04:35:48.000Z</time>
      </trkpt>
      <trkpt lat="44.73747" lon="5.4309">
        <ele>714.20001220703</ele>
        <time>2011-07-22T04:35:49.000Z</time>
      </trkpt>
      <trkpt lat="44.73737" lon="5.4309">
        <ele>713</ele>
        <time>2011-07-22T04:35:55.000Z</time>
      </trkpt>
      <trkpt lat="44.73733" lon="5.43092">
        <ele>712</ele>
        <time>2011-07-22T04:35:59.000Z</time>
      </trkpt>
      <trkpt lat="44.7373" lon="5.43094">
        <ele>711.79998779297</ele>
        <time>2011-07-22T04:36:01.000Z</time>
      </trkpt>
      <trkpt lat="44.73724" lon="5.43097">
        <ele>711.20001220703</ele>
        <time>2011-07-22T04:36:05.000Z</time>
      </trkpt>
      <trkpt lat="44.73721" lon="5.43096">
        <ele>710.79998779297</ele>
        <time>2011-07-22T04:36:07.000Z</time>
      </trkpt>
      <trkpt lat="44.73711" lon="5.43095">
        <ele>709.59997558594</ele>
        <time>2011-07-22T04:36:14.000Z</time>
      </trkpt>
      <trkpt lat="44.73702" lon="5.43093">
        <ele>709</ele>
        <time>2011-07-22T04:36:19.000Z</time>
      </trkpt>
      <trkpt lat="44.73694" lon="5.4309">
        <ele>708.40002441406</ele>
        <time>2011-07-22T04:36:24.000Z</time>
      </trkpt>
      <trkpt lat="44.73693" lon="5.43089">
        <ele>708.20001220703</ele>
        <time>2011-07-22T04:36:25.000Z</time>
      </trkpt>
      <trkpt lat="44.73685" lon="5.43086">
        <ele>707.59997558594</ele>
        <time>2011-07-22T04:36:30.000Z</time>
      </trkpt>
      <trkpt lat="44.73679" lon="5.43085">
        <ele>707.40002441406</ele>
        <time>2011-07-22T04:36:34.000Z</time>
      </trkpt>
      <trkpt lat="44.73675" lon="5.43086">
        <ele>707.20001220703</ele>
        <time>2011-07-22T04:36:36.000Z</time>
      </trkpt>
      <trkpt lat="44.73674" lon="5.43086">
        <ele>707.20001220703</ele>
        <time>2011-07-22T04:36:37.000Z</time>
      </trkpt>
      <trkpt lat="44.73665" lon="5.43089">
        <ele>706.79998779297</ele>
        <time>2011-07-22T04:36:43.000Z</time>
      </trkpt>
      <trkpt lat="44.73664" lon="5.43089">
        <ele>706.79998779297</ele>
        <time>2011-07-22T04:36:44.000Z</time>
      </trkpt>
      <trkpt lat="44.73657" lon="5.43092">
        <ele>706.59997558594</ele>
        <time>2011-07-22T04:36:48.000Z</time>
      </trkpt>
      <trkpt lat="44.73653" lon="5.43096">
        <ele>706.79998779297</ele>
        <time>2011-07-22T04:36:51.000Z</time>
      </trkpt>
      <trkpt lat="44.73645" lon="5.43102">
        <ele>706.59997558594</ele>
        <time>2011-07-22T04:36:57.000Z</time>
      </trkpt>
      <trkpt lat="44.73644" lon="5.43102">
        <ele>706.79998779297</ele>
        <time>2011-07-22T04:36:58.000Z</time>
      </trkpt>
      <trkpt lat="44.73641" lon="5.43104">
        <ele>707</ele>
        <time>2011-07-22T04:37:01.000Z</time>
      </trkpt>
      <trkpt lat="44.7364" lon="5.43104">
        <ele>707</ele>
        <time>2011-07-22T04:37:02.000Z</time>
      </trkpt>
      <trkpt lat="44.73635" lon="5.43105">
        <ele>707.20001220703</ele>
        <time>2011-07-22T04:37:05.000Z</time>
      </trkpt>
      <trkpt lat="44.73626" lon="5.43109">
        <ele>707.40002441406</ele>
        <time>2011-07-22T04:37:10.000Z</time>
      </trkpt>
      <trkpt lat="44.73623" lon="5.4311">
        <ele>707.59997558594</ele>
        <time>2011-07-22T04:37:11.000Z</time>
      </trkpt>
      <trkpt lat="44.73609" lon="5.43117">
        <ele>707.59997558594</ele>
        <time>2011-07-22T04:37:17.000Z</time>
      </trkpt>
      <trkpt lat="44.73605" lon="5.43121">
        <ele>707.59997558594</ele>
        <time>2011-07-22T04:37:19.000Z</time>
      </trkpt>
      <trkpt lat="44.73594" lon="5.43133">
        <ele>707.59997558594</ele>
        <time>2011-07-22T04:37:24.000Z</time>
      </trkpt>
      <trkpt lat="44.7359" lon="5.43137">
        <ele>707.59997558594</ele>
        <time>2011-07-22T04:37:26.000Z</time>
      </trkpt>
      <trkpt lat="44.73581" lon="5.43147">
        <ele>707.59997558594</ele>
        <time>2011-07-22T04:37:31.000Z</time>
      </trkpt>
      <trkpt lat="44.73576" lon="5.43155">
        <ele>707.59997558594</ele>
        <time>2011-07-22T04:37:34.000Z</time>
      </trkpt>
      <trkpt lat="44.73571" lon="5.4316">
        <ele>707.79998779297</ele>
        <time>2011-07-22T04:37:37.000Z</time>
      </trkpt>
      <trkpt lat="44.73561" lon="5.43166">
        <ele>708.20001220703</ele>
        <time>2011-07-22T04:37:42.000Z</time>
      </trkpt>
      <trkpt lat="44.7356" lon="5.43167">
        <ele>708.20001220703</ele>
        <time>2011-07-22T04:37:43.000Z</time>
      </trkpt>
      <trkpt lat="44.73551" lon="5.43173">
        <ele>708.79998779297</ele>
        <time>2011-07-22T04:37:48.000Z</time>
      </trkpt>
      <trkpt lat="44.73543" lon="5.4318">
        <ele>709</ele>
        <time>2011-07-22T04:37:53.000Z</time>
      </trkpt>
      <trkpt lat="44.73541" lon="5.43181">
        <ele>709.20001220703</ele>
        <time>2011-07-22T04:37:54.000Z</time>
      </trkpt>
      <trkpt lat="44.73529" lon="5.4319">
        <ele>709.79998779297</ele>
        <time>2011-07-22T04:38:01.000Z</time>
      </trkpt>
      <trkpt lat="44.73525" lon="5.43193">
        <ele>710</ele>
        <time>2011-07-22T04:38:03.000Z</time>
      </trkpt>
      <trkpt lat="44.73521" lon="5.43196">
        <ele>710.59997558594</ele>
        <time>2011-07-22T04:38:06.000Z</time>
      </trkpt>
      <trkpt lat="44.7352" lon="5.43198">
        <ele>710.79998779297</ele>
        <time>2011-07-22T04:38:07.000Z</time>
      </trkpt>
      <trkpt lat="44.73513" lon="5.43205">
        <ele>712</ele>
        <time>2011-07-22T04:38:13.000Z</time>
      </trkpt>
      <trkpt lat="44.7351" lon="5.43207">
        <ele>712.40002441406</ele>
        <time>2011-07-22T04:38:15.000Z</time>
      </trkpt>
      <trkpt lat="44.73505" lon="5.43211">
        <ele>713</ele>
        <time>2011-07-22T04:38:18.000Z</time>
      </trkpt>
      <trkpt lat="44.73495" lon="5.4322">
        <ele>714.79998779297</ele>
        <time>2011-07-22T04:38:25.000Z</time>
      </trkpt>
      <trkpt lat="44.73493" lon="5.4322">
        <ele>715</ele>
        <time>2011-07-22T04:38:26.000Z</time>
      </trkpt>
      <trkpt lat="44.73491" lon="5.43223">
        <ele>715</ele>
        <time>2011-07-22T04:38:28.000Z</time>
      </trkpt>
      <trkpt lat="44.73489" lon="5.43226">
        <ele>716.20001220703</ele>
        <time>2011-07-22T04:38:31.000Z</time>
      </trkpt>
      <trkpt lat="44.73487" lon="5.43226">
        <ele>716.79998779297</ele>
        <time>2011-07-22T04:38:33.000Z</time>
      </trkpt>
      <trkpt lat="44.73484" lon="5.43227">
        <ele>717.59997558594</ele>
        <time>2011-07-22T04:38:36.000Z</time>
      </trkpt>
      <trkpt lat="44.73475" lon="5.43229">
        <ele>719</ele>
        <time>2011-07-22T04:38:43.000Z</time>
      </trkpt>
      <trkpt lat="44.73474" lon="5.4323">
        <ele>719.20001220703</ele>
        <time>2011-07-22T04:38:44.000Z</time>
      </trkpt>
      <trkpt lat="44.73471" lon="5.43231">
        <ele>719.59997558594</ele>
        <time>2011-07-22T04:38:46.000Z</time>
      </trkpt>
      <trkpt lat="44.73469" lon="5.43232">
        <ele>720.20001220703</ele>
        <time>2011-07-22T04:38:48.000Z</time>
      </trkpt>
      <trkpt lat="44.73465" lon="5.43234">
        <ele>721.40002441406</ele>
        <time>2011-07-22T04:38:52.000Z</time>
      </trkpt>
      <trkpt lat="44.7346" lon="5.43235">
        <ele>723.20001220703</ele>
        <time>2011-07-22T04:38:57.000Z</time>
      </trkpt>
      <trkpt lat="44.73458" lon="5.43235">
        <ele>723.79998779297</ele>
        <time>2011-07-22T04:38:59.000Z</time>
      </trkpt>
      <trkpt lat="44.73455" lon="5.43234">
        <ele>724.59997558594</ele>
        <time>2011-07-22T04:39:01.000Z</time>
      </trkpt>
      <trkpt lat="44.73452" lon="5.43234">
        <ele>725.79998779297</ele>
        <time>2011-07-22T04:39:04.000Z</time>
      </trkpt>
      <trkpt lat="44.73447" lon="5.43232">
        <ele>727.40002441406</ele>
        <time>2011-07-22T04:39:09.000Z</time>
      </trkpt>
      <trkpt lat="44.73446" lon="5.43233">
        <ele>728.40002441406</ele>
        <time>2011-07-22T04:39:11.000Z</time>
      </trkpt>
      <trkpt lat="44.73445" lon="5.43233">
        <ele>728.79998779297</ele>
        <time>2011-07-22T04:39:12.000Z</time>
      </trkpt>
      <trkpt lat="44.73442" lon="5.43234">
        <ele>729.79998779297</ele>
        <time>2011-07-22T04:39:15.000Z</time>
      </trkpt>
      <trkpt lat="44.7344" lon="5.43236">
        <ele>730.79998779297</ele>
        <time>2011-07-22T04:39:18.000Z</time>
      </trkpt>
      <trkpt lat="44.73438" lon="5.43236">
        <ele>731.79998779297</ele>
        <time>2011-07-22T04:39:20.000Z</time>
      </trkpt>
      <trkpt lat="44.73437" lon="5.43237">
        <ele>732.40002441406</ele>
        <time>2011-07-22T04:39:21.000Z</time>
      </trkpt>
      <trkpt lat="44.73434" lon="5.43237">
        <ele>733.20001220703</ele>
        <time>2011-07-22T04:39:24.000Z</time>
      </trkpt>
      <trkpt lat="44.73432" lon="5.43238">
        <ele>733.59997558594</ele>
        <time>2011-07-22T04:39:25.000Z</time>
      </trkpt>
      <trkpt lat="44.73426" lon="5.43239">
        <ele>735</ele>
        <time>2011-07-22T04:39:30.000Z</time>
      </trkpt>
      <trkpt lat="44.73424" lon="5.4324">
        <ele>735.20001220703</ele>
        <time>2011-07-22T04:39:31.000Z</time>
      </trkpt>
      <trkpt lat="44.73419" lon="5.43242">
        <ele>736.40002441406</ele>
        <time>2011-07-22T04:39:36.000Z</time>
      </trkpt>
      <trkpt lat="44.73418" lon="5.43243">
        <ele>736.79998779297</ele>
        <time>2011-07-22T04:39:37.000Z</time>
      </trkpt>
      <trkpt lat="44.73415" lon="5.43246">
        <ele>737.79998779297</ele>
        <time>2011-07-22T04:39:40.000Z</time>
      </trkpt>
      <trkpt lat="44.73414" lon="5.43248">
        <ele>738.20001220703</ele>
        <time>2011-07-22T04:39:41.000Z</time>
      </trkpt>
      <trkpt lat="44.73406" lon="5.43254">
        <ele>739.79998779297</ele>
        <time>2011-07-22T04:39:47.000Z</time>
      </trkpt>
      <trkpt lat="44.73403" lon="5.43253">
        <ele>740.20001220703</ele>
        <time>2011-07-22T04:39:49.000Z</time>
      </trkpt>
      <trkpt lat="44.73397" lon="5.43251">
        <ele>741.20001220703</ele>
        <time>2011-07-22T04:39:53.000Z</time>
      </trkpt>
      <trkpt lat="44.7339" lon="5.43243">
        <ele>743</ele>
        <time>2011-07-22T04:39:59.000Z</time>
      </trkpt>
      <trkpt lat="44.73389" lon="5.43239">
        <ele>743.40002441406</ele>
        <time>2011-07-22T04:40:01.000Z</time>
      </trkpt>
      <trkpt lat="44.73388" lon="5.43233">
        <ele>743.79998779297</ele>
        <time>2011-07-22T04:40:04.000Z</time>
      </trkpt>
      <trkpt lat="44.73387" lon="5.43231">
        <ele>744</ele>
        <time>2011-07-22T04:40:05.000Z</time>
      </trkpt>
      <trkpt lat="44.73382" lon="5.4322">
        <ele>745.59997558594</ele>
        <time>2011-07-22T04:40:11.000Z</time>
      </trkpt>
      <trkpt lat="44.73372" lon="5.43213">
        <ele>747.79998779297</ele>
        <time>2011-07-22T04:40:23.000Z</time>
      </trkpt>
      <trkpt lat="44.73364" lon="5.43212">
        <ele>749</ele>
        <time>2011-07-22T04:40:29.000Z</time>
      </trkpt>
      <trkpt lat="44.73363" lon="5.43215">
        <ele>749.40002441406</ele>
        <time>2011-07-22T04:40:32.000Z</time>
      </trkpt>
      <trkpt lat="44.73362" lon="5.43216">
        <ele>749.79998779297</ele>
        <time>2011-07-22T04:40:33.000Z</time>
      </trkpt>
      <trkpt lat="44.7336" lon="5.43219">
        <ele>750.59997558594</ele>
        <time>2011-07-22T04:40:36.000Z</time>
      </trkpt>
      <trkpt lat="44.73358" lon="5.4322">
        <ele>750.79998779297</ele>
        <time>2011-07-22T04:40:38.000Z</time>
      </trkpt>
      <trkpt lat="44.73355" lon="5.43221">
        <ele>751.20001220703</ele>
        <time>2011-07-22T04:40:41.000Z</time>
      </trkpt>
      <trkpt lat="44.73352" lon="5.43222">
        <ele>752.20001220703</ele>
        <time>2011-07-22T04:40:45.000Z</time>
      </trkpt>
      <trkpt lat="44.73348" lon="5.43224">
        <ele>753.20001220703</ele>
        <time>2011-07-22T04:40:49.000Z</time>
      </trkpt>
      <trkpt lat="44.73347" lon="5.43225">
        <ele>753.79998779297</ele>
        <time>2011-07-22T04:40:51.000Z</time>
      </trkpt>
      <trkpt lat="44.7334" lon="5.43231">
        <ele>755.79998779297</ele>
        <time>2011-07-22T04:40:57.000Z</time>
      </trkpt>
      <trkpt lat="44.73337" lon="5.43234">
        <ele>756.59997558594</ele>
        <time>2011-07-22T04:40:59.000Z</time>
      </trkpt>
      <trkpt lat="44.73334" lon="5.43236">
        <ele>757.79998779297</ele>
        <time>2011-07-22T04:41:03.000Z</time>
      </trkpt>
      <trkpt lat="44.73333" lon="5.43237">
        <ele>758</ele>
        <time>2011-07-22T04:41:04.000Z</time>
      </trkpt>
      <trkpt lat="44.73328" lon="5.43244">
        <ele>759.79998779297</ele>
        <time>2011-07-22T04:41:09.000Z</time>
      </trkpt>
      <trkpt lat="44.73326" lon="5.43245">
        <ele>760</ele>
        <time>2011-07-22T04:41:10.000Z</time>
      </trkpt>
      <trkpt lat="44.73324" lon="5.43251">
        <ele>761</ele>
        <time>2011-07-22T04:41:15.000Z</time>
      </trkpt>
      <trkpt lat="44.73323" lon="5.43252">
        <ele>761.20001220703</ele>
        <time>2011-07-22T04:41:16.000Z</time>
      </trkpt>
      <trkpt lat="44.73317" lon="5.43259">
        <ele>763</ele>
        <time>2011-07-22T04:41:23.000Z</time>
      </trkpt>
      <trkpt lat="44.73317" lon="5.43259">
        <ele>763.59997558594</ele>
        <time>2011-07-22T04:41:24.000Z</time>
      </trkpt>
      <trkpt lat="44.73315" lon="5.43264">
        <ele>764.59997558594</ele>
        <time>2011-07-22T04:41:29.000Z</time>
      </trkpt>
      <trkpt lat="44.73313" lon="5.43265">
        <ele>765.40002441406</ele>
        <time>2011-07-22T04:41:32.000Z</time>
      </trkpt>
      <trkpt lat="44.73311" lon="5.43268">
        <ele>766.20001220703</ele>
        <time>2011-07-22T04:41:34.000Z</time>
      </trkpt>
      <trkpt lat="44.7331" lon="5.43269">
        <ele>766.40002441406</ele>
        <time>2011-07-22T04:41:35.000Z</time>
      </trkpt>
      <trkpt lat="44.73305" lon="5.43276">
        <ele>768</ele>
        <time>2011-07-22T04:41:40.000Z</time>
      </trkpt>
      <trkpt lat="44.73304" lon="5.43278">
        <ele>768.59997558594</ele>
        <time>2011-07-22T04:41:42.000Z</time>
      </trkpt>
      <trkpt lat="44.73301" lon="5.43281">
        <ele>769.40002441406</ele>
        <time>2011-07-22T04:41:45.000Z</time>
      </trkpt>
      <trkpt lat="44.73299" lon="5.43288">
        <ele>770</ele>
        <time>2011-07-22T04:41:49.000Z</time>
      </trkpt>
      <trkpt lat="44.73299" lon="5.43289">
        <ele>770</ele>
        <time>2011-07-22T04:41:50.000Z</time>
      </trkpt>
      <trkpt lat="44.73295" lon="5.43296">
        <ele>771</ele>
        <time>2011-07-22T04:41:55.000Z</time>
      </trkpt>
      <trkpt lat="44.73294" lon="5.43305">
        <ele>772.40002441406</ele>
        <time>2011-07-22T04:42:01.000Z</time>
      </trkpt>
      <trkpt lat="44.7329" lon="5.43313">
        <ele>773.40002441406</ele>
        <time>2011-07-22T04:42:08.000Z</time>
      </trkpt>
      <trkpt lat="44.73288" lon="5.43318">
        <ele>773.79998779297</ele>
        <time>2011-07-22T04:42:11.000Z</time>
      </trkpt>
      <trkpt lat="44.73284" lon="5.43326">
        <ele>774.79998779297</ele>
        <time>2011-07-22T04:42:15.000Z</time>
      </trkpt>
      <trkpt lat="44.73283" lon="5.43329">
        <ele>775</ele>
        <time>2011-07-22T04:42:17.000Z</time>
      </trkpt>
      <trkpt lat="44.7328" lon="5.43336">
        <ele>775.79998779297</ele>
        <time>2011-07-22T04:42:20.000Z</time>
      </trkpt>
      <trkpt lat="44.73279" lon="5.43339">
        <ele>776</ele>
        <time>2011-07-22T04:42:22.000Z</time>
      </trkpt>
      <trkpt lat="44.73275" lon="5.4335">
        <ele>776.59997558594</ele>
        <time>2011-07-22T04:42:29.000Z</time>
      </trkpt>
      <trkpt lat="44.73272" lon="5.43359">
        <ele>777.40002441406</ele>
        <time>2011-07-22T04:42:35.000Z</time>
      </trkpt>
      <trkpt lat="44.73272" lon="5.43361">
        <ele>777.40002441406</ele>
        <time>2011-07-22T04:42:36.000Z</time>
      </trkpt>
      <trkpt lat="44.73269" lon="5.43369">
        <ele>778</ele>
        <time>2011-07-22T04:42:41.000Z</time>
      </trkpt>
      <trkpt lat="44.73266" lon="5.43377">
        <ele>778.79998779297</ele>
        <time>2011-07-22T04:42:47.000Z</time>
      </trkpt>
      <trkpt lat="44.73264" lon="5.43382">
        <ele>780.20001220703</ele>
        <time>2011-07-22T04:42:53.000Z</time>
      </trkpt>
      <trkpt lat="44.73264" lon="5.43384">
        <ele>780.40002441406</ele>
        <time>2011-07-22T04:42:54.000Z</time>
      </trkpt>
      <trkpt lat="44.73263" lon="5.43386">
        <ele>781</ele>
        <time>2011-07-22T04:42:56.000Z</time>
      </trkpt>
      <trkpt lat="44.73259" lon="5.43388">
        <ele>782</ele>
        <time>2011-07-22T04:43:00.000Z</time>
      </trkpt>
      <trkpt lat="44.73256" lon="5.43394">
        <ele>783.59997558594</ele>
        <time>2011-07-22T04:43:04.000Z</time>
      </trkpt>
      <trkpt lat="44.73255" lon="5.43394">
        <ele>784</ele>
        <time>2011-07-22T04:43:05.000Z</time>
      </trkpt>
      <trkpt lat="44.73254" lon="5.43393">
        <ele>784.59997558594</ele>
        <time>2011-07-22T04:43:07.000Z</time>
      </trkpt>
      <trkpt lat="44.73251" lon="5.43394">
        <ele>786.20001220703</ele>
        <time>2011-07-22T04:43:11.000Z</time>
      </trkpt>
      <trkpt lat="44.73248" lon="5.43397">
        <ele>788.40002441406</ele>
        <time>2011-07-22T04:43:17.000Z</time>
      </trkpt>
      <trkpt lat="44.73246" lon="5.43403">
        <ele>790.40002441406</ele>
        <time>2011-07-22T04:43:22.000Z</time>
      </trkpt>
      <trkpt lat="44.73243" lon="5.43409">
        <ele>791.79998779297</ele>
        <time>2011-07-22T04:43:26.000Z</time>
      </trkpt>
      <trkpt lat="44.73242" lon="5.4341">
        <ele>792.59997558594</ele>
        <time>2011-07-22T04:43:28.000Z</time>
      </trkpt>
      <trkpt lat="44.73238" lon="5.43414">
        <ele>794.20001220703</ele>
        <time>2011-07-22T04:43:32.000Z</time>
      </trkpt>
      <trkpt lat="44.73236" lon="5.43418">
        <ele>795</ele>
        <time>2011-07-22T04:43:34.000Z</time>
      </trkpt>
      <trkpt lat="44.73235" lon="5.4342">
        <ele>795.40002441406</ele>
        <time>2011-07-22T04:43:35.000Z</time>
      </trkpt>
      <trkpt lat="44.73231" lon="5.4343">
        <ele>796.79998779297</ele>
        <time>2011-07-22T04:43:40.000Z</time>
      </trkpt>
      <trkpt lat="44.7323" lon="5.43432">
        <ele>797</ele>
        <time>2011-07-22T04:43:41.000Z</time>
      </trkpt>
      <trkpt lat="44.73228" lon="5.43442">
        <ele>798</ele>
        <time>2011-07-22T04:43:46.000Z</time>
      </trkpt>
      <trkpt lat="44.73228" lon="5.43444">
        <ele>798.20001220703</ele>
        <time>2011-07-22T04:43:47.000Z</time>
      </trkpt>
      <trkpt lat="44.73223" lon="5.43459">
        <ele>799.20001220703</ele>
        <time>2011-07-22T04:43:53.000Z</time>
      </trkpt>
      <trkpt lat="44.73222" lon="5.43466">
        <ele>799.79998779297</ele>
        <time>2011-07-22T04:43:56.000Z</time>
      </trkpt>
      <trkpt lat="44.73221" lon="5.4347">
        <ele>799.79998779297</ele>
        <time>2011-07-22T04:43:58.000Z</time>
      </trkpt>
      <trkpt lat="44.73218" lon="5.43484">
        <ele>800.79998779297</ele>
        <time>2011-07-22T04:44:04.000Z</time>
      </trkpt>
      <trkpt lat="44.73216" lon="5.43492">
        <ele>801.20001220703</ele>
        <time>2011-07-22T04:44:07.000Z</time>
      </trkpt>
      <trkpt lat="44.73217" lon="5.43497">
        <ele>801.79998779297</ele>
        <time>2011-07-22T04:44:09.000Z</time>
      </trkpt>
      <trkpt lat="44.73216" lon="5.43499">
        <ele>802.20001220703</ele>
        <time>2011-07-22T04:44:10.000Z</time>
      </trkpt>
      <trkpt lat="44.73211" lon="5.43505">
        <ele>804.20001220703</ele>
        <time>2011-07-22T04:44:15.000Z</time>
      </trkpt>
      <trkpt lat="44.73203" lon="5.43508">
        <ele>806.79998779297</ele>
        <time>2011-07-22T04:44:20.000Z</time>
      </trkpt>
      <trkpt lat="44.73192" lon="5.43511">
        <ele>809.59997558594</ele>
        <time>2011-07-22T04:44:26.000Z</time>
      </trkpt>
      <trkpt lat="44.73184" lon="5.43512">
        <ele>811.79998779297</ele>
        <time>2011-07-22T04:44:31.000Z</time>
      </trkpt>
      <trkpt lat="44.7318" lon="5.43513">
        <ele>812.79998779297</ele>
        <time>2011-07-22T04:44:33.000Z</time>
      </trkpt>
      <trkpt lat="44.73171" lon="5.43525">
        <ele>815.20001220703</ele>
        <time>2011-07-22T04:44:40.000Z</time>
      </trkpt>
      <trkpt lat="44.73169" lon="5.43528">
        <ele>815.79998779297</ele>
        <time>2011-07-22T04:44:42.000Z</time>
      </trkpt>
      <trkpt lat="44.73168" lon="5.43539">
        <ele>815.79998779297</ele>
        <time>2011-07-22T04:44:47.000Z</time>
      </trkpt>
      <trkpt lat="44.73166" lon="5.43552">
        <ele>816.20001220703</ele>
        <time>2011-07-22T04:44:52.000Z</time>
      </trkpt>
      <trkpt lat="44.73165" lon="5.43554">
        <ele>816.20001220703</ele>
        <time>2011-07-22T04:44:53.000Z</time>
      </trkpt>
      <trkpt lat="44.73161" lon="5.43567">
        <ele>816.79998779297</ele>
        <time>2011-07-22T04:44:59.000Z</time>
      </trkpt>
      <trkpt lat="44.73155" lon="5.43576">
        <ele>817.20001220703</ele>
        <time>2011-07-22T04:45:04.000Z</time>
      </trkpt>
      <trkpt lat="44.73153" lon="5.43581">
        <ele>817.40002441406</ele>
        <time>2011-07-22T04:45:06.000Z</time>
      </trkpt>
      <trkpt lat="44.73147" lon="5.43593">
        <ele>818.20001220703</ele>
        <time>2011-07-22T04:45:12.000Z</time>
      </trkpt>
      <trkpt lat="44.73147" lon="5.43599">
        <ele>819.20001220703</ele>
        <time>2011-07-22T04:45:16.000Z</time>
      </trkpt>
      <trkpt lat="44.73146" lon="5.43603">
        <ele>819.40002441406</ele>
        <time>2011-07-22T04:45:18.000Z</time>
      </trkpt>
      <trkpt lat="44.73143" lon="5.43616">
        <ele>820.59997558594</ele>
        <time>2011-07-22T04:45:25.000Z</time>
      </trkpt>
      <trkpt lat="44.73141" lon="5.43617">
        <ele>820.79998779297</ele>
        <time>2011-07-22T04:45:26.000Z</time>
      </trkpt>
      <trkpt lat="44.73137" lon="5.43616">
        <ele>821.40002441406</ele>
        <time>2011-07-22T04:45:29.000Z</time>
      </trkpt>
      <trkpt lat="44.73132" lon="5.43608">
        <ele>822.79998779297</ele>
        <time>2011-07-22T04:45:34.000Z</time>
      </trkpt>
      <trkpt lat="44.73127" lon="5.43596">
        <ele>824.20001220703</ele>
        <time>2011-07-22T04:45:39.000Z</time>
      </trkpt>
      <trkpt lat="44.73125" lon="5.43594">
        <ele>824.40002441406</ele>
        <time>2011-07-22T04:45:40.000Z</time>
      </trkpt>
      <trkpt lat="44.73119" lon="5.43583">
        <ele>826.20001220703</ele>
        <time>2011-07-22T04:45:45.000Z</time>
      </trkpt>
      <trkpt lat="44.73112" lon="5.43577">
        <ele>828.20001220703</ele>
        <time>2011-07-22T04:45:50.000Z</time>
      </trkpt>
      <trkpt lat="44.73107" lon="5.43575">
        <ele>829.59997558594</ele>
        <time>2011-07-22T04:45:54.000Z</time>
      </trkpt>
      <trkpt lat="44.73101" lon="5.43577">
        <ele>831.20001220703</ele>
        <time>2011-07-22T04:45:57.000Z</time>
      </trkpt>
      <trkpt lat="44.73096" lon="5.43582">
        <ele>832.79998779297</ele>
        <time>2011-07-22T04:46:00.000Z</time>
      </trkpt>
      <trkpt lat="44.73094" lon="5.43585">
        <ele>833.20001220703</ele>
        <time>2011-07-22T04:46:01.000Z</time>
      </trkpt>
      <trkpt lat="44.73092" lon="5.43589">
        <ele>834</ele>
        <time>2011-07-22T04:46:03.000Z</time>
      </trkpt>
      <trkpt lat="44.73085" lon="5.43596">
        <ele>837</ele>
        <time>2011-07-22T04:46:08.000Z</time>
      </trkpt>
      <trkpt lat="44.73082" lon="5.436">
        <ele>838.20001220703</ele>
        <time>2011-07-22T04:46:10.000Z</time>
      </trkpt>
      <trkpt lat="44.73075" lon="5.43608">
        <ele>840</ele>
        <time>2011-07-22T04:46:14.000Z</time>
      </trkpt>
      <trkpt lat="44.73067" lon="5.43618">
        <ele>841.40002441406</ele>
        <time>2011-07-22T04:46:19.000Z</time>
      </trkpt>
      <trkpt lat="44.73067" lon="5.4362">
        <ele>842</ele>
        <time>2011-07-22T04:46:20.000Z</time>
      </trkpt>
      <trkpt lat="44.73063" lon="5.43629">
        <ele>842.79998779297</ele>
        <time>2011-07-22T04:46:24.000Z</time>
      </trkpt>
      <trkpt lat="44.7306" lon="5.43633">
        <ele>843.20001220703</ele>
        <time>2011-07-22T04:46:26.000Z</time>
      </trkpt>
      <trkpt lat="44.73059" lon="5.43638">
        <ele>843.79998779297</ele>
        <time>2011-07-22T04:46:28.000Z</time>
      </trkpt>
      <trkpt lat="44.73058" lon="5.43639">
        <ele>844</ele>
        <time>2011-07-22T04:46:29.000Z</time>
      </trkpt>
      <trkpt lat="44.73055" lon="5.43645">
        <ele>844.40002441406</ele>
        <time>2011-07-22T04:46:32.000Z</time>
      </trkpt>
      <trkpt lat="44.73052" lon="5.43662">
        <ele>845.40002441406</ele>
        <time>2011-07-22T04:46:40.000Z</time>
      </trkpt>
      <trkpt lat="44.73051" lon="5.43664">
        <ele>845.20001220703</ele>
        <time>2011-07-22T04:46:41.000Z</time>
      </trkpt>
      <trkpt lat="44.73048" lon="5.43677">
        <ele>845.40002441406</ele>
        <time>2011-07-22T04:46:47.000Z</time>
      </trkpt>
      <trkpt lat="44.73046" lon="5.43685">
        <ele>846.20001220703</ele>
        <time>2011-07-22T04:46:52.000Z</time>
      </trkpt>
      <trkpt lat="44.73044" lon="5.43687">
        <ele>846.59997558594</ele>
        <time>2011-07-22T04:46:54.000Z</time>
      </trkpt>
      <trkpt lat="44.73038" lon="5.43693">
        <ele>847</ele>
        <time>2011-07-22T04:46:58.000Z</time>
      </trkpt>
      <trkpt lat="44.73037" lon="5.43696">
        <ele>847.40002441406</ele>
        <time>2011-07-22T04:46:59.000Z</time>
      </trkpt>
      <trkpt lat="44.73039" lon="5.43704">
        <ele>847.79998779297</ele>
        <time>2011-07-22T04:47:02.000Z</time>
      </trkpt>
      <trkpt lat="44.73039" lon="5.43707">
        <ele>847.79998779297</ele>
        <time>2011-07-22T04:47:03.000Z</time>
      </trkpt>
      <trkpt lat="44.73039" lon="5.4371">
        <ele>847.59997558594</ele>
        <time>2011-07-22T04:47:04.000Z</time>
      </trkpt>
      <trkpt lat="44.73039" lon="5.43721">
        <ele>847.59997558594</ele>
        <time>2011-07-22T04:47:07.000Z</time>
      </trkpt>
      <trkpt lat="44.7304" lon="5.43735">
        <ele>847.59997558594</ele>
        <time>2011-07-22T04:47:11.000Z</time>
      </trkpt>
      <trkpt lat="44.73041" lon="5.43739">
        <ele>847.59997558594</ele>
        <time>2011-07-22T04:47:13.000Z</time>
      </trkpt>
      <trkpt lat="44.73041" lon="5.43753">
        <ele>847.40002441406</ele>
        <time>2011-07-22T04:47:18.000Z</time>
      </trkpt>
      <trkpt lat="44.73041" lon="5.43759">
        <ele>847.20001220703</ele>
        <time>2011-07-22T04:47:20.000Z</time>
      </trkpt>
      <trkpt lat="44.7304" lon="5.43769">
        <ele>847</ele>
        <time>2011-07-22T04:47:23.000Z</time>
      </trkpt>
      <trkpt lat="44.73038" lon="5.43777">
        <ele>846.79998779297</ele>
        <time>2011-07-22T04:47:27.000Z</time>
      </trkpt>
      <trkpt lat="44.73038" lon="5.43778">
        <ele>846.79998779297</ele>
        <time>2011-07-22T04:47:28.000Z</time>
      </trkpt>
      <trkpt lat="44.7305" lon="5.43784">
        <ele>847.40002441406</ele>
        <time>2011-07-22T04:48:06.000Z</time>
      </trkpt>
      <trkpt lat="44.73053" lon="5.43789">
        <ele>848.40002441406</ele>
        <time>2011-07-22T04:48:10.000Z</time>
      </trkpt>
      <trkpt lat="44.73053" lon="5.43791">
        <ele>848.59997558594</ele>
        <time>2011-07-22T04:48:11.000Z</time>
      </trkpt>
      <trkpt lat="44.73052" lon="5.43795">
        <ele>849.59997558594</ele>
        <time>2011-07-22T04:48:15.000Z</time>
      </trkpt>
      <trkpt lat="44.73059" lon="5.43785">
        <ele>857.79998779297</ele>
        <time>2011-07-22T04:48:52.000Z</time>
      </trkpt>
      <trkpt lat="44.73064" lon="5.43789">
        <ele>857.79998779297</ele>
        <time>2011-07-22T04:48:55.000Z</time>
      </trkpt>
      <trkpt lat="44.73067" lon="5.43791">
        <ele>857.59997558594</ele>
        <time>2011-07-22T04:48:57.000Z</time>
      </trkpt>
      <trkpt lat="44.73069" lon="5.4379">
        <ele>857.40002441406</ele>
        <time>2011-07-22T04:48:59.000Z</time>
      </trkpt>
      <trkpt lat="44.73082" lon="5.438">
        <ele>859.20001220703</ele>
        <time>2011-07-22T04:49:41.000Z</time>
      </trkpt>
      <trkpt lat="44.73085" lon="5.438">
        <ele>859</ele>
        <time>2011-07-22T04:49:42.000Z</time>
      </trkpt>
      <trkpt lat="44.73098" lon="5.43801">
        <ele>858.20001220703</ele>
        <time>2011-07-22T04:49:49.000Z</time>
      </trkpt>
      <trkpt lat="44.73101" lon="5.43802">
        <ele>858.20001220703</ele>
        <time>2011-07-22T04:49:51.000Z</time>
      </trkpt>
      <trkpt lat="44.73106" lon="5.43803">
        <ele>858</ele>
        <time>2011-07-22T04:49:55.000Z</time>
      </trkpt>
      <trkpt lat="44.73114" lon="5.43807">
        <ele>857.59997558594</ele>
        <time>2011-07-22T04:50:02.000Z</time>
      </trkpt>
      <trkpt lat="44.73119" lon="5.43807">
        <ele>857.40002441406</ele>
        <time>2011-07-22T04:50:07.000Z</time>
      </trkpt>
      <trkpt lat="44.73126" lon="5.43816">
        <ele>857</ele>
        <time>2011-07-22T04:50:13.000Z</time>
      </trkpt>
      <trkpt lat="44.73129" lon="5.43817">
        <ele>856.79998779297</ele>
        <time>2011-07-22T04:50:15.000Z</time>
      </trkpt>
      <trkpt lat="44.73131" lon="5.43817">
        <ele>856.59997558594</ele>
        <time>2011-07-22T04:50:17.000Z</time>
      </trkpt>
      <trkpt lat="44.73132" lon="5.43817">
        <ele>856.59997558594</ele>
        <time>2011-07-22T04:50:18.000Z</time>
      </trkpt>
      <trkpt lat="44.73135" lon="5.43818">
        <ele>856.40002441406</ele>
        <time>2011-07-22T04:50:22.000Z</time>
      </trkpt>
      <trkpt lat="44.73139" lon="5.43819">
        <ele>856.20001220703</ele>
        <time>2011-07-22T04:50:25.000Z</time>
      </trkpt>
      <trkpt lat="44.73143" lon="5.43822">
        <ele>856.20001220703</ele>
        <time>2011-07-22T04:50:29.000Z</time>
      </trkpt>
      <trkpt lat="44.73144" lon="5.43823">
        <ele>856.20001220703</ele>
        <time>2011-07-22T04:50:30.000Z</time>
      </trkpt>
      <trkpt lat="44.73148" lon="5.43824">
        <ele>856</ele>
        <time>2011-07-22T04:50:33.000Z</time>
      </trkpt>
      <trkpt lat="44.73153" lon="5.43827">
        <ele>856</ele>
        <time>2011-07-22T04:50:35.000Z</time>
      </trkpt>
      <trkpt lat="44.73155" lon="5.4383">
        <ele>855.79998779297</ele>
        <time>2011-07-22T04:50:36.000Z</time>
      </trkpt>
      <trkpt lat="44.73164" lon="5.43836">
        <ele>855.79998779297</ele>
        <time>2011-07-22T04:50:41.000Z</time>
      </trkpt>
      <trkpt lat="44.73171" lon="5.4384">
        <ele>855.79998779297</ele>
        <time>2011-07-22T04:50:44.000Z</time>
      </trkpt>
      <trkpt lat="44.73176" lon="5.43843">
        <ele>856</ele>
        <time>2011-07-22T04:50:46.000Z</time>
      </trkpt>
      <trkpt lat="44.73182" lon="5.43848">
        <ele>856.20001220703</ele>
        <time>2011-07-22T04:50:50.000Z</time>
      </trkpt>
      <trkpt lat="44.73185" lon="5.43849">
        <ele>856.40002441406</ele>
        <time>2011-07-22T04:50:51.000Z</time>
      </trkpt>
      <trkpt lat="44.73188" lon="5.4385">
        <ele>856.59997558594</ele>
        <time>2011-07-22T04:50:52.000Z</time>
      </trkpt>
      <trkpt lat="44.73201" lon="5.43855">
        <ele>857.40002441406</ele>
        <time>2011-07-22T04:50:56.000Z</time>
      </trkpt>
      <trkpt lat="44.73207" lon="5.43856">
        <ele>857.79998779297</ele>
        <time>2011-07-22T04:50:58.000Z</time>
      </trkpt>
      <trkpt lat="44.73213" lon="5.43861">
        <ele>858.79998779297</ele>
        <time>2011-07-22T04:51:01.000Z</time>
      </trkpt>
      <trkpt lat="44.73215" lon="5.43863">
        <ele>859.20001220703</ele>
        <time>2011-07-22T04:51:02.000Z</time>
      </trkpt>
      <trkpt lat="44.73221" lon="5.43868">
        <ele>859.79998779297</ele>
        <time>2011-07-22T04:51:04.000Z</time>
      </trkpt>
      <trkpt lat="44.73223" lon="5.43869">
        <ele>860.20001220703</ele>
        <time>2011-07-22T04:51:05.000Z</time>
      </trkpt>
      <trkpt lat="44.73236" lon="5.43879">
        <ele>861</ele>
        <time>2011-07-22T04:51:10.000Z</time>
      </trkpt>
      <trkpt lat="44.73241" lon="5.43883">
        <ele>861.40002441406</ele>
        <time>2011-07-22T04:51:12.000Z</time>
      </trkpt>
      <trkpt lat="44.73248" lon="5.43888">
        <ele>861.79998779297</ele>
        <time>2011-07-22T04:51:15.000Z</time>
      </trkpt>
      <trkpt lat="44.73258" lon="5.43896">
        <ele>862.20001220703</ele>
        <time>2011-07-22T04:51:19.000Z</time>
      </trkpt>
      <trkpt lat="44.73263" lon="5.43905">
        <ele>862.40002441406</ele>
        <time>2011-07-22T04:51:22.000Z</time>
      </trkpt>
      <trkpt lat="44.73266" lon="5.43921">
        <ele>862.59997558594</ele>
        <time>2011-07-22T04:51:27.000Z</time>
      </trkpt>
      <trkpt lat="44.73263" lon="5.43944">
        <ele>862.20001220703</ele>
        <time>2011-07-22T04:51:33.000Z</time>
      </trkpt>
      <trkpt lat="44.73262" lon="5.43947">
        <ele>862.20001220703</ele>
        <time>2011-07-22T04:51:34.000Z</time>
      </trkpt>
      <trkpt lat="44.73266" lon="5.4396">
        <ele>862</ele>
        <time>2011-07-22T04:51:38.000Z</time>
      </trkpt>
      <trkpt lat="44.73264" lon="5.43966">
        <ele>862</ele>
        <time>2011-07-22T04:51:40.000Z</time>
      </trkpt>
      <trkpt lat="44.73261" lon="5.43974">
        <ele>861.79998779297</ele>
        <time>2011-07-22T04:51:42.000Z</time>
      </trkpt>
      <trkpt lat="44.73257" lon="5.43987">
        <ele>861.59997558594</ele>
        <time>2011-07-22T04:51:46.000Z</time>
      </trkpt>
      <trkpt lat="44.73257" lon="5.44">
        <ele>861.40002441406</ele>
        <time>2011-07-22T04:51:51.000Z</time>
      </trkpt>
      <trkpt lat="44.73258" lon="5.44002">
        <ele>861.59997558594</ele>
        <time>2011-07-22T04:51:52.000Z</time>
      </trkpt>
      <trkpt lat="44.73262" lon="5.44014">
        <ele>861.59997558594</ele>
        <time>2011-07-22T04:51:57.000Z</time>
      </trkpt>
      <trkpt lat="44.73263" lon="5.44025">
        <ele>862</ele>
        <time>2011-07-22T04:52:01.000Z</time>
      </trkpt>
      <trkpt lat="44.73262" lon="5.44029">
        <ele>862</ele>
        <time>2011-07-22T04:52:03.000Z</time>
      </trkpt>
      <trkpt lat="44.73263" lon="5.44038">
        <ele>862.20001220703</ele>
        <time>2011-07-22T04:52:07.000Z</time>
      </trkpt>
      <trkpt lat="44.73263" lon="5.44043">
        <ele>862.79998779297</ele>
        <time>2011-07-22T04:52:09.000Z</time>
      </trkpt>
      <trkpt lat="44.73264" lon="5.44049">
        <ele>863</ele>
        <time>2011-07-22T04:52:11.000Z</time>
      </trkpt>
      <trkpt lat="44.73265" lon="5.44052">
        <ele>863</ele>
        <time>2011-07-22T04:52:12.000Z</time>
      </trkpt>
      <trkpt lat="44.73265" lon="5.44058">
        <ele>863</ele>
        <time>2011-07-22T04:52:14.000Z</time>
      </trkpt>
      <trkpt lat="44.73268" lon="5.44064">
        <ele>863.79998779297</ele>
        <time>2011-07-22T04:52:17.000Z</time>
      </trkpt>
      <trkpt lat="44.7327" lon="5.4407">
        <ele>864</ele>
        <time>2011-07-22T04:52:19.000Z</time>
      </trkpt>
      <trkpt lat="44.7327" lon="5.44078">
        <ele>864</ele>
        <time>2011-07-22T04:52:22.000Z</time>
      </trkpt>
      <trkpt lat="44.73271" lon="5.44086">
        <ele>864</ele>
        <time>2011-07-22T04:52:25.000Z</time>
      </trkpt>
      <trkpt lat="44.73272" lon="5.44102">
        <ele>864.40002441406</ele>
        <time>2011-07-22T04:52:31.000Z</time>
      </trkpt>
      <trkpt lat="44.73272" lon="5.44104">
        <ele>864.40002441406</ele>
        <time>2011-07-22T04:52:32.000Z</time>
      </trkpt>
      <trkpt lat="44.73275" lon="5.44114">
        <ele>864.59997558594</ele>
        <time>2011-07-22T04:52:35.000Z</time>
      </trkpt>
      <trkpt lat="44.73276" lon="5.44116">
        <ele>864.59997558594</ele>
        <time>2011-07-22T04:52:36.000Z</time>
      </trkpt>
      <trkpt lat="44.73278" lon="5.4413">
        <ele>865.59997558594</ele>
        <time>2011-07-22T04:52:42.000Z</time>
      </trkpt>
      <trkpt lat="44.73279" lon="5.44134">
        <ele>865.79998779297</ele>
        <time>2011-07-22T04:52:44.000Z</time>
      </trkpt>
      <trkpt lat="44.73279" lon="5.44143">
        <ele>865.79998779297</ele>
        <time>2011-07-22T04:52:47.000Z</time>
      </trkpt>
      <trkpt lat="44.7328" lon="5.44156">
        <ele>866</ele>
        <time>2011-07-22T04:52:52.000Z</time>
      </trkpt>
      <trkpt lat="44.73279" lon="5.44159">
        <ele>866.20001220703</ele>
        <time>2011-07-22T04:52:53.000Z</time>
      </trkpt>
      <trkpt lat="44.73279" lon="5.44173">
        <ele>865.79998779297</ele>
        <time>2011-07-22T04:52:59.000Z</time>
      </trkpt>
      <trkpt lat="44.73281" lon="5.44181">
        <ele>866.20001220703</ele>
        <time>2011-07-22T04:53:03.000Z</time>
      </trkpt>
      <trkpt lat="44.7328" lon="5.44184">
        <ele>866</ele>
        <time>2011-07-22T04:53:04.000Z</time>
      </trkpt>
      <trkpt lat="44.7328" lon="5.44198">
        <ele>866.59997558594</ele>
        <time>2011-07-22T04:53:09.000Z</time>
      </trkpt>
      <trkpt lat="44.73282" lon="5.44209">
        <ele>868</ele>
        <time>2011-07-22T04:53:15.000Z</time>
      </trkpt>
      <trkpt lat="44.73282" lon="5.44223">
        <ele>868.59997558594</ele>
        <time>2011-07-22T04:53:20.000Z</time>
      </trkpt>
      <trkpt lat="44.73281" lon="5.44234">
        <ele>869</ele>
        <time>2011-07-22T04:53:24.000Z</time>
      </trkpt>
      <trkpt lat="44.7328" lon="5.44238">
        <ele>869.40002441406</ele>
        <time>2011-07-22T04:53:25.000Z</time>
      </trkpt>
      <trkpt lat="44.7328" lon="5.44244">
        <ele>870.20001220703</ele>
        <time>2011-07-22T04:53:27.000Z</time>
      </trkpt>
      <trkpt lat="44.73281" lon="5.44253">
        <ele>871.40002441406</ele>
        <time>2011-07-22T04:53:30.000Z</time>
      </trkpt>
      <trkpt lat="44.73283" lon="5.4426">
        <ele>872.59997558594</ele>
        <time>2011-07-22T04:53:33.000Z</time>
      </trkpt>
      <trkpt lat="44.73283" lon="5.44263">
        <ele>873</ele>
        <time>2011-07-22T04:53:34.000Z</time>
      </trkpt>
      <trkpt lat="44.73283" lon="5.44266">
        <ele>873.40002441406</ele>
        <time>2011-07-22T04:53:35.000Z</time>
      </trkpt>
      <trkpt lat="44.73283" lon="5.44269">
        <ele>873.79998779297</ele>
        <time>2011-07-22T04:53:36.000Z</time>
      </trkpt>
      <trkpt lat="44.73286" lon="5.44274">
        <ele>875.40002441406</ele>
        <time>2011-07-22T04:53:39.000Z</time>
      </trkpt>
      <trkpt lat="44.73287" lon="5.44276">
        <ele>875.59997558594</ele>
        <time>2011-07-22T04:53:40.000Z</time>
      </trkpt>
      <trkpt lat="44.73289" lon="5.44284">
        <ele>876.59997558594</ele>
        <time>2011-07-22T04:53:43.000Z</time>
      </trkpt>
      <trkpt lat="44.73292" lon="5.44289">
        <ele>877</ele>
        <time>2011-07-22T04:53:45.000Z</time>
      </trkpt>
      <trkpt lat="44.73306" lon="5.44301">
        <ele>881.20001220703</ele>
        <time>2011-07-22T04:53:50.000Z</time>
      </trkpt>
      <trkpt lat="44.73306" lon="5.44304">
        <ele>881.59997558594</ele>
        <time>2011-07-22T04:53:51.000Z</time>
      </trkpt>
      <trkpt lat="44.73307" lon="5.44306">
        <ele>882</ele>
        <time>2011-07-22T04:53:52.000Z</time>
      </trkpt>
      <trkpt lat="44.73309" lon="5.44321">
        <ele>885.40002441406</ele>
        <time>2011-07-22T04:53:58.000Z</time>
      </trkpt>
      <trkpt lat="44.7331" lon="5.4433">
        <ele>886.79998779297</ele>
        <time>2011-07-22T04:54:01.000Z</time>
      </trkpt>
      <trkpt lat="44.7331" lon="5.44335">
        <ele>887.20001220703</ele>
        <time>2011-07-22T04:54:03.000Z</time>
      </trkpt>
      <trkpt lat="44.7331" lon="5.44342">
        <ele>888.20001220703</ele>
        <time>2011-07-22T04:54:06.000Z</time>
      </trkpt>
      <trkpt lat="44.73311" lon="5.44347">
        <ele>888.59997558594</ele>
        <time>2011-07-22T04:54:08.000Z</time>
      </trkpt>
      <trkpt lat="44.73314" lon="5.44357">
        <ele>890.40002441406</ele>
        <time>2011-07-22T04:54:13.000Z</time>
      </trkpt>
      <trkpt lat="44.73318" lon="5.44368">
        <ele>892.59997558594</ele>
        <time>2011-07-22T04:54:17.000Z</time>
      </trkpt>
      <trkpt lat="44.73318" lon="5.44371">
        <ele>893</ele>
        <time>2011-07-22T04:54:18.000Z</time>
      </trkpt>
      <trkpt lat="44.73323" lon="5.44382">
        <ele>895.40002441406</ele>
        <time>2011-07-22T04:54:22.000Z</time>
      </trkpt>
      <trkpt lat="44.73324" lon="5.44386">
        <ele>896</ele>
        <time>2011-07-22T04:54:23.000Z</time>
      </trkpt>
      <trkpt lat="44.73325" lon="5.44394">
        <ele>897.79998779297</ele>
        <time>2011-07-22T04:54:26.000Z</time>
      </trkpt>
      <trkpt lat="44.73325" lon="5.44396">
        <ele>898.40002441406</ele>
        <time>2011-07-22T04:54:27.000Z</time>
      </trkpt>
      <trkpt lat="44.73325" lon="5.44398">
        <ele>899.40002441406</ele>
        <time>2011-07-22T04:54:28.000Z</time>
      </trkpt>
      <trkpt lat="44.73322" lon="5.44405">
        <ele>901</ele>
        <time>2011-07-22T04:54:31.000Z</time>
      </trkpt>
      <trkpt lat="44.7332" lon="5.44407">
        <ele>901.40002441406</ele>
        <time>2011-07-22T04:54:32.000Z</time>
      </trkpt>
      <trkpt lat="44.73318" lon="5.44409">
        <ele>901.79998779297</ele>
        <time>2011-07-22T04:54:33.000Z</time>
      </trkpt>
      <trkpt lat="44.73312" lon="5.44414">
        <ele>903.79998779297</ele>
        <time>2011-07-22T04:54:36.000Z</time>
      </trkpt>
      <trkpt lat="44.73309" lon="5.44416">
        <ele>905</ele>
        <time>2011-07-22T04:54:38.000Z</time>
      </trkpt>
      <trkpt lat="44.73306" lon="5.44419">
        <ele>905.79998779297</ele>
        <time>2011-07-22T04:54:40.000Z</time>
      </trkpt>
      <trkpt lat="44.73304" lon="5.44422">
        <ele>906.40002441406</ele>
        <time>2011-07-22T04:54:41.000Z</time>
      </trkpt>
      <trkpt lat="44.73301" lon="5.44423">
        <ele>907.40002441406</ele>
        <time>2011-07-22T04:54:43.000Z</time>
      </trkpt>
      <trkpt lat="44.73289" lon="5.44432">
        <ele>909.59997558594</ele>
        <time>2011-07-22T04:54:49.000Z</time>
      </trkpt>
      <trkpt lat="44.73287" lon="5.44435">
        <ele>910</ele>
        <time>2011-07-22T04:54:50.000Z</time>
      </trkpt>
      <trkpt lat="44.73283" lon="5.44443">
        <ele>910.79998779297</ele>
        <time>2011-07-22T04:54:53.000Z</time>
      </trkpt>
      <trkpt lat="44.73281" lon="5.44458">
        <ele>918</ele>
        <time>2011-07-22T04:55:18.000Z</time>
      </trkpt>
      <trkpt lat="44.73278" lon="5.44462">
        <ele>919</ele>
        <time>2011-07-22T04:55:21.000Z</time>
      </trkpt>
      <trkpt lat="44.73272" lon="5.44464">
        <ele>918.79998779297</ele>
        <time>2011-07-22T04:55:25.000Z</time>
      </trkpt>
      <trkpt lat="44.73271" lon="5.44466">
        <ele>919.20001220703</ele>
        <time>2011-07-22T04:55:26.000Z</time>
      </trkpt>
      <trkpt lat="44.73269" lon="5.44475">
        <ele>919.59997558594</ele>
        <time>2011-07-22T04:55:29.000Z</time>
      </trkpt>
      <trkpt lat="44.73269" lon="5.44479">
        <ele>919.79998779297</ele>
        <time>2011-07-22T04:55:31.000Z</time>
      </trkpt>
      <trkpt lat="44.73267" lon="5.44489">
        <ele>920</ele>
        <time>2011-07-22T04:55:35.000Z</time>
      </trkpt>
      <trkpt lat="44.73265" lon="5.44496">
        <ele>920.40002441406</ele>
        <time>2011-07-22T04:55:39.000Z</time>
      </trkpt>
      <trkpt lat="44.73265" lon="5.44497">
        <ele>921</ele>
        <time>2011-07-22T04:55:41.000Z</time>
      </trkpt>
      <trkpt lat="44.7326" lon="5.44512">
        <ele>923.20001220703</ele>
        <time>2011-07-22T04:56:00.000Z</time>
      </trkpt>
      <trkpt lat="44.73257" lon="5.44518">
        <ele>923.40002441406</ele>
        <time>2011-07-22T04:56:03.000Z</time>
      </trkpt>
      <trkpt lat="44.73251" lon="5.44532">
        <ele>923.59997558594</ele>
        <time>2011-07-22T04:56:08.000Z</time>
      </trkpt>
      <trkpt lat="44.7325" lon="5.44534">
        <ele>923.79998779297</ele>
        <time>2011-07-22T04:56:09.000Z</time>
      </trkpt>
      <trkpt lat="44.73248" lon="5.44537">
        <ele>923.79998779297</ele>
        <time>2011-07-22T04:56:11.000Z</time>
      </trkpt>
      <trkpt lat="44.73248" lon="5.4454">
        <ele>924</ele>
        <time>2011-07-22T04:56:13.000Z</time>
      </trkpt>
      <trkpt lat="44.73248" lon="5.44546">
        <ele>924.79998779297</ele>
        <time>2011-07-22T04:56:19.000Z</time>
      </trkpt>
      <trkpt lat="44.73247" lon="5.4455">
        <ele>925.20001220703</ele>
        <time>2011-07-22T04:56:22.000Z</time>
      </trkpt>
      <trkpt lat="44.73248" lon="5.44553">
        <ele>925.40002441406</ele>
        <time>2011-07-22T04:56:25.000Z</time>
      </trkpt>
      <trkpt lat="44.73251" lon="5.44554">
        <ele>925.79998779297</ele>
        <time>2011-07-22T04:56:28.000Z</time>
      </trkpt>
      <trkpt lat="44.73252" lon="5.44555">
        <ele>926.20001220703</ele>
        <time>2011-07-22T04:56:30.000Z</time>
      </trkpt>
      <trkpt lat="44.73251" lon="5.44558">
        <ele>926.40002441406</ele>
        <time>2011-07-22T04:56:33.000Z</time>
      </trkpt>
      <trkpt lat="44.73251" lon="5.4456">
        <ele>926.59997558594</ele>
        <time>2011-07-22T04:56:34.000Z</time>
      </trkpt>
      <trkpt lat="44.73251" lon="5.4456">
        <ele>926.79998779297</ele>
        <time>2011-07-22T04:56:35.000Z</time>
      </trkpt>
      <trkpt lat="44.73248" lon="5.44563">
        <ele>927.59997558594</ele>
        <time>2011-07-22T04:56:39.000Z</time>
      </trkpt>
      <trkpt lat="44.73244" lon="5.44569">
        <ele>928.59997558594</ele>
        <time>2011-07-22T04:56:43.000Z</time>
      </trkpt>
      <trkpt lat="44.73243" lon="5.44571">
        <ele>929.20001220703</ele>
        <time>2011-07-22T04:56:45.000Z</time>
      </trkpt>
      <trkpt lat="44.73241" lon="5.44574">
        <ele>929.79998779297</ele>
        <time>2011-07-22T04:56:47.000Z</time>
      </trkpt>
      <trkpt lat="44.7324" lon="5.44576">
        <ele>930.40002441406</ele>
        <time>2011-07-22T04:56:49.000Z</time>
      </trkpt>
      <trkpt lat="44.73239" lon="5.44579">
        <ele>931.20001220703</ele>
        <time>2011-07-22T04:56:51.000Z</time>
      </trkpt>
      <trkpt lat="44.73236" lon="5.44584">
        <ele>932.40002441406</ele>
        <time>2011-07-22T04:56:55.000Z</time>
      </trkpt>
      <trkpt lat="44.73235" lon="5.44586">
        <ele>933.20001220703</ele>
        <time>2011-07-22T04:56:57.000Z</time>
      </trkpt>
      <trkpt lat="44.73234" lon="5.44589">
        <ele>933.59997558594</ele>
        <time>2011-07-22T04:56:59.000Z</time>
      </trkpt>
      <trkpt lat="44.73232" lon="5.44592">
        <ele>935.40002441406</ele>
        <time>2011-07-22T04:57:03.000Z</time>
      </trkpt>
      <trkpt lat="44.73231" lon="5.44593">
        <ele>935.79998779297</ele>
        <time>2011-07-22T04:57:04.000Z</time>
      </trkpt>
      <trkpt lat="44.7323" lon="5.44594">
        <ele>936.40002441406</ele>
        <time>2011-07-22T04:57:05.000Z</time>
      </trkpt>
      <trkpt lat="44.73228" lon="5.44597">
        <ele>937.59997558594</ele>
        <time>2011-07-22T04:57:08.000Z</time>
      </trkpt>
      <trkpt lat="44.73227" lon="5.446">
        <ele>938.20001220703</ele>
        <time>2011-07-22T04:57:10.000Z</time>
      </trkpt>
      <trkpt lat="44.73224" lon="5.44606">
        <ele>939.40002441406</ele>
        <time>2011-07-22T04:57:14.000Z</time>
      </trkpt>
      <trkpt lat="44.73222" lon="5.44608">
        <ele>940.20001220703</ele>
        <time>2011-07-22T04:57:16.000Z</time>
      </trkpt>
      <trkpt lat="44.7322" lon="5.44611">
        <ele>942.20001220703</ele>
        <time>2011-07-22T04:57:20.000Z</time>
      </trkpt>
      <trkpt lat="44.7322" lon="5.44612">
        <ele>942.40002441406</ele>
        <time>2011-07-22T04:57:21.000Z</time>
      </trkpt>
      <trkpt lat="44.7322" lon="5.44613">
        <ele>943.40002441406</ele>
        <time>2011-07-22T04:57:23.000Z</time>
      </trkpt>
      <trkpt lat="44.73221" lon="5.44614">
        <ele>944</ele>
        <time>2011-07-22T04:57:24.000Z</time>
      </trkpt>
      <trkpt lat="44.7322" lon="5.44616">
        <ele>944.79998779297</ele>
        <time>2011-07-22T04:57:26.000Z</time>
      </trkpt>
      <trkpt lat="44.73219" lon="5.44616">
        <ele>945.59997558594</ele>
        <time>2011-07-22T04:57:27.000Z</time>
      </trkpt>
      <trkpt lat="44.73216" lon="5.44617">
        <ele>946.40002441406</ele>
        <time>2011-07-22T04:57:29.000Z</time>
      </trkpt>
      <trkpt lat="44.73212" lon="5.44624">
        <ele>948.59997558594</ele>
        <time>2011-07-22T04:57:35.000Z</time>
      </trkpt>
      <trkpt lat="44.73207" lon="5.44632">
        <ele>950.59997558594</ele>
        <time>2011-07-22T04:57:41.000Z</time>
      </trkpt>
      <trkpt lat="44.73206" lon="5.44633">
        <ele>951</ele>
        <time>2011-07-22T04:57:42.000Z</time>
      </trkpt>
      <trkpt lat="44.73205" lon="5.44636">
        <ele>952</ele>
        <time>2011-07-22T04:57:45.000Z</time>
      </trkpt>
      <trkpt lat="44.73204" lon="5.44635">
        <ele>952.40002441406</ele>
        <time>2011-07-22T04:57:46.000Z</time>
      </trkpt>
      <trkpt lat="44.73204" lon="5.44636">
        <ele>952.59997558594</ele>
        <time>2011-07-22T04:57:47.000Z</time>
      </trkpt>
      <trkpt lat="44.73203" lon="5.44638">
        <ele>953.79998779297</ele>
        <time>2011-07-22T04:57:51.000Z</time>
      </trkpt>
      <trkpt lat="44.73198" lon="5.44648">
        <ele>955</ele>
        <time>2011-07-22T04:57:57.000Z</time>
      </trkpt>
      <trkpt lat="44.73198" lon="5.44649">
        <ele>955</ele>
        <time>2011-07-22T04:57:58.000Z</time>
      </trkpt>
      <trkpt lat="44.73195" lon="5.44655">
        <ele>956.20001220703</ele>
        <time>2011-07-22T04:58:03.000Z</time>
      </trkpt>
      <trkpt lat="44.7319" lon="5.44662">
        <ele>957.40002441406</ele>
        <time>2011-07-22T04:58:09.000Z</time>
      </trkpt>
      <trkpt lat="44.73185" lon="5.44669">
        <ele>958.20001220703</ele>
        <time>2011-07-22T04:58:15.000Z</time>
      </trkpt>
      <trkpt lat="44.73184" lon="5.44671">
        <ele>958.59997558594</ele>
        <time>2011-07-22T04:58:18.000Z</time>
      </trkpt>
      <trkpt lat="44.73183" lon="5.44673">
        <ele>959</ele>
        <time>2011-07-22T04:58:20.000Z</time>
      </trkpt>
      <trkpt lat="44.73182" lon="5.44674">
        <ele>959.20001220703</ele>
        <time>2011-07-22T04:58:21.000Z</time>
      </trkpt>
      <trkpt lat="44.73178" lon="5.44679">
        <ele>959.79998779297</ele>
        <time>2011-07-22T04:58:26.000Z</time>
      </trkpt>
      <trkpt lat="44.73172" lon="5.44685">
        <ele>960</ele>
        <time>2011-07-22T04:58:31.000Z</time>
      </trkpt>
      <trkpt lat="44.73172" lon="5.44686">
        <ele>960.59997558594</ele>
        <time>2011-07-22T04:58:35.000Z</time>
      </trkpt>
      <trkpt lat="44.73175" lon="5.44686">
        <ele>961</ele>
        <time>2011-07-22T04:58:39.000Z</time>
      </trkpt>
      <trkpt lat="44.7318" lon="5.44688">
        <ele>962.59997558594</ele>
        <time>2011-07-22T04:58:45.000Z</time>
      </trkpt>
      <trkpt lat="44.73181" lon="5.44687">
        <ele>962.79998779297</ele>
        <time>2011-07-22T04:58:46.000Z</time>
      </trkpt>
      <trkpt lat="44.73187" lon="5.44689">
        <ele>964.79998779297</ele>
        <time>2011-07-22T04:58:52.000Z</time>
      </trkpt>
      <trkpt lat="44.7319" lon="5.44688">
        <ele>966.20001220703</ele>
        <time>2011-07-22T04:58:56.000Z</time>
      </trkpt>
      <trkpt lat="44.73193" lon="5.44687">
        <ele>966.79998779297</ele>
        <time>2011-07-22T04:58:58.000Z</time>
      </trkpt>
      <trkpt lat="44.73194" lon="5.44687">
        <ele>967</ele>
        <time>2011-07-22T04:58:59.000Z</time>
      </trkpt>
      <trkpt lat="44.73195" lon="5.44687">
        <ele>967.40002441406</ele>
        <time>2011-07-22T04:59:00.000Z</time>
      </trkpt>
      <trkpt lat="44.73198" lon="5.44687">
        <ele>968.20001220703</ele>
        <time>2011-07-22T04:59:03.000Z</time>
      </trkpt>
      <trkpt lat="44.73201" lon="5.44686">
        <ele>969.40002441406</ele>
        <time>2011-07-22T04:59:08.000Z</time>
      </trkpt>
      <trkpt lat="44.73203" lon="5.44686">
        <ele>969.59997558594</ele>
        <time>2011-07-22T04:59:09.000Z</time>
      </trkpt>
      <trkpt lat="44.73203" lon="5.44689">
        <ele>970.79998779297</ele>
        <time>2011-07-22T04:59:13.000Z</time>
      </trkpt>
      <trkpt lat="44.73201" lon="5.44694">
        <ele>972.59997558594</ele>
        <time>2011-07-22T04:59:19.000Z</time>
      </trkpt>
      <trkpt lat="44.73201" lon="5.44697">
        <ele>973.59997558594</ele>
        <time>2011-07-22T04:59:22.000Z</time>
      </trkpt>
      <trkpt lat="44.73199" lon="5.447">
        <ele>975</ele>
        <time>2011-07-22T04:59:25.000Z</time>
      </trkpt>
      <trkpt lat="44.73197" lon="5.44704">
        <ele>977</ele>
        <time>2011-07-22T04:59:30.000Z</time>
      </trkpt>
      <trkpt lat="44.73194" lon="5.4471">
        <ele>978.20001220703</ele>
        <time>2011-07-22T04:59:34.000Z</time>
      </trkpt>
      <trkpt lat="44.73193" lon="5.44712">
        <ele>978.59997558594</ele>
        <time>2011-07-22T04:59:36.000Z</time>
      </trkpt>
      <trkpt lat="44.73188" lon="5.44715">
        <ele>979.79998779297</ele>
        <time>2011-07-22T04:59:41.000Z</time>
      </trkpt>
      <trkpt lat="44.73188" lon="5.44716">
        <ele>980</ele>
        <time>2011-07-22T04:59:42.000Z</time>
      </trkpt>
      <trkpt lat="44.73186" lon="5.4472">
        <ele>981.20001220703</ele>
        <time>2011-07-22T04:59:46.000Z</time>
      </trkpt>
      <trkpt lat="44.73186" lon="5.44721">
        <ele>981.40002441406</ele>
        <time>2011-07-22T04:59:47.000Z</time>
      </trkpt>
      <trkpt lat="44.73185" lon="5.44725">
        <ele>982.40002441406</ele>
        <time>2011-07-22T04:59:51.000Z</time>
      </trkpt>
      <trkpt lat="44.73183" lon="5.4473">
        <ele>984.20001220703</ele>
        <time>2011-07-22T04:59:57.000Z</time>
      </trkpt>
      <trkpt lat="44.73197" lon="5.44736">
        <ele>990.20001220703</ele>
        <time>2011-07-22T05:00:21.000Z</time>
      </trkpt>
      <trkpt lat="44.73198" lon="5.44737">
        <ele>990.79998779297</ele>
        <time>2011-07-22T05:00:23.000Z</time>
      </trkpt>
      <trkpt lat="44.73198" lon="5.44738">
        <ele>991</ele>
        <time>2011-07-22T05:00:24.000Z</time>
      </trkpt>
      <trkpt lat="44.73201" lon="5.44739">
        <ele>991.79998779297</ele>
        <time>2011-07-22T05:00:28.000Z</time>
      </trkpt>
      <trkpt lat="44.73207" lon="5.44737">
        <ele>993</ele>
        <time>2011-07-22T05:00:33.000Z</time>
      </trkpt>
      <trkpt lat="44.73211" lon="5.44735">
        <ele>993.59997558594</ele>
        <time>2011-07-22T05:00:36.000Z</time>
      </trkpt>
      <trkpt lat="44.73214" lon="5.44735">
        <ele>994</ele>
        <time>2011-07-22T05:00:39.000Z</time>
      </trkpt>
      <trkpt lat="44.73214" lon="5.44735">
        <ele>994.20001220703</ele>
        <time>2011-07-22T05:00:40.000Z</time>
      </trkpt>
      <trkpt lat="44.73217" lon="5.44734">
        <ele>994.79998779297</ele>
        <time>2011-07-22T05:00:43.000Z</time>
      </trkpt>
      <trkpt lat="44.7322" lon="5.44734">
        <ele>995.59997558594</ele>
        <time>2011-07-22T05:00:47.000Z</time>
      </trkpt>
      <trkpt lat="44.73222" lon="5.44733">
        <ele>997.20001220703</ele>
        <time>2011-07-22T05:00:52.000Z</time>
      </trkpt>
      <trkpt lat="44.73226" lon="5.44732">
        <ele>999.20001220703</ele>
        <time>2011-07-22T05:00:59.000Z</time>
      </trkpt>
      <trkpt lat="44.73229" lon="5.44729">
        <ele>1000.200012207</ele>
        <time>2011-07-22T05:01:02.000Z</time>
      </trkpt>
      <trkpt lat="44.73232" lon="5.44728">
        <ele>1000.799987793</ele>
        <time>2011-07-22T05:01:04.000Z</time>
      </trkpt>
      <trkpt lat="44.73233" lon="5.44728">
        <ele>1000.799987793</ele>
        <time>2011-07-22T05:01:05.000Z</time>
      </trkpt>
      <trkpt lat="44.73234" lon="5.44727">
        <ele>1001</ele>
        <time>2011-07-22T05:01:06.000Z</time>
      </trkpt>
      <trkpt lat="44.7324" lon="5.44722">
        <ele>1002.4000244141</ele>
        <time>2011-07-22T05:01:10.000Z</time>
      </trkpt>
      <trkpt lat="44.73245" lon="5.44717">
        <ele>1003.799987793</ele>
        <time>2011-07-22T05:01:15.000Z</time>
      </trkpt>
      <trkpt lat="44.73246" lon="5.44717">
        <ele>1004</ele>
        <time>2011-07-22T05:01:16.000Z</time>
      </trkpt>
      <trkpt lat="44.73249" lon="5.44716">
        <ele>1005.200012207</ele>
        <time>2011-07-22T05:01:20.000Z</time>
      </trkpt>
      <trkpt lat="44.73254" lon="5.44718">
        <ele>1006.799987793</ele>
        <time>2011-07-22T05:01:25.000Z</time>
      </trkpt>
      <trkpt lat="44.73259" lon="5.44716">
        <ele>1008.799987793</ele>
        <time>2011-07-22T05:01:31.000Z</time>
      </trkpt>
      <trkpt lat="44.7326" lon="5.44716">
        <ele>1009.200012207</ele>
        <time>2011-07-22T05:01:32.000Z</time>
      </trkpt>
      <trkpt lat="44.73261" lon="5.44715">
        <ele>1010.5999755859</ele>
        <time>2011-07-22T05:01:36.000Z</time>
      </trkpt>
      <trkpt lat="44.73269" lon="5.44717">
        <ele>1013.200012207</ele>
        <time>2011-07-22T05:01:45.000Z</time>
      </trkpt>
      <trkpt lat="44.73273" lon="5.44716">
        <ele>1014.799987793</ele>
        <time>2011-07-22T05:01:50.000Z</time>
      </trkpt>
      <trkpt lat="44.73277" lon="5.44716">
        <ele>1015.799987793</ele>
        <time>2011-07-22T05:01:55.000Z</time>
      </trkpt>
      <trkpt lat="44.73281" lon="5.44717">
        <ele>1016.799987793</ele>
        <time>2011-07-22T05:02:01.000Z</time>
      </trkpt>
      <trkpt lat="44.73285" lon="5.44718">
        <ele>1018.799987793</ele>
        <time>2011-07-22T05:02:07.000Z</time>
      </trkpt>
      <trkpt lat="44.73286" lon="5.44718">
        <ele>1019</ele>
        <time>2011-07-22T05:02:08.000Z</time>
      </trkpt>
      <trkpt lat="44.73286" lon="5.44717">
        <ele>1019.5999755859</ele>
        <time>2011-07-22T05:02:10.000Z</time>
      </trkpt>
      <trkpt lat="44.73291" lon="5.44718">
        <ele>1021.200012207</ele>
        <time>2011-07-22T05:02:15.000Z</time>
      </trkpt>
      <trkpt lat="44.73293" lon="5.44719">
        <ele>1021.200012207</ele>
        <time>2011-07-22T05:02:16.000Z</time>
      </trkpt>
      <trkpt lat="44.73294" lon="5.44722">
        <ele>1022.200012207</ele>
        <time>2011-07-22T05:02:20.000Z</time>
      </trkpt>
      <trkpt lat="44.73291" lon="5.44726">
        <ele>1023</ele>
        <time>2011-07-22T05:02:25.000Z</time>
      </trkpt>
      <trkpt lat="44.73289" lon="5.44726">
        <ele>1023.200012207</ele>
        <time>2011-07-22T05:02:27.000Z</time>
      </trkpt>
      <trkpt lat="44.73288" lon="5.44727">
        <ele>1023.4000244141</ele>
        <time>2011-07-22T05:02:28.000Z</time>
      </trkpt>
      <trkpt lat="44.73288" lon="5.44728">
        <ele>1023.799987793</ele>
        <time>2011-07-22T05:02:29.000Z</time>
      </trkpt>
      <trkpt lat="44.73287" lon="5.44731">
        <ele>1024</ele>
        <time>2011-07-22T05:02:31.000Z</time>
      </trkpt>
      <trkpt lat="44.73288" lon="5.44733">
        <ele>1024</ele>
        <time>2011-07-22T05:02:32.000Z</time>
      </trkpt>
      <trkpt lat="44.73289" lon="5.44734">
        <ele>1024.4000244141</ele>
        <time>2011-07-22T05:02:33.000Z</time>
      </trkpt>
      <trkpt lat="44.73288" lon="5.44739">
        <ele>1025.4000244141</ele>
        <time>2011-07-22T05:02:38.000Z</time>
      </trkpt>
      <trkpt lat="44.73284" lon="5.4474">
        <ele>1027</ele>
        <time>2011-07-22T05:02:44.000Z</time>
      </trkpt>
      <trkpt lat="44.73284" lon="5.44741">
        <ele>1027.4000244141</ele>
        <time>2011-07-22T05:02:45.000Z</time>
      </trkpt>
      <trkpt lat="44.73283" lon="5.44742">
        <ele>1027.5999755859</ele>
        <time>2011-07-22T05:02:47.000Z</time>
      </trkpt>
      <trkpt lat="44.73281" lon="5.44743">
        <ele>1028.4000244141</ele>
        <time>2011-07-22T05:02:49.000Z</time>
      </trkpt>
      <trkpt lat="44.7328" lon="5.44746">
        <ele>1029</ele>
        <time>2011-07-22T05:02:51.000Z</time>
      </trkpt>
      <trkpt lat="44.7328" lon="5.44747">
        <ele>1030.1999511719</ele>
        <time>2011-07-22T05:02:54.000Z</time>
      </trkpt>
      <trkpt lat="44.73254" lon="5.44791">
        <ele>1044.5999755859</ele>
        <time>2011-07-22T05:03:42.000Z</time>
      </trkpt>
      <trkpt lat="44.73252" lon="5.44794">
        <ele>1045</ele>
        <time>2011-07-22T05:03:44.000Z</time>
      </trkpt>
      <trkpt lat="44.73252" lon="5.44796">
        <ele>1045.1999511719</ele>
        <time>2011-07-22T05:03:45.000Z</time>
      </trkpt>
      <trkpt lat="44.73251" lon="5.44799">
        <ele>1045.8000488281</ele>
        <time>2011-07-22T05:03:48.000Z</time>
      </trkpt>
      <trkpt lat="44.7325" lon="5.44801">
        <ele>1046.1999511719</ele>
        <time>2011-07-22T05:03:50.000Z</time>
      </trkpt>
      <trkpt lat="44.73248" lon="5.44806">
        <ele>1046.5999755859</ele>
        <time>2011-07-22T05:03:55.000Z</time>
      </trkpt>
      <trkpt lat="44.73247" lon="5.44813">
        <ele>1048.1999511719</ele>
        <time>2011-07-22T05:04:03.000Z</time>
      </trkpt>
      <trkpt lat="44.73246" lon="5.44815">
        <ele>1048.4000244141</ele>
        <time>2011-07-22T05:04:05.000Z</time>
      </trkpt>
      <trkpt lat="44.73247" lon="5.44818">
        <ele>1049.1999511719</ele>
        <time>2011-07-22T05:04:10.000Z</time>
      </trkpt>
      <trkpt lat="44.7325" lon="5.44817">
        <ele>1049.5999755859</ele>
        <time>2011-07-22T05:04:15.000Z</time>
      </trkpt>
      <trkpt lat="44.73254" lon="5.44816">
        <ele>1050.4000244141</ele>
        <time>2011-07-22T05:04:21.000Z</time>
      </trkpt>
      <trkpt lat="44.7326" lon="5.44813">
        <ele>1051.8000488281</ele>
        <time>2011-07-22T05:04:28.000Z</time>
      </trkpt>
      <trkpt lat="44.73261" lon="5.44815">
        <ele>1052.4000244141</ele>
        <time>2011-07-22T05:04:31.000Z</time>
      </trkpt>
      <trkpt lat="44.7326" lon="5.44817">
        <ele>1053</ele>
        <time>2011-07-22T05:04:34.000Z</time>
      </trkpt>
      <trkpt lat="44.73259" lon="5.44822">
        <ele>1054.5999755859</ele>
        <time>2011-07-22T05:04:40.000Z</time>
      </trkpt>
      <trkpt lat="44.73257" lon="5.44826">
        <ele>1056.1999511719</ele>
        <time>2011-07-22T05:04:45.000Z</time>
      </trkpt>
      <trkpt lat="44.73255" lon="5.44832">
        <ele>1058.4000244141</ele>
        <time>2011-07-22T05:04:51.000Z</time>
      </trkpt>
      <trkpt lat="44.73252" lon="5.44835">
        <ele>1060.5999755859</ele>
        <time>2011-07-22T05:04:58.000Z</time>
      </trkpt>
      <trkpt lat="44.73251" lon="5.44836">
        <ele>1061</ele>
        <time>2011-07-22T05:04:59.000Z</time>
      </trkpt>
      <trkpt lat="44.7325" lon="5.44838">
        <ele>1061.4000244141</ele>
        <time>2011-07-22T05:05:01.000Z</time>
      </trkpt>
      <trkpt lat="44.7325" lon="5.44839">
        <ele>1061.5999755859</ele>
        <time>2011-07-22T05:05:02.000Z</time>
      </trkpt>
      <trkpt lat="44.7325" lon="5.44844">
        <ele>1063.5999755859</ele>
        <time>2011-07-22T05:05:07.000Z</time>
      </trkpt>
      <trkpt lat="44.7325" lon="5.44848">
        <ele>1066</ele>
        <time>2011-07-22T05:05:15.000Z</time>
      </trkpt>
      <trkpt lat="44.73248" lon="5.44852">
        <ele>1068.4000244141</ele>
        <time>2011-07-22T05:05:21.000Z</time>
      </trkpt>
      <trkpt lat="44.73247" lon="5.44858">
        <ele>1070.5999755859</ele>
        <time>2011-07-22T05:05:28.000Z</time>
      </trkpt>
      <trkpt lat="44.73248" lon="5.44857">
        <ele>1071</ele>
        <time>2011-07-22T05:05:29.000Z</time>
      </trkpt>
      <trkpt lat="44.73251" lon="5.44856">
        <ele>1072.4000244141</ele>
        <time>2011-07-22T05:05:34.000Z</time>
      </trkpt>
      <trkpt lat="44.73257" lon="5.44855">
        <ele>1074.8000488281</ele>
        <time>2011-07-22T05:05:42.000Z</time>
      </trkpt>
      <trkpt lat="44.7326" lon="5.44853">
        <ele>1076.4000244141</ele>
        <time>2011-07-22T05:05:47.000Z</time>
      </trkpt>
      <trkpt lat="44.73261" lon="5.44857">
        <ele>1077.4000244141</ele>
        <time>2011-07-22T05:05:52.000Z</time>
      </trkpt>
      <trkpt lat="44.7326" lon="5.44858">
        <ele>1077.5999755859</ele>
        <time>2011-07-22T05:05:53.000Z</time>
      </trkpt>
      <trkpt lat="44.73259" lon="5.44864">
        <ele>1079.1999511719</ele>
        <time>2011-07-22T05:06:00.000Z</time>
      </trkpt>
      <trkpt lat="44.73256" lon="5.44869">
        <ele>1080.1999511719</ele>
        <time>2011-07-22T05:06:04.000Z</time>
      </trkpt>
      <trkpt lat="44.73255" lon="5.4487">
        <ele>1080.5999755859</ele>
        <time>2011-07-22T05:06:06.000Z</time>
      </trkpt>
      <trkpt lat="44.73253" lon="5.44876">
        <ele>1082.4000244141</ele>
        <time>2011-07-22T05:06:12.000Z</time>
      </trkpt>
      <trkpt lat="44.73252" lon="5.44876">
        <ele>1082.5999755859</ele>
        <time>2011-07-22T05:06:13.000Z</time>
      </trkpt>
      <trkpt lat="44.7325" lon="5.44879">
        <ele>1083.1999511719</ele>
        <time>2011-07-22T05:06:16.000Z</time>
      </trkpt>
      <trkpt lat="44.73249" lon="5.44882">
        <ele>1084.4000244141</ele>
        <time>2011-07-22T05:06:20.000Z</time>
      </trkpt>
      <trkpt lat="44.73253" lon="5.44882">
        <ele>1085.5999755859</ele>
        <time>2011-07-22T05:06:24.000Z</time>
      </trkpt>
      <trkpt lat="44.73255" lon="5.44882">
        <ele>1085.8000488281</ele>
        <time>2011-07-22T05:06:26.000Z</time>
      </trkpt>
      <trkpt lat="44.73256" lon="5.44881">
        <ele>1086.4000244141</ele>
        <time>2011-07-22T05:06:28.000Z</time>
      </trkpt>
      <trkpt lat="44.73257" lon="5.44883">
        <ele>1086.8000488281</ele>
        <time>2011-07-22T05:06:30.000Z</time>
      </trkpt>
      <trkpt lat="44.73259" lon="5.44884">
        <ele>1087.8000488281</ele>
        <time>2011-07-22T05:06:34.000Z</time>
      </trkpt>
      <trkpt lat="44.73264" lon="5.44881">
        <ele>1089.5999755859</ele>
        <time>2011-07-22T05:06:40.000Z</time>
      </trkpt>
      <trkpt lat="44.7327" lon="5.44873">
        <ele>1091.1999511719</ele>
        <time>2011-07-22T05:06:46.000Z</time>
      </trkpt>
      <trkpt lat="44.73276" lon="5.4487">
        <ele>1092.8000488281</ele>
        <time>2011-07-22T05:06:52.000Z</time>
      </trkpt>
      <trkpt lat="44.73279" lon="5.44869">
        <ele>1093.1999511719</ele>
        <time>2011-07-22T05:06:54.000Z</time>
      </trkpt>
      <trkpt lat="44.7328" lon="5.44869">
        <ele>1093.4000244141</ele>
        <time>2011-07-22T05:06:55.000Z</time>
      </trkpt>
      <trkpt lat="44.73281" lon="5.44869">
        <ele>1094</ele>
        <time>2011-07-22T05:06:57.000Z</time>
      </trkpt>
      <trkpt lat="44.73283" lon="5.44869">
        <ele>1094.4000244141</ele>
        <time>2011-07-22T05:07:00.000Z</time>
      </trkpt>
      <trkpt lat="44.73285" lon="5.44867">
        <ele>1095.4000244141</ele>
        <time>2011-07-22T05:07:04.000Z</time>
      </trkpt>
      <trkpt lat="44.73289" lon="5.44868">
        <ele>1096.1999511719</ele>
        <time>2011-07-22T05:07:10.000Z</time>
      </trkpt>
      <trkpt lat="44.73294" lon="5.44867">
        <ele>1097.1999511719</ele>
        <time>2011-07-22T05:07:17.000Z</time>
      </trkpt>
      <trkpt lat="44.73295" lon="5.4487">
        <ele>1098.1999511719</ele>
        <time>2011-07-22T05:07:21.000Z</time>
      </trkpt>
      <trkpt lat="44.73296" lon="5.4487">
        <ele>1098.1999511719</ele>
        <time>2011-07-22T05:07:22.000Z</time>
      </trkpt>
      <trkpt lat="44.73297" lon="5.44872">
        <ele>1099</ele>
        <time>2011-07-22T05:07:25.000Z</time>
      </trkpt>
      <trkpt lat="44.73299" lon="5.44875">
        <ele>1099.8000488281</ele>
        <time>2011-07-22T05:07:29.000Z</time>
      </trkpt>
      <trkpt lat="44.73299" lon="5.44878">
        <ele>1101.5999755859</ele>
        <time>2011-07-22T05:07:35.000Z</time>
      </trkpt>
      <trkpt lat="44.73297" lon="5.4488">
        <ele>1102.8000488281</ele>
        <time>2011-07-22T05:07:39.000Z</time>
      </trkpt>
      <trkpt lat="44.73295" lon="5.44883">
        <ele>1104.1999511719</ele>
        <time>2011-07-22T05:07:43.000Z</time>
      </trkpt>
      <trkpt lat="44.73292" lon="5.44886">
        <ele>1105.4000244141</ele>
        <time>2011-07-22T05:07:46.000Z</time>
      </trkpt>
      <trkpt lat="44.7329" lon="5.44889">
        <ele>1106.4000244141</ele>
        <time>2011-07-22T05:07:49.000Z</time>
      </trkpt>
      <trkpt lat="44.73289" lon="5.4489">
        <ele>1107.1999511719</ele>
        <time>2011-07-22T05:07:51.000Z</time>
      </trkpt>
      <trkpt lat="44.73289" lon="5.44894">
        <ele>1108.4000244141</ele>
        <time>2011-07-22T05:07:55.000Z</time>
      </trkpt>
      <trkpt lat="44.73288" lon="5.44903">
        <ele>1110</ele>
        <time>2011-07-22T05:08:02.000Z</time>
      </trkpt>
      <trkpt lat="44.73286" lon="5.44909">
        <ele>1111</ele>
        <time>2011-07-22T05:08:07.000Z</time>
      </trkpt>
      <trkpt lat="44.73286" lon="5.4491">
        <ele>1111.4000244141</ele>
        <time>2011-07-22T05:08:08.000Z</time>
      </trkpt>
      <trkpt lat="44.73285" lon="5.4491">
        <ele>1111.5999755859</ele>
        <time>2011-07-22T05:08:09.000Z</time>
      </trkpt>
      <trkpt lat="44.73284" lon="5.4491">
        <ele>1111.5999755859</ele>
        <time>2011-07-22T05:08:10.000Z</time>
      </trkpt>
      <trkpt lat="44.73283" lon="5.4491">
        <ele>1112</ele>
        <time>2011-07-22T05:08:11.000Z</time>
      </trkpt>
      <trkpt lat="44.73283" lon="5.44917">
        <ele>1114</ele>
        <time>2011-07-22T05:08:19.000Z</time>
      </trkpt>
      <trkpt lat="44.73283" lon="5.44919">
        <ele>1114.1999511719</ele>
        <time>2011-07-22T05:08:20.000Z</time>
      </trkpt>
      <trkpt lat="44.73285" lon="5.4492">
        <ele>1114.8000488281</ele>
        <time>2011-07-22T05:08:22.000Z</time>
      </trkpt>
      <trkpt lat="44.73286" lon="5.44919">
        <ele>1115.1999511719</ele>
        <time>2011-07-22T05:08:24.000Z</time>
      </trkpt>
      <trkpt lat="44.73289" lon="5.44921">
        <ele>1117</ele>
        <time>2011-07-22T05:08:31.000Z</time>
      </trkpt>
      <trkpt lat="44.73286" lon="5.44922">
        <ele>1118.1999511719</ele>
        <time>2011-07-22T05:08:36.000Z</time>
      </trkpt>
      <trkpt lat="44.73285" lon="5.44924">
        <ele>1118.1999511719</ele>
        <time>2011-07-22T05:08:38.000Z</time>
      </trkpt>
      <trkpt lat="44.73285" lon="5.44927">
        <ele>1119</ele>
        <time>2011-07-22T05:08:41.000Z</time>
      </trkpt>
      <trkpt lat="44.73285" lon="5.44928">
        <ele>1119</ele>
        <time>2011-07-22T05:08:42.000Z</time>
      </trkpt>
      <trkpt lat="44.73282" lon="5.44929">
        <ele>1120.1999511719</ele>
        <time>2011-07-22T05:08:45.000Z</time>
      </trkpt>
      <trkpt lat="44.73281" lon="5.4493">
        <ele>1120.5999755859</ele>
        <time>2011-07-22T05:08:46.000Z</time>
      </trkpt>
      <trkpt lat="44.73279" lon="5.44934">
        <ele>1122</ele>
        <time>2011-07-22T05:08:51.000Z</time>
      </trkpt>
      <trkpt lat="44.73278" lon="5.44936">
        <ele>1122.4000244141</ele>
        <time>2011-07-22T05:08:53.000Z</time>
      </trkpt>
      <trkpt lat="44.73277" lon="5.44939">
        <ele>1123.4000244141</ele>
        <time>2011-07-22T05:08:57.000Z</time>
      </trkpt>
      <trkpt lat="44.73274" lon="5.44941">
        <ele>1125.1999511719</ele>
        <time>2011-07-22T05:09:02.000Z</time>
      </trkpt>
      <trkpt lat="44.73277" lon="5.44941">
        <ele>1126.8000488281</ele>
        <time>2011-07-22T05:09:07.000Z</time>
      </trkpt>
      <trkpt lat="44.7328" lon="5.44941">
        <ele>1128.1999511719</ele>
        <time>2011-07-22T05:09:11.000Z</time>
      </trkpt>
      <trkpt lat="44.7328" lon="5.44958">
        <ele>1139.4000244141</ele>
        <time>2011-07-22T05:10:11.000Z</time>
      </trkpt>
      <trkpt lat="44.73279" lon="5.44958">
        <ele>1139.8000488281</ele>
        <time>2011-07-22T05:10:12.000Z</time>
      </trkpt>
      <trkpt lat="44.73278" lon="5.44959">
        <ele>1140</ele>
        <time>2011-07-22T05:10:13.000Z</time>
      </trkpt>
      <trkpt lat="44.73279" lon="5.44962">
        <ele>1140.1999511719</ele>
        <time>2011-07-22T05:10:16.000Z</time>
      </trkpt>
      <trkpt lat="44.73292" lon="5.44975">
        <ele>1148.4000244141</ele>
        <time>2011-07-22T05:10:51.000Z</time>
      </trkpt>
      <trkpt lat="44.73296" lon="5.44972">
        <ele>1149</ele>
        <time>2011-07-22T05:10:54.000Z</time>
      </trkpt>
      <trkpt lat="44.73302" lon="5.44972">
        <ele>1149.5999755859</ele>
        <time>2011-07-22T05:10:58.000Z</time>
      </trkpt>
      <trkpt lat="44.73304" lon="5.44973">
        <ele>1149.8000488281</ele>
        <time>2011-07-22T05:10:59.000Z</time>
      </trkpt>
      <trkpt lat="44.73309" lon="5.44978">
        <ele>1150.8000488281</ele>
        <time>2011-07-22T05:11:04.000Z</time>
      </trkpt>
      <trkpt lat="44.7331" lon="5.44979">
        <ele>1151.4000244141</ele>
        <time>2011-07-22T05:11:06.000Z</time>
      </trkpt>
      <trkpt lat="44.73315" lon="5.44986">
        <ele>1152.8000488281</ele>
        <time>2011-07-22T05:11:12.000Z</time>
      </trkpt>
      <trkpt lat="44.73315" lon="5.44987">
        <ele>1153</ele>
        <time>2011-07-22T05:11:13.000Z</time>
      </trkpt>
      <trkpt lat="44.73314" lon="5.44989">
        <ele>1153.8000488281</ele>
        <time>2011-07-22T05:11:16.000Z</time>
      </trkpt>
      <trkpt lat="44.7331" lon="5.44988">
        <ele>1154.4000244141</ele>
        <time>2011-07-22T05:11:19.000Z</time>
      </trkpt>
      <trkpt lat="44.73308" lon="5.44987">
        <ele>1155</ele>
        <time>2011-07-22T05:11:21.000Z</time>
      </trkpt>
      <trkpt lat="44.73307" lon="5.44988">
        <ele>1155.1999511719</ele>
        <time>2011-07-22T05:11:22.000Z</time>
      </trkpt>
      <trkpt lat="44.73307" lon="5.44989">
        <ele>1156.4000244141</ele>
        <time>2011-07-22T05:11:27.000Z</time>
      </trkpt>
      <trkpt lat="44.73307" lon="5.44989">
        <ele>1156.5999755859</ele>
        <time>2011-07-22T05:11:28.000Z</time>
      </trkpt>
      <trkpt lat="44.7331" lon="5.44993">
        <ele>1158</ele>
        <time>2011-07-22T05:11:33.000Z</time>
      </trkpt>
      <trkpt lat="44.73313" lon="5.44995">
        <ele>1158.5999755859</ele>
        <time>2011-07-22T05:11:36.000Z</time>
      </trkpt>
      <trkpt lat="44.73315" lon="5.44999">
        <ele>1159.5999755859</ele>
        <time>2011-07-22T05:11:40.000Z</time>
      </trkpt>
      <trkpt lat="44.73327" lon="5.45018">
        <ele>1164.1999511719</ele>
        <time>2011-07-22T05:11:59.000Z</time>
      </trkpt>
      <trkpt lat="44.73328" lon="5.45019">
        <ele>1164.4000244141</ele>
        <time>2011-07-22T05:12:00.000Z</time>
      </trkpt>
      <trkpt lat="44.73329" lon="5.45021">
        <ele>1164.5999755859</ele>
        <time>2011-07-22T05:12:01.000Z</time>
      </trkpt>
      <trkpt lat="44.73334" lon="5.45025">
        <ele>1165.8000488281</ele>
        <time>2011-07-22T05:12:05.000Z</time>
      </trkpt>
      <trkpt lat="44.73337" lon="5.45028">
        <ele>1166.1999511719</ele>
        <time>2011-07-22T05:12:07.000Z</time>
      </trkpt>
      <trkpt lat="44.73341" lon="5.45032">
        <ele>1167.1999511719</ele>
        <time>2011-07-22T05:12:10.000Z</time>
      </trkpt>
      <trkpt lat="44.73343" lon="5.45036">
        <ele>1168</ele>
        <time>2011-07-22T05:12:13.000Z</time>
      </trkpt>
      <trkpt lat="44.73344" lon="5.45037">
        <ele>1168.1999511719</ele>
        <time>2011-07-22T05:12:14.000Z</time>
      </trkpt>
      <trkpt lat="44.73347" lon="5.45041">
        <ele>1168.5999755859</ele>
        <time>2011-07-22T05:12:16.000Z</time>
      </trkpt>
      <trkpt lat="44.73351" lon="5.45049">
        <ele>1170</ele>
        <time>2011-07-22T05:12:21.000Z</time>
      </trkpt>
      <trkpt lat="44.73354" lon="5.45058">
        <ele>1170.8000488281</ele>
        <time>2011-07-22T05:12:26.000Z</time>
      </trkpt>
      <trkpt lat="44.73354" lon="5.45062">
        <ele>1171.1999511719</ele>
        <time>2011-07-22T05:12:29.000Z</time>
      </trkpt>
      <trkpt lat="44.73357" lon="5.45069">
        <ele>1171.8000488281</ele>
        <time>2011-07-22T05:12:34.000Z</time>
      </trkpt>
      <trkpt lat="44.73358" lon="5.45072">
        <ele>1172</ele>
        <time>2011-07-22T05:12:36.000Z</time>
      </trkpt>
      <trkpt lat="44.73359" lon="5.45077">
        <ele>1172.4000244141</ele>
        <time>2011-07-22T05:12:40.000Z</time>
      </trkpt>
      <trkpt lat="44.73359" lon="5.45078">
        <ele>1172.4000244141</ele>
        <time>2011-07-22T05:12:41.000Z</time>
      </trkpt>
      <trkpt lat="44.73362" lon="5.45082">
        <ele>1172.8000488281</ele>
        <time>2011-07-22T05:12:44.000Z</time>
      </trkpt>
      <trkpt lat="44.73362" lon="5.45085">
        <ele>1173.1999511719</ele>
        <time>2011-07-22T05:12:47.000Z</time>
      </trkpt>
      <trkpt lat="44.73363" lon="5.4509">
        <ele>1174.1999511719</ele>
        <time>2011-07-22T05:12:51.000Z</time>
      </trkpt>
      <trkpt lat="44.73364" lon="5.45092">
        <ele>1174.5999755859</ele>
        <time>2011-07-22T05:12:53.000Z</time>
      </trkpt>
      <trkpt lat="44.73364" lon="5.45093">
        <ele>1174.8000488281</ele>
        <time>2011-07-22T05:12:54.000Z</time>
      </trkpt>
      <trkpt lat="44.73363" lon="5.45097">
        <ele>1175.4000244141</ele>
        <time>2011-07-22T05:12:57.000Z</time>
      </trkpt>
      <trkpt lat="44.73362" lon="5.45126">
        <ele>1188.8000488281</ele>
        <time>2011-07-22T05:13:32.000Z</time>
      </trkpt>
      <trkpt lat="44.73361" lon="5.45126">
        <ele>1189.5999755859</ele>
        <time>2011-07-22T05:13:34.000Z</time>
      </trkpt>
      <trkpt lat="44.73355" lon="5.45121">
        <ele>1191.1999511719</ele>
        <time>2011-07-22T05:13:38.000Z</time>
      </trkpt>
      <trkpt lat="44.7335" lon="5.45117">
        <ele>1193.1999511719</ele>
        <time>2011-07-22T05:13:43.000Z</time>
      </trkpt>
      <trkpt lat="44.73346" lon="5.45115">
        <ele>1194.5999755859</ele>
        <time>2011-07-22T05:13:47.000Z</time>
      </trkpt>
      <trkpt lat="44.73345" lon="5.45114">
        <ele>1194.8000488281</ele>
        <time>2011-07-22T05:13:48.000Z</time>
      </trkpt>
      <trkpt lat="44.73343" lon="5.45115">
        <ele>1195.1999511719</ele>
        <time>2011-07-22T05:13:50.000Z</time>
      </trkpt>
      <trkpt lat="44.73342" lon="5.45118">
        <ele>1196</ele>
        <time>2011-07-22T05:13:53.000Z</time>
      </trkpt>
      <trkpt lat="44.73342" lon="5.45118">
        <ele>1196.1999511719</ele>
        <time>2011-07-22T05:13:54.000Z</time>
      </trkpt>
      <trkpt lat="44.7334" lon="5.45122">
        <ele>1196.1999511719</ele>
        <time>2011-07-22T05:13:57.000Z</time>
      </trkpt>
      <trkpt lat="44.73339" lon="5.45127">
        <ele>1196.4000244141</ele>
        <time>2011-07-22T05:14:00.000Z</time>
      </trkpt>
      <trkpt lat="44.73339" lon="5.45128">
        <ele>1196.5999755859</ele>
        <time>2011-07-22T05:14:01.000Z</time>
      </trkpt>
      <trkpt lat="44.7334" lon="5.45129">
        <ele>1196.8000488281</ele>
        <time>2011-07-22T05:14:02.000Z</time>
      </trkpt>
      <trkpt lat="44.73341" lon="5.45135">
        <ele>1196.5999755859</ele>
        <time>2011-07-22T05:14:06.000Z</time>
      </trkpt>
      <trkpt lat="44.73342" lon="5.45137">
        <ele>1196.5999755859</ele>
        <time>2011-07-22T05:14:07.000Z</time>
      </trkpt>
      <trkpt lat="44.73342" lon="5.45139">
        <ele>1196.5999755859</ele>
        <time>2011-07-22T05:14:08.000Z</time>
      </trkpt>
      <trkpt lat="44.73343" lon="5.45149">
        <ele>1196.8000488281</ele>
        <time>2011-07-22T05:14:14.000Z</time>
      </trkpt>
      <trkpt lat="44.73346" lon="5.45154">
        <ele>1197.4000244141</ele>
        <time>2011-07-22T05:14:19.000Z</time>
      </trkpt>
      <trkpt lat="44.73349" lon="5.45158">
        <ele>1198.4000244141</ele>
        <time>2011-07-22T05:14:24.000Z</time>
      </trkpt>
      <trkpt lat="44.73351" lon="5.4516">
        <ele>1199.1999511719</ele>
        <time>2011-07-22T05:14:27.000Z</time>
      </trkpt>
      <trkpt lat="44.73355" lon="5.45165">
        <ele>1200.8000488281</ele>
        <time>2011-07-22T05:14:32.000Z</time>
      </trkpt>
      <trkpt lat="44.73356" lon="5.45167">
        <ele>1201.4000244141</ele>
        <time>2011-07-22T05:14:34.000Z</time>
      </trkpt>
      <trkpt lat="44.73359" lon="5.45174">
        <ele>1202.5999755859</ele>
        <time>2011-07-22T05:14:39.000Z</time>
      </trkpt>
      <trkpt lat="44.73361" lon="5.45176">
        <ele>1203.1999511719</ele>
        <time>2011-07-22T05:14:41.000Z</time>
      </trkpt>
      <trkpt lat="44.73363" lon="5.45177">
        <ele>1204</ele>
        <time>2011-07-22T05:14:43.000Z</time>
      </trkpt>
      <trkpt lat="44.73364" lon="5.45179">
        <ele>1204.5999755859</ele>
        <time>2011-07-22T05:14:45.000Z</time>
      </trkpt>
      <trkpt lat="44.73364" lon="5.45182">
        <ele>1205.4000244141</ele>
        <time>2011-07-22T05:14:48.000Z</time>
      </trkpt>
      <trkpt lat="44.73365" lon="5.45189">
        <ele>1207.5999755859</ele>
        <time>2011-07-22T05:14:56.000Z</time>
      </trkpt>
      <trkpt lat="44.73363" lon="5.45194">
        <ele>1209.4000244141</ele>
        <time>2011-07-22T05:15:03.000Z</time>
      </trkpt>
      <trkpt lat="44.73364" lon="5.45198">
        <ele>1210.5999755859</ele>
        <time>2011-07-22T05:15:08.000Z</time>
      </trkpt>
      <trkpt lat="44.73365" lon="5.45199">
        <ele>1210.8000488281</ele>
        <time>2011-07-22T05:15:09.000Z</time>
      </trkpt>
      <trkpt lat="44.73364" lon="5.45204">
        <ele>1212.4000244141</ele>
        <time>2011-07-22T05:15:14.000Z</time>
      </trkpt>
      <trkpt lat="44.73365" lon="5.45209">
        <ele>1213.5999755859</ele>
        <time>2011-07-22T05:15:18.000Z</time>
      </trkpt>
      <trkpt lat="44.73367" lon="5.45215">
        <ele>1215</ele>
        <time>2011-07-22T05:15:23.000Z</time>
      </trkpt>
      <trkpt lat="44.73367" lon="5.45215">
        <ele>1215.1999511719</ele>
        <time>2011-07-22T05:15:24.000Z</time>
      </trkpt>
      <trkpt lat="44.73368" lon="5.45217">
        <ele>1216</ele>
        <time>2011-07-22T05:15:26.000Z</time>
      </trkpt>
      <trkpt lat="44.73368" lon="5.4522">
        <ele>1216.5999755859</ele>
        <time>2011-07-22T05:15:29.000Z</time>
      </trkpt>
      <trkpt lat="44.7337" lon="5.45222">
        <ele>1217.4000244141</ele>
        <time>2011-07-22T05:15:32.000Z</time>
      </trkpt>
      <trkpt lat="44.7337" lon="5.45223">
        <ele>1217.5999755859</ele>
        <time>2011-07-22T05:15:33.000Z</time>
      </trkpt>
      <trkpt lat="44.73372" lon="5.45225">
        <ele>1218.4000244141</ele>
        <time>2011-07-22T05:15:36.000Z</time>
      </trkpt>
      <trkpt lat="44.73372" lon="5.45228">
        <ele>1218.8000488281</ele>
        <time>2011-07-22T05:15:38.000Z</time>
      </trkpt>
      <trkpt lat="44.73372" lon="5.4523">
        <ele>1219</ele>
        <time>2011-07-22T05:15:40.000Z</time>
      </trkpt>
      <trkpt lat="44.73372" lon="5.45232">
        <ele>1219.1999511719</ele>
        <time>2011-07-22T05:15:42.000Z</time>
      </trkpt>
      <trkpt lat="44.73373" lon="5.45235">
        <ele>1220</ele>
        <time>2011-07-22T05:15:45.000Z</time>
      </trkpt>
      <trkpt lat="44.73375" lon="5.45235">
        <ele>1220</ele>
        <time>2011-07-22T05:15:46.000Z</time>
      </trkpt>
      <trkpt lat="44.73376" lon="5.45236">
        <ele>1220.1999511719</ele>
        <time>2011-07-22T05:15:47.000Z</time>
      </trkpt>
      <trkpt lat="44.7338" lon="5.45239">
        <ele>1221</ele>
        <time>2011-07-22T05:15:52.000Z</time>
      </trkpt>
      <trkpt lat="44.73379" lon="5.45243">
        <ele>1221.4000244141</ele>
        <time>2011-07-22T05:15:54.000Z</time>
      </trkpt>
      <trkpt lat="44.73376" lon="5.45247">
        <ele>1221.8000488281</ele>
        <time>2011-07-22T05:15:57.000Z</time>
      </trkpt>
      <trkpt lat="44.73373" lon="5.45245">
        <ele>1222.8000488281</ele>
        <time>2011-07-22T05:16:00.000Z</time>
      </trkpt>
      <trkpt lat="44.73373" lon="5.45245">
        <ele>1223</ele>
        <time>2011-07-22T05:16:01.000Z</time>
      </trkpt>
      <trkpt lat="44.73368" lon="5.45245">
        <ele>1224</ele>
        <time>2011-07-22T05:16:06.000Z</time>
      </trkpt>
      <trkpt lat="44.73367" lon="5.45243">
        <ele>1224.4000244141</ele>
        <time>2011-07-22T05:16:08.000Z</time>
      </trkpt>
      <trkpt lat="44.73362" lon="5.45239">
        <ele>1225.5999755859</ele>
        <time>2011-07-22T05:16:14.000Z</time>
      </trkpt>
      <trkpt lat="44.73358" lon="5.45238">
        <ele>1226.4000244141</ele>
        <time>2011-07-22T05:16:18.000Z</time>
      </trkpt>
      <trkpt lat="44.73355" lon="5.45238">
        <ele>1226.8000488281</ele>
        <time>2011-07-22T05:16:21.000Z</time>
      </trkpt>
      <trkpt lat="44.73351" lon="5.45235">
        <ele>1228</ele>
        <time>2011-07-22T05:16:26.000Z</time>
      </trkpt>
      <trkpt lat="44.73349" lon="5.45233">
        <ele>1228.5999755859</ele>
        <time>2011-07-22T05:16:28.000Z</time>
      </trkpt>
      <trkpt lat="44.73347" lon="5.45233">
        <ele>1229.5999755859</ele>
        <time>2011-07-22T05:16:32.000Z</time>
      </trkpt>
      <trkpt lat="44.73347" lon="5.45233">
        <ele>1229.8000488281</ele>
        <time>2011-07-22T05:16:33.000Z</time>
      </trkpt>
      <trkpt lat="44.73348" lon="5.4525">
        <ele>1234.8000488281</ele>
        <time>2011-07-22T05:16:53.000Z</time>
      </trkpt>
      <trkpt lat="44.73349" lon="5.45255">
        <ele>1235.5999755859</ele>
        <time>2011-07-22T05:16:56.000Z</time>
      </trkpt>
      <trkpt lat="44.73349" lon="5.45259">
        <ele>1236</ele>
        <time>2011-07-22T05:16:58.000Z</time>
      </trkpt>
      <trkpt lat="44.73352" lon="5.45264">
        <ele>1236.8000488281</ele>
        <time>2011-07-22T05:17:01.000Z</time>
      </trkpt>
      <trkpt lat="44.73352" lon="5.45269">
        <ele>1237.5999755859</ele>
        <time>2011-07-22T05:17:05.000Z</time>
      </trkpt>
      <trkpt lat="44.73354" lon="5.45271">
        <ele>1238.1999511719</ele>
        <time>2011-07-22T05:17:07.000Z</time>
      </trkpt>
      <trkpt lat="44.73355" lon="5.45272">
        <ele>1238.4000244141</ele>
        <time>2011-07-22T05:17:08.000Z</time>
      </trkpt>
      <trkpt lat="44.73357" lon="5.45275">
        <ele>1239.4000244141</ele>
        <time>2011-07-22T05:17:11.000Z</time>
      </trkpt>
      <trkpt lat="44.7336" lon="5.45279">
        <ele>1240</ele>
        <time>2011-07-22T05:17:14.000Z</time>
      </trkpt>
      <trkpt lat="44.7336" lon="5.4528">
        <ele>1240.1999511719</ele>
        <time>2011-07-22T05:17:15.000Z</time>
      </trkpt>
      <trkpt lat="44.73365" lon="5.45285">
        <ele>1241.8000488281</ele>
        <time>2011-07-22T05:17:20.000Z</time>
      </trkpt>
      <trkpt lat="44.73367" lon="5.45291">
        <ele>1242.4000244141</ele>
        <time>2011-07-22T05:17:24.000Z</time>
      </trkpt>
      <trkpt lat="44.73368" lon="5.45293">
        <ele>1242.5999755859</ele>
        <time>2011-07-22T05:17:25.000Z</time>
      </trkpt>
      <trkpt lat="44.73371" lon="5.45297">
        <ele>1243</ele>
        <time>2011-07-22T05:17:28.000Z</time>
      </trkpt>
      <trkpt lat="44.73371" lon="5.45298">
        <ele>1243.1999511719</ele>
        <time>2011-07-22T05:17:29.000Z</time>
      </trkpt>
      <trkpt lat="44.73371" lon="5.453">
        <ele>1243.5999755859</ele>
        <time>2011-07-22T05:17:31.000Z</time>
      </trkpt>
      <trkpt lat="44.73372" lon="5.45302">
        <ele>1244</ele>
        <time>2011-07-22T05:17:33.000Z</time>
      </trkpt>
      <trkpt lat="44.73372" lon="5.45304">
        <ele>1244</ele>
        <time>2011-07-22T05:17:34.000Z</time>
      </trkpt>
      <trkpt lat="44.73374" lon="5.45306">
        <ele>1245</ele>
        <time>2011-07-22T05:17:36.000Z</time>
      </trkpt>
      <trkpt lat="44.73376" lon="5.45307">
        <ele>1245.5999755859</ele>
        <time>2011-07-22T05:17:38.000Z</time>
      </trkpt>
      <trkpt lat="44.73377" lon="5.45309">
        <ele>1246.5999755859</ele>
        <time>2011-07-22T05:17:41.000Z</time>
      </trkpt>
      <trkpt lat="44.73375" lon="5.45311">
        <ele>1247.5999755859</ele>
        <time>2011-07-22T05:17:45.000Z</time>
      </trkpt>
      <trkpt lat="44.73374" lon="5.45313">
        <ele>1248.4000244141</ele>
        <time>2011-07-22T05:17:47.000Z</time>
      </trkpt>
      <trkpt lat="44.73372" lon="5.45317">
        <ele>1249.8000488281</ele>
        <time>2011-07-22T05:17:51.000Z</time>
      </trkpt>
      <trkpt lat="44.7337" lon="5.45319">
        <ele>1250.4000244141</ele>
        <time>2011-07-22T05:17:53.000Z</time>
      </trkpt>
      <trkpt lat="44.73364" lon="5.45322">
        <ele>1251.1999511719</ele>
        <time>2011-07-22T05:17:58.000Z</time>
      </trkpt>
      <trkpt lat="44.73362" lon="5.45321">
        <ele>1251.5999755859</ele>
        <time>2011-07-22T05:18:00.000Z</time>
      </trkpt>
      <trkpt lat="44.73362" lon="5.45368">
        <ele>1264</ele>
        <time>2011-07-22T05:18:56.000Z</time>
      </trkpt>
      <trkpt lat="44.73361" lon="5.45369">
        <ele>1264.4000244141</ele>
        <time>2011-07-22T05:18:57.000Z</time>
      </trkpt>
      <trkpt lat="44.73359" lon="5.45379">
        <ele>1265.8000488281</ele>
        <time>2011-07-22T05:19:03.000Z</time>
      </trkpt>
      <trkpt lat="44.73361" lon="5.45385">
        <ele>1266.8000488281</ele>
        <time>2011-07-22T05:19:09.000Z</time>
      </trkpt>
      <trkpt lat="44.73362" lon="5.45386">
        <ele>1267.1999511719</ele>
        <time>2011-07-22T05:19:10.000Z</time>
      </trkpt>
      <trkpt lat="44.73366" lon="5.45387">
        <ele>1267.8000488281</ele>
        <time>2011-07-22T05:19:14.000Z</time>
      </trkpt>
      <trkpt lat="44.73367" lon="5.45387">
        <ele>1268</ele>
        <time>2011-07-22T05:19:15.000Z</time>
      </trkpt>
      <trkpt lat="44.73371" lon="5.45393">
        <ele>1269</ele>
        <time>2011-07-22T05:19:20.000Z</time>
      </trkpt>
      <trkpt lat="44.7337" lon="5.45396">
        <ele>1270</ele>
        <time>2011-07-22T05:19:25.000Z</time>
      </trkpt>
      <trkpt lat="44.73369" lon="5.45395">
        <ele>1272.4000244141</ele>
        <time>2011-07-22T05:19:33.000Z</time>
      </trkpt>
      <trkpt lat="44.73367" lon="5.45405">
        <ele>1274</ele>
        <time>2011-07-22T05:19:39.000Z</time>
      </trkpt>
      <trkpt lat="44.7337" lon="5.45412">
        <ele>1275.1999511719</ele>
        <time>2011-07-22T05:19:45.000Z</time>
      </trkpt>
      <trkpt lat="44.73375" lon="5.45419">
        <ele>1276.8000488281</ele>
        <time>2011-07-22T05:19:51.000Z</time>
      </trkpt>
      <trkpt lat="44.73378" lon="5.45424">
        <ele>1277.8000488281</ele>
        <time>2011-07-22T05:19:56.000Z</time>
      </trkpt>
      <trkpt lat="44.7338" lon="5.45425">
        <ele>1278.4000244141</ele>
        <time>2011-07-22T05:19:57.000Z</time>
      </trkpt>
      <trkpt lat="44.73381" lon="5.45427">
        <ele>1278.8000488281</ele>
        <time>2011-07-22T05:20:00.000Z</time>
      </trkpt>
      <trkpt lat="44.73381" lon="5.45428">
        <ele>1279.1999511719</ele>
        <time>2011-07-22T05:20:01.000Z</time>
      </trkpt>
      <trkpt lat="44.73379" lon="5.45437">
        <ele>1280.1999511719</ele>
        <time>2011-07-22T05:20:07.000Z</time>
      </trkpt>
      <trkpt lat="44.7338" lon="5.45439">
        <ele>1280.8000488281</ele>
        <time>2011-07-22T05:20:10.000Z</time>
      </trkpt>
      <trkpt lat="44.7338" lon="5.45443">
        <ele>1281</ele>
        <time>2011-07-22T05:20:13.000Z</time>
      </trkpt>
      <trkpt lat="44.73381" lon="5.45448">
        <ele>1281.1999511719</ele>
        <time>2011-07-22T05:20:18.000Z</time>
      </trkpt>
      <trkpt lat="44.73381" lon="5.45449">
        <ele>1281.4000244141</ele>
        <time>2011-07-22T05:20:19.000Z</time>
      </trkpt>
      <trkpt lat="44.73381" lon="5.45461">
        <ele>1284.1999511719</ele>
        <time>2011-07-22T05:20:31.000Z</time>
      </trkpt>
      <trkpt lat="44.73384" lon="5.45465">
        <ele>1285.4000244141</ele>
        <time>2011-07-22T05:20:36.000Z</time>
      </trkpt>
      <trkpt lat="44.73385" lon="5.45467">
        <ele>1285.8000488281</ele>
        <time>2011-07-22T05:20:37.000Z</time>
      </trkpt>
      <trkpt lat="44.73386" lon="5.4547">
        <ele>1286.5999755859</ele>
        <time>2011-07-22T05:20:40.000Z</time>
      </trkpt>
      <trkpt lat="44.73386" lon="5.45473">
        <ele>1287.5999755859</ele>
        <time>2011-07-22T05:20:43.000Z</time>
      </trkpt>
      <trkpt lat="44.73387" lon="5.45474">
        <ele>1287.8000488281</ele>
        <time>2011-07-22T05:20:44.000Z</time>
      </trkpt>
      <trkpt lat="44.73387" lon="5.45475">
        <ele>1288</ele>
        <time>2011-07-22T05:20:45.000Z</time>
      </trkpt>
      <trkpt lat="44.73391" lon="5.45476">
        <ele>1289.5999755859</ele>
        <time>2011-07-22T05:20:49.000Z</time>
      </trkpt>
      <trkpt lat="44.73392" lon="5.45476">
        <ele>1289.8000488281</ele>
        <time>2011-07-22T05:20:50.000Z</time>
      </trkpt>
      <trkpt lat="44.73395" lon="5.45477">
        <ele>1291.5999755859</ele>
        <time>2011-07-22T05:20:53.000Z</time>
      </trkpt>
      <trkpt lat="44.73393" lon="5.45481">
        <ele>1292.4000244141</ele>
        <time>2011-07-22T05:20:55.000Z</time>
      </trkpt>
      <trkpt lat="44.73389" lon="5.45485">
        <ele>1294.1999511719</ele>
        <time>2011-07-22T05:21:00.000Z</time>
      </trkpt>
      <trkpt lat="44.73389" lon="5.45487">
        <ele>1295.1999511719</ele>
        <time>2011-07-22T05:21:03.000Z</time>
      </trkpt>
      <trkpt lat="44.73389" lon="5.45489">
        <ele>1296.1999511719</ele>
        <time>2011-07-22T05:21:05.000Z</time>
      </trkpt>
      <trkpt lat="44.73389" lon="5.45491">
        <ele>1296.4000244141</ele>
        <time>2011-07-22T05:21:06.000Z</time>
      </trkpt>
      <trkpt lat="44.73388" lon="5.45494">
        <ele>1297.4000244141</ele>
        <time>2011-07-22T05:21:09.000Z</time>
      </trkpt>
      <trkpt lat="44.73388" lon="5.45496">
        <ele>1297.8000488281</ele>
        <time>2011-07-22T05:21:10.000Z</time>
      </trkpt>
      <trkpt lat="44.73387" lon="5.455">
        <ele>1299.1999511719</ele>
        <time>2011-07-22T05:21:14.000Z</time>
      </trkpt>
      <trkpt lat="44.73387" lon="5.45501">
        <ele>1299.5999755859</ele>
        <time>2011-07-22T05:21:15.000Z</time>
      </trkpt>
      <trkpt lat="44.7339" lon="5.45504">
        <ele>1302</ele>
        <time>2011-07-22T05:21:21.000Z</time>
      </trkpt>
      <trkpt lat="44.73391" lon="5.45505">
        <ele>1302.1999511719</ele>
        <time>2011-07-22T05:21:22.000Z</time>
      </trkpt>
      <trkpt lat="44.73392" lon="5.45504">
        <ele>1303.1999511719</ele>
        <time>2011-07-22T05:21:25.000Z</time>
      </trkpt>
      <trkpt lat="44.73393" lon="5.45504">
        <ele>1303.4000244141</ele>
        <time>2011-07-22T05:21:26.000Z</time>
      </trkpt>
      <trkpt lat="44.73398" lon="5.45504">
        <ele>1305.4000244141</ele>
        <time>2011-07-22T05:21:32.000Z</time>
      </trkpt>
      <trkpt lat="44.73402" lon="5.45505">
        <ele>1306.8000488281</ele>
        <time>2011-07-22T05:21:37.000Z</time>
      </trkpt>
      <trkpt lat="44.73404" lon="5.45505">
        <ele>1307.1999511719</ele>
        <time>2011-07-22T05:21:38.000Z</time>
      </trkpt>
      <trkpt lat="44.73405" lon="5.45511">
        <ele>1307.8000488281</ele>
        <time>2011-07-22T05:21:42.000Z</time>
      </trkpt>
      <trkpt lat="44.73405" lon="5.45512">
        <ele>1308</ele>
        <time>2011-07-22T05:21:43.000Z</time>
      </trkpt>
      <trkpt lat="44.73405" lon="5.45513">
        <ele>1308.1999511719</ele>
        <time>2011-07-22T05:21:44.000Z</time>
      </trkpt>
      <trkpt lat="44.73405" lon="5.45515">
        <ele>1308.4000244141</ele>
        <time>2011-07-22T05:21:45.000Z</time>
      </trkpt>
      <trkpt lat="44.73407" lon="5.45516">
        <ele>1309</ele>
        <time>2011-07-22T05:21:47.000Z</time>
      </trkpt>
      <trkpt lat="44.73408" lon="5.45517">
        <ele>1309.1999511719</ele>
        <time>2011-07-22T05:21:48.000Z</time>
      </trkpt>
      <trkpt lat="44.73413" lon="5.45521">
        <ele>1310.4000244141</ele>
        <time>2011-07-22T05:21:54.000Z</time>
      </trkpt>
      <trkpt lat="44.73413" lon="5.45522">
        <ele>1310.5999755859</ele>
        <time>2011-07-22T05:21:55.000Z</time>
      </trkpt>
      <trkpt lat="44.73415" lon="5.45524">
        <ele>1311.5999755859</ele>
        <time>2011-07-22T05:21:59.000Z</time>
      </trkpt>
      <trkpt lat="44.73415" lon="5.4553">
        <ele>1312.4000244141</ele>
        <time>2011-07-22T05:22:05.000Z</time>
      </trkpt>
      <trkpt lat="44.73413" lon="5.45533">
        <ele>1313.1999511719</ele>
        <time>2011-07-22T05:22:09.000Z</time>
      </trkpt>
      <trkpt lat="44.73412" lon="5.45534">
        <ele>1313.4000244141</ele>
        <time>2011-07-22T05:22:11.000Z</time>
      </trkpt>
      <trkpt lat="44.73408" lon="5.45536">
        <ele>1314</ele>
        <time>2011-07-22T05:22:15.000Z</time>
      </trkpt>
      <trkpt lat="44.73429" lon="5.45595">
        <ele>1336.8000488281</ele>
        <time>2011-07-22T05:23:52.000Z</time>
      </trkpt>
      <trkpt lat="44.7345" lon="5.45623">
        <ele>1349.5999755859</ele>
        <time>2011-07-22T05:24:51.000Z</time>
      </trkpt>
      <trkpt lat="44.73456" lon="5.45629">
        <ele>1351.8000488281</ele>
        <time>2011-07-22T05:25:03.000Z</time>
      </trkpt>
      <trkpt lat="44.73458" lon="5.45626">
        <ele>1353.5999755859</ele>
        <time>2011-07-22T05:25:08.000Z</time>
      </trkpt>
      <trkpt lat="44.73466" lon="5.45659">
        <ele>1367.8000488281</ele>
        <time>2011-07-22T05:26:03.000Z</time>
      </trkpt>
      <trkpt lat="44.73468" lon="5.45659">
        <ele>1368</ele>
        <time>2011-07-22T05:26:05.000Z</time>
      </trkpt>
      <trkpt lat="44.73469" lon="5.45659">
        <ele>1368.4000244141</ele>
        <time>2011-07-22T05:26:06.000Z</time>
      </trkpt>
      <trkpt lat="44.7347" lon="5.45658">
        <ele>1368.8000488281</ele>
        <time>2011-07-22T05:26:07.000Z</time>
      </trkpt>
      <trkpt lat="44.73473" lon="5.45657">
        <ele>1369.8000488281</ele>
        <time>2011-07-22T05:26:10.000Z</time>
      </trkpt>
      <trkpt lat="44.73479" lon="5.45658">
        <ele>1370.5999755859</ele>
        <time>2011-07-22T05:26:14.000Z</time>
      </trkpt>
      <trkpt lat="44.73483" lon="5.45655">
        <ele>1371.8000488281</ele>
        <time>2011-07-22T05:26:18.000Z</time>
      </trkpt>
      <trkpt lat="44.73484" lon="5.45655">
        <ele>1372</ele>
        <time>2011-07-22T05:26:19.000Z</time>
      </trkpt>
      <trkpt lat="44.73486" lon="5.45655">
        <ele>1373</ele>
        <time>2011-07-22T05:26:21.000Z</time>
      </trkpt>
      <trkpt lat="44.73487" lon="5.45655">
        <ele>1373.4000244141</ele>
        <time>2011-07-22T05:26:22.000Z</time>
      </trkpt>
      <trkpt lat="44.73488" lon="5.45658">
        <ele>1373.5999755859</ele>
        <time>2011-07-22T05:26:24.000Z</time>
      </trkpt>
      <trkpt lat="44.73489" lon="5.45658">
        <ele>1374</ele>
        <time>2011-07-22T05:26:25.000Z</time>
      </trkpt>
      <trkpt lat="44.73496" lon="5.45666">
        <ele>1377</ele>
        <time>2011-07-22T05:26:33.000Z</time>
      </trkpt>
      <trkpt lat="44.73499" lon="5.4567">
        <ele>1378</ele>
        <time>2011-07-22T05:26:36.000Z</time>
      </trkpt>
      <trkpt lat="44.73503" lon="5.45674">
        <ele>1378.8000488281</ele>
        <time>2011-07-22T05:26:39.000Z</time>
      </trkpt>
      <trkpt lat="44.73507" lon="5.45683">
        <ele>1380.1999511719</ele>
        <time>2011-07-22T05:26:44.000Z</time>
      </trkpt>
      <trkpt lat="44.73508" lon="5.4569">
        <ele>1382.1999511719</ele>
        <time>2011-07-22T05:26:50.000Z</time>
      </trkpt>
      <trkpt lat="44.73509" lon="5.45697">
        <ele>1381.8000488281</ele>
        <time>2011-07-22T05:26:52.000Z</time>
      </trkpt>
      <trkpt lat="44.73509" lon="5.45701">
        <ele>1382.8000488281</ele>
        <time>2011-07-22T05:26:55.000Z</time>
      </trkpt>
      <trkpt lat="44.7351" lon="5.45707">
        <ele>1384.8000488281</ele>
        <time>2011-07-22T05:27:02.000Z</time>
      </trkpt>
      <trkpt lat="44.73518" lon="5.45724">
        <ele>1391.5999755859</ele>
        <time>2011-07-22T05:27:18.000Z</time>
      </trkpt>
      <trkpt lat="44.7352" lon="5.45728">
        <ele>1393.1999511719</ele>
        <time>2011-07-22T05:27:21.000Z</time>
      </trkpt>
      <trkpt lat="44.73525" lon="5.45734">
        <ele>1396.1999511719</ele>
        <time>2011-07-22T05:27:26.000Z</time>
      </trkpt>
      <trkpt lat="44.73529" lon="5.45739">
        <ele>1400.4000244141</ele>
        <time>2011-07-22T05:27:32.000Z</time>
      </trkpt>
      <trkpt lat="44.7353" lon="5.4574">
        <ele>1401.1999511719</ele>
        <time>2011-07-22T05:27:33.000Z</time>
      </trkpt>
      <trkpt lat="44.73532" lon="5.45741">
        <ele>1402.5999755859</ele>
        <time>2011-07-22T05:27:35.000Z</time>
      </trkpt>
      <trkpt lat="44.73533" lon="5.45742">
        <ele>1403.1999511719</ele>
        <time>2011-07-22T05:27:36.000Z</time>
      </trkpt>
      <trkpt lat="44.73538" lon="5.45752">
        <ele>1406.5999755859</ele>
        <time>2011-07-22T05:27:42.000Z</time>
      </trkpt>
      <trkpt lat="44.73542" lon="5.4576">
        <ele>1407.8000488281</ele>
        <time>2011-07-22T05:27:46.000Z</time>
      </trkpt>
      <trkpt lat="44.73544" lon="5.45765">
        <ele>1408.1999511719</ele>
        <time>2011-07-22T05:27:48.000Z</time>
      </trkpt>
      <trkpt lat="44.73547" lon="5.45768">
        <ele>1409</ele>
        <time>2011-07-22T05:27:51.000Z</time>
      </trkpt>
      <trkpt lat="44.7355" lon="5.45772">
        <ele>1409.4000244141</ele>
        <time>2011-07-22T05:27:54.000Z</time>
      </trkpt>
      <trkpt lat="44.73553" lon="5.45778">
        <ele>1409.4000244141</ele>
        <time>2011-07-22T05:27:57.000Z</time>
      </trkpt>
      <trkpt lat="44.73557" lon="5.45785">
        <ele>1409.8000488281</ele>
        <time>2011-07-22T05:28:01.000Z</time>
      </trkpt>
      <trkpt lat="44.73559" lon="5.45788">
        <ele>1410</ele>
        <time>2011-07-22T05:28:03.000Z</time>
      </trkpt>
      <trkpt lat="44.73566" lon="5.45798">
        <ele>1409.8000488281</ele>
        <time>2011-07-22T05:28:08.000Z</time>
      </trkpt>
      <trkpt lat="44.73573" lon="5.45804">
        <ele>1410</ele>
        <time>2011-07-22T05:28:11.000Z</time>
      </trkpt>
      <trkpt lat="44.73575" lon="5.45807">
        <ele>1409.8000488281</ele>
        <time>2011-07-22T05:28:13.000Z</time>
      </trkpt>
      <trkpt lat="44.73577" lon="5.45807">
        <ele>1409.8000488281</ele>
        <time>2011-07-22T05:28:14.000Z</time>
      </trkpt>
      <trkpt lat="44.73587" lon="5.45808">
        <ele>1409.8000488281</ele>
        <time>2011-07-22T05:28:19.000Z</time>
      </trkpt>
      <trkpt lat="44.73589" lon="5.45808">
        <ele>1410</ele>
        <time>2011-07-22T05:28:20.000Z</time>
      </trkpt>
      <trkpt lat="44.73592" lon="5.45808">
        <ele>1410.5999755859</ele>
        <time>2011-07-22T05:28:22.000Z</time>
      </trkpt>
      <trkpt lat="44.73595" lon="5.45813">
        <ele>1410.4000244141</ele>
        <time>2011-07-22T05:28:24.000Z</time>
      </trkpt>
      <trkpt lat="44.73603" lon="5.45817">
        <ele>1411.5999755859</ele>
        <time>2011-07-22T05:28:28.000Z</time>
      </trkpt>
      <trkpt lat="44.73607" lon="5.45822">
        <ele>1411.8000488281</ele>
        <time>2011-07-22T05:28:30.000Z</time>
      </trkpt>
      <trkpt lat="44.7361" lon="5.45824">
        <ele>1413.1999511719</ele>
        <time>2011-07-22T05:28:33.000Z</time>
      </trkpt>
      <trkpt lat="44.73611" lon="5.45824">
        <ele>1413.5999755859</ele>
        <time>2011-07-22T05:28:34.000Z</time>
      </trkpt>
      <trkpt lat="44.73613" lon="5.45824">
        <ele>1414.1999511719</ele>
        <time>2011-07-22T05:28:35.000Z</time>
      </trkpt>
      <trkpt lat="44.73619" lon="5.45824">
        <ele>1414.4000244141</ele>
        <time>2011-07-22T05:28:39.000Z</time>
      </trkpt>
      <trkpt lat="44.73626" lon="5.45825">
        <ele>1415</ele>
        <time>2011-07-22T05:28:42.000Z</time>
      </trkpt>
      <trkpt lat="44.73629" lon="5.4583">
        <ele>1414.8000488281</ele>
        <time>2011-07-22T05:28:44.000Z</time>
      </trkpt>
      <trkpt lat="44.73632" lon="5.45836">
        <ele>1414.8000488281</ele>
        <time>2011-07-22T05:28:47.000Z</time>
      </trkpt>
      <trkpt lat="44.73634" lon="5.45838">
        <ele>1414.8000488281</ele>
        <time>2011-07-22T05:28:48.000Z</time>
      </trkpt>
      <trkpt lat="44.73637" lon="5.45841">
        <ele>1415.1999511719</ele>
        <time>2011-07-22T05:28:50.000Z</time>
      </trkpt>
      <trkpt lat="44.73641" lon="5.45845">
        <ele>1415.1999511719</ele>
        <time>2011-07-22T05:28:52.000Z</time>
      </trkpt>
      <trkpt lat="44.73647" lon="5.45849">
        <ele>1415.5999755859</ele>
        <time>2011-07-22T05:28:56.000Z</time>
      </trkpt>
      <trkpt lat="44.7365" lon="5.4585">
        <ele>1415.8000488281</ele>
        <time>2011-07-22T05:28:58.000Z</time>
      </trkpt>
      <trkpt lat="44.73655" lon="5.45849">
        <ele>1417.4000244141</ele>
        <time>2011-07-22T05:29:02.000Z</time>
      </trkpt>
      <trkpt lat="44.73656" lon="5.4585">
        <ele>1417.5999755859</ele>
        <time>2011-07-22T05:29:03.000Z</time>
      </trkpt>
      <trkpt lat="44.7366" lon="5.45852">
        <ele>1418.1999511719</ele>
        <time>2011-07-22T05:29:06.000Z</time>
      </trkpt>
      <trkpt lat="44.73661" lon="5.45854">
        <ele>1418.4000244141</ele>
        <time>2011-07-22T05:29:07.000Z</time>
      </trkpt>
      <trkpt lat="44.7368" lon="5.45865">
        <ele>1433.8000488281</ele>
        <time>2011-07-22T05:29:39.000Z</time>
      </trkpt>
      <trkpt lat="44.7368" lon="5.45865">
        <ele>1434</ele>
        <time>2011-07-22T05:29:40.000Z</time>
      </trkpt>
      <trkpt lat="44.73684" lon="5.45867">
        <ele>1434.8000488281</ele>
        <time>2011-07-22T05:29:43.000Z</time>
      </trkpt>
      <trkpt lat="44.73684" lon="5.45867">
        <ele>1435</ele>
        <time>2011-07-22T05:29:44.000Z</time>
      </trkpt>
      <trkpt lat="44.73688" lon="5.4587">
        <ele>1436.1999511719</ele>
        <time>2011-07-22T05:29:49.000Z</time>
      </trkpt>
      <trkpt lat="44.73688" lon="5.45872">
        <ele>1436.5999755859</ele>
        <time>2011-07-22T05:29:57.000Z</time>
      </trkpt>
      <trkpt lat="44.7369" lon="5.45872">
        <ele>1437</ele>
        <time>2011-07-22T05:30:00.000Z</time>
      </trkpt>
      <trkpt lat="44.73691" lon="5.45873">
        <ele>1437</ele>
        <time>2011-07-22T05:30:01.000Z</time>
      </trkpt>
      <trkpt lat="44.73693" lon="5.45874">
        <ele>1437</ele>
        <time>2011-07-22T05:30:06.000Z</time>
      </trkpt>
      <trkpt lat="44.73697" lon="5.45881">
        <ele>1434.8000488281</ele>
        <time>2011-07-22T05:30:57.000Z</time>
      </trkpt>
      <trkpt lat="44.737" lon="5.45888">
        <ele>1434</ele>
        <time>2011-07-22T05:31:01.000Z</time>
      </trkpt>
      <trkpt lat="44.73701" lon="5.45893">
        <ele>1433.1999511719</ele>
        <time>2011-07-22T05:31:05.000Z</time>
      </trkpt>
      <trkpt lat="44.73701" lon="5.45894">
        <ele>1433</ele>
        <time>2011-07-22T05:31:06.000Z</time>
      </trkpt>
      <trkpt lat="44.73695" lon="5.45878">
        <ele>1429.8000488281</ele>
        <time>2011-07-22T05:31:35.000Z</time>
      </trkpt>
      <trkpt lat="44.73701" lon="5.45876">
        <ele>1431.4000244141</ele>
        <time>2011-07-22T05:31:48.000Z</time>
      </trkpt>
      <trkpt lat="44.73706" lon="5.45879">
        <ele>1432</ele>
        <time>2011-07-22T05:31:51.000Z</time>
      </trkpt>
      <trkpt lat="44.73716" lon="5.45878">
        <ele>1432.5999755859</ele>
        <time>2011-07-22T05:31:57.000Z</time>
      </trkpt>
      <trkpt lat="44.7372" lon="5.45876">
        <ele>1433</ele>
        <time>2011-07-22T05:31:59.000Z</time>
      </trkpt>
      <trkpt lat="44.73725" lon="5.45877">
        <ele>1433.4000244141</ele>
        <time>2011-07-22T05:32:02.000Z</time>
      </trkpt>
      <trkpt lat="44.7373" lon="5.45878">
        <ele>1433.8000488281</ele>
        <time>2011-07-22T05:32:05.000Z</time>
      </trkpt>
      <trkpt lat="44.73733" lon="5.45876">
        <ele>1434.1999511719</ele>
        <time>2011-07-22T05:32:07.000Z</time>
      </trkpt>
      <trkpt lat="44.73737" lon="5.45873">
        <ele>1434.4000244141</ele>
        <time>2011-07-22T05:32:09.000Z</time>
      </trkpt>
      <trkpt lat="44.73743" lon="5.45871">
        <ele>1434.8000488281</ele>
        <time>2011-07-22T05:32:12.000Z</time>
      </trkpt>
      <trkpt lat="44.73747" lon="5.45869">
        <ele>1435.1999511719</ele>
        <time>2011-07-22T05:32:15.000Z</time>
      </trkpt>
      <trkpt lat="44.73751" lon="5.45866">
        <ele>1435.5999755859</ele>
        <time>2011-07-22T05:32:17.000Z</time>
      </trkpt>
      <trkpt lat="44.73753" lon="5.45864">
        <ele>1435.5999755859</ele>
        <time>2011-07-22T05:32:18.000Z</time>
      </trkpt>
      <trkpt lat="44.73762" lon="5.45859">
        <ele>1435.8000488281</ele>
        <time>2011-07-22T05:32:22.000Z</time>
      </trkpt>
      <trkpt lat="44.73771" lon="5.4585">
        <ele>1436.5999755859</ele>
        <time>2011-07-22T05:32:27.000Z</time>
      </trkpt>
      <trkpt lat="44.73781" lon="5.45835">
        <ele>1437</ele>
        <time>2011-07-22T05:32:35.000Z</time>
      </trkpt>
      <trkpt lat="44.73784" lon="5.45832">
        <ele>1437.1999511719</ele>
        <time>2011-07-22T05:32:37.000Z</time>
      </trkpt>
      <trkpt lat="44.73791" lon="5.45832">
        <ele>1437</ele>
        <time>2011-07-22T05:32:40.000Z</time>
      </trkpt>
      <trkpt lat="44.73803" lon="5.45837">
        <ele>1437.1999511719</ele>
        <time>2011-07-22T05:32:45.000Z</time>
      </trkpt>
      <trkpt lat="44.73806" lon="5.45839">
        <ele>1437.4000244141</ele>
        <time>2011-07-22T05:32:48.000Z</time>
      </trkpt>
      <trkpt lat="44.73807" lon="5.45842">
        <ele>1437.4000244141</ele>
        <time>2011-07-22T05:32:50.000Z</time>
      </trkpt>
      <trkpt lat="44.73808" lon="5.45843">
        <ele>1437.1999511719</ele>
        <time>2011-07-22T05:32:51.000Z</time>
      </trkpt>
      <trkpt lat="44.73808" lon="5.45842">
        <ele>1438.1999511719</ele>
        <time>2011-07-22T05:32:54.000Z</time>
      </trkpt>
      <trkpt lat="44.73809" lon="5.45843">
        <ele>1438.4000244141</ele>
        <time>2011-07-22T05:32:56.000Z</time>
      </trkpt>
      <trkpt lat="44.73812" lon="5.45845">
        <ele>1438.8000488281</ele>
        <time>2011-07-22T05:32:59.000Z</time>
      </trkpt>
      <trkpt lat="44.73815" lon="5.45847">
        <ele>1439.5999755859</ele>
        <time>2011-07-22T05:33:04.000Z</time>
      </trkpt>
      <trkpt lat="44.73819" lon="5.45849">
        <ele>1439.8000488281</ele>
        <time>2011-07-22T05:33:08.000Z</time>
      </trkpt>
      <trkpt lat="44.7382" lon="5.45849">
        <ele>1440</ele>
        <time>2011-07-22T05:33:09.000Z</time>
      </trkpt>
      <trkpt lat="44.73824" lon="5.45847">
        <ele>1440.8000488281</ele>
        <time>2011-07-22T05:33:12.000Z</time>
      </trkpt>
      <trkpt lat="44.73827" lon="5.45844">
        <ele>1441.8000488281</ele>
        <time>2011-07-22T05:33:15.000Z</time>
      </trkpt>
      <trkpt lat="44.73831" lon="5.45842">
        <ele>1443</ele>
        <time>2011-07-22T05:33:19.000Z</time>
      </trkpt>
      <trkpt lat="44.73834" lon="5.45842">
        <ele>1444</ele>
        <time>2011-07-22T05:33:22.000Z</time>
      </trkpt>
      <trkpt lat="44.73838" lon="5.45841">
        <ele>1444.8000488281</ele>
        <time>2011-07-22T05:33:25.000Z</time>
      </trkpt>
      <trkpt lat="44.73841" lon="5.45839">
        <ele>1445.4000244141</ele>
        <time>2011-07-22T05:33:27.000Z</time>
      </trkpt>
      <trkpt lat="44.73843" lon="5.45838">
        <ele>1445.5999755859</ele>
        <time>2011-07-22T05:33:28.000Z</time>
      </trkpt>
      <trkpt lat="44.7385" lon="5.45838">
        <ele>1446.4000244141</ele>
        <time>2011-07-22T05:33:32.000Z</time>
      </trkpt>
      <trkpt lat="44.73856" lon="5.4584">
        <ele>1446.8000488281</ele>
        <time>2011-07-22T05:33:35.000Z</time>
      </trkpt>
      <trkpt lat="44.73861" lon="5.45843">
        <ele>1446.8000488281</ele>
        <time>2011-07-22T05:33:37.000Z</time>
      </trkpt>
      <trkpt lat="44.73865" lon="5.45846">
        <ele>1448</ele>
        <time>2011-07-22T05:33:42.000Z</time>
      </trkpt>
      <trkpt lat="44.73867" lon="5.45848">
        <ele>1448.4000244141</ele>
        <time>2011-07-22T05:33:44.000Z</time>
      </trkpt>
      <trkpt lat="44.73872" lon="5.45847">
        <ele>1449.1999511719</ele>
        <time>2011-07-22T05:33:48.000Z</time>
      </trkpt>
      <trkpt lat="44.73874" lon="5.45846">
        <ele>1449.4000244141</ele>
        <time>2011-07-22T05:33:49.000Z</time>
      </trkpt>
      <trkpt lat="44.73875" lon="5.45846">
        <ele>1449.4000244141</ele>
        <time>2011-07-22T05:33:50.000Z</time>
      </trkpt>
      <trkpt lat="44.73878" lon="5.45846">
        <ele>1449.4000244141</ele>
        <time>2011-07-22T05:33:52.000Z</time>
      </trkpt>
      <trkpt lat="44.73887" lon="5.45851">
        <ele>1449.1999511719</ele>
        <time>2011-07-22T05:33:57.000Z</time>
      </trkpt>
      <trkpt lat="44.73893" lon="5.45851">
        <ele>1449</ele>
        <time>2011-07-22T05:34:01.000Z</time>
      </trkpt>
      <trkpt lat="44.73895" lon="5.45851">
        <ele>1449</ele>
        <time>2011-07-22T05:34:02.000Z</time>
      </trkpt>
      <trkpt lat="44.73901" lon="5.45854">
        <ele>1448.5999755859</ele>
        <time>2011-07-22T05:34:07.000Z</time>
      </trkpt>
      <trkpt lat="44.73906" lon="5.45853">
        <ele>1448.1999511719</ele>
        <time>2011-07-22T05:34:11.000Z</time>
      </trkpt>
      <trkpt lat="44.73907" lon="5.45853">
        <ele>1448.1999511719</ele>
        <time>2011-07-22T05:34:12.000Z</time>
      </trkpt>
      <trkpt lat="44.73909" lon="5.45853">
        <ele>1448</ele>
        <time>2011-07-22T05:34:14.000Z</time>
      </trkpt>
      <trkpt lat="44.73911" lon="5.45851">
        <ele>1447.8000488281</ele>
        <time>2011-07-22T05:34:16.000Z</time>
      </trkpt>
      <trkpt lat="44.73912" lon="5.45851">
        <ele>1447.8000488281</ele>
        <time>2011-07-22T05:34:17.000Z</time>
      </trkpt>
      <trkpt lat="44.73913" lon="5.4585">
        <ele>1447.8000488281</ele>
        <time>2011-07-22T05:34:18.000Z</time>
      </trkpt>
      <trkpt lat="44.73916" lon="5.45846">
        <ele>1447.5999755859</ele>
        <time>2011-07-22T05:34:21.000Z</time>
      </trkpt>
      <trkpt lat="44.73927" lon="5.45836">
        <ele>1447</ele>
        <time>2011-07-22T05:34:27.000Z</time>
      </trkpt>
      <trkpt lat="44.73934" lon="5.45824">
        <ele>1446.5999755859</ele>
        <time>2011-07-22T05:34:32.000Z</time>
      </trkpt>
      <trkpt lat="44.73939" lon="5.45817">
        <ele>1446.4000244141</ele>
        <time>2011-07-22T05:34:37.000Z</time>
      </trkpt>
      <trkpt lat="44.73941" lon="5.45815">
        <ele>1446.4000244141</ele>
        <time>2011-07-22T05:34:38.000Z</time>
      </trkpt>
      <trkpt lat="44.73943" lon="5.45813">
        <ele>1446.1999511719</ele>
        <time>2011-07-22T05:34:39.000Z</time>
      </trkpt>
      <trkpt lat="44.73949" lon="5.45808">
        <ele>1446.1999511719</ele>
        <time>2011-07-22T05:34:43.000Z</time>
      </trkpt>
      <trkpt lat="44.7395" lon="5.45806">
        <ele>1446.1999511719</ele>
        <time>2011-07-22T05:34:44.000Z</time>
      </trkpt>
      <trkpt lat="44.73954" lon="5.45801">
        <ele>1446</ele>
        <time>2011-07-22T05:34:47.000Z</time>
      </trkpt>
      <trkpt lat="44.73956" lon="5.45801">
        <ele>1446</ele>
        <time>2011-07-22T05:34:48.000Z</time>
      </trkpt>
      <trkpt lat="44.73957" lon="5.45802">
        <ele>1446</ele>
        <time>2011-07-22T05:34:49.000Z</time>
      </trkpt>
      <trkpt lat="44.73962" lon="5.45795">
        <ele>1446</ele>
        <time>2011-07-22T05:34:54.000Z</time>
      </trkpt>
      <trkpt lat="44.73965" lon="5.45792">
        <ele>1446.1999511719</ele>
        <time>2011-07-22T05:34:57.000Z</time>
      </trkpt>
      <trkpt lat="44.73966" lon="5.45793">
        <ele>1446.1999511719</ele>
        <time>2011-07-22T05:34:58.000Z</time>
      </trkpt>
      <trkpt lat="44.7397" lon="5.4579">
        <ele>1446.4000244141</ele>
        <time>2011-07-22T05:35:02.000Z</time>
      </trkpt>
      <trkpt lat="44.73971" lon="5.45787">
        <ele>1446.5999755859</ele>
        <time>2011-07-22T05:35:04.000Z</time>
      </trkpt>
      <trkpt lat="44.73972" lon="5.45784">
        <ele>1447</ele>
        <time>2011-07-22T05:35:07.000Z</time>
      </trkpt>
      <trkpt lat="44.73974" lon="5.45782">
        <ele>1447.4000244141</ele>
        <time>2011-07-22T05:35:10.000Z</time>
      </trkpt>
      <trkpt lat="44.73975" lon="5.45781">
        <ele>1447.5999755859</ele>
        <time>2011-07-22T05:35:11.000Z</time>
      </trkpt>
      <trkpt lat="44.73977" lon="5.45779">
        <ele>1448.4000244141</ele>
        <time>2011-07-22T05:35:14.000Z</time>
      </trkpt>
      <trkpt lat="44.73978" lon="5.45772">
        <ele>1449.4000244141</ele>
        <time>2011-07-22T05:35:18.000Z</time>
      </trkpt>
      <trkpt lat="44.73979" lon="5.45768">
        <ele>1450</ele>
        <time>2011-07-22T05:35:20.000Z</time>
      </trkpt>
      <trkpt lat="44.73982" lon="5.45762">
        <ele>1451.1999511719</ele>
        <time>2011-07-22T05:35:25.000Z</time>
      </trkpt>
      <trkpt lat="44.73986" lon="5.45757">
        <ele>1452</ele>
        <time>2011-07-22T05:35:29.000Z</time>
      </trkpt>
      <trkpt lat="44.73987" lon="5.45755">
        <ele>1452.4000244141</ele>
        <time>2011-07-22T05:35:30.000Z</time>
      </trkpt>
      <trkpt lat="44.73991" lon="5.45751">
        <ele>1453.1999511719</ele>
        <time>2011-07-22T05:35:34.000Z</time>
      </trkpt>
      <trkpt lat="44.73992" lon="5.4575">
        <ele>1453.4000244141</ele>
        <time>2011-07-22T05:35:35.000Z</time>
      </trkpt>
      <trkpt lat="44.73999" lon="5.45751">
        <ele>1454.1999511719</ele>
        <time>2011-07-22T05:35:40.000Z</time>
      </trkpt>
      <trkpt lat="44.74006" lon="5.45753">
        <ele>1455</ele>
        <time>2011-07-22T05:35:44.000Z</time>
      </trkpt>
      <trkpt lat="44.74011" lon="5.45757">
        <ele>1455.4000244141</ele>
        <time>2011-07-22T05:35:47.000Z</time>
      </trkpt>
      <trkpt lat="44.74017" lon="5.45759">
        <ele>1456</ele>
        <time>2011-07-22T05:35:51.000Z</time>
      </trkpt>
      <trkpt lat="44.74027" lon="5.4576">
        <ele>1457</ele>
        <time>2011-07-22T05:35:57.000Z</time>
      </trkpt>
      <trkpt lat="44.74028" lon="5.45762">
        <ele>1457</ele>
        <time>2011-07-22T05:35:58.000Z</time>
      </trkpt>
      <trkpt lat="44.74038" lon="5.45765">
        <ele>1457.4000244141</ele>
        <time>2011-07-22T05:36:03.000Z</time>
      </trkpt>
      <trkpt lat="44.74047" lon="5.45766">
        <ele>1457.4000244141</ele>
        <time>2011-07-22T05:36:08.000Z</time>
      </trkpt>
      <trkpt lat="44.74049" lon="5.45766">
        <ele>1457.4000244141</ele>
        <time>2011-07-22T05:36:09.000Z</time>
      </trkpt>
      <trkpt lat="44.74058" lon="5.45762">
        <ele>1457.8000488281</ele>
        <time>2011-07-22T05:36:14.000Z</time>
      </trkpt>
      <trkpt lat="44.74063" lon="5.45761">
        <ele>1457.8000488281</ele>
        <time>2011-07-22T05:36:17.000Z</time>
      </trkpt>
      <trkpt lat="44.74065" lon="5.4576">
        <ele>1457.8000488281</ele>
        <time>2011-07-22T05:36:18.000Z</time>
      </trkpt>
      <trkpt lat="44.74069" lon="5.45759">
        <ele>1458</ele>
        <time>2011-07-22T05:36:20.000Z</time>
      </trkpt>
      <trkpt lat="44.74077" lon="5.45756">
        <ele>1458.1999511719</ele>
        <time>2011-07-22T05:36:25.000Z</time>
      </trkpt>
      <trkpt lat="44.74084" lon="5.45757">
        <ele>1458.4000244141</ele>
        <time>2011-07-22T05:36:29.000Z</time>
      </trkpt>
      <trkpt lat="44.74088" lon="5.45755">
        <ele>1458.5999755859</ele>
        <time>2011-07-22T05:36:31.000Z</time>
      </trkpt>
      <trkpt lat="44.74098" lon="5.45744">
        <ele>1459.4000244141</ele>
        <time>2011-07-22T05:36:37.000Z</time>
      </trkpt>
      <trkpt lat="44.741" lon="5.45741">
        <ele>1459.5999755859</ele>
        <time>2011-07-22T05:36:39.000Z</time>
      </trkpt>
      <trkpt lat="44.74108" lon="5.45738">
        <ele>1460.8000488281</ele>
        <time>2011-07-22T05:36:44.000Z</time>
      </trkpt>
      <trkpt lat="44.74116" lon="5.45738">
        <ele>1461.8000488281</ele>
        <time>2011-07-22T05:36:49.000Z</time>
      </trkpt>
      <trkpt lat="44.74118" lon="5.45737">
        <ele>1462.4000244141</ele>
        <time>2011-07-22T05:36:51.000Z</time>
      </trkpt>
      <trkpt lat="44.7412" lon="5.45737">
        <ele>1462.8000488281</ele>
        <time>2011-07-22T05:36:53.000Z</time>
      </trkpt>
      <trkpt lat="44.74121" lon="5.45739">
        <ele>1463</ele>
        <time>2011-07-22T05:36:54.000Z</time>
      </trkpt>
      <trkpt lat="44.74125" lon="5.45743">
        <ele>1464</ele>
        <time>2011-07-22T05:36:57.000Z</time>
      </trkpt>
      <trkpt lat="44.7413" lon="5.45749">
        <ele>1464.8000488281</ele>
        <time>2011-07-22T05:37:01.000Z</time>
      </trkpt>
      <trkpt lat="44.74131" lon="5.45749">
        <ele>1465</ele>
        <time>2011-07-22T05:37:02.000Z</time>
      </trkpt>
      <trkpt lat="44.74134" lon="5.4575">
        <ele>1465.4000244141</ele>
        <time>2011-07-22T05:37:04.000Z</time>
      </trkpt>
      <trkpt lat="44.74136" lon="5.45752">
        <ele>1465.8000488281</ele>
        <time>2011-07-22T05:37:06.000Z</time>
      </trkpt>
      <trkpt lat="44.74139" lon="5.45749">
        <ele>1466.4000244141</ele>
        <time>2011-07-22T05:37:08.000Z</time>
      </trkpt>
      <trkpt lat="44.7415" lon="5.45749">
        <ele>1469</ele>
        <time>2011-07-22T05:37:15.000Z</time>
      </trkpt>
      <trkpt lat="44.74153" lon="5.45747">
        <ele>1469.1999511719</ele>
        <time>2011-07-22T05:37:17.000Z</time>
      </trkpt>
      <trkpt lat="44.74158" lon="5.45744">
        <ele>1469.5999755859</ele>
        <time>2011-07-22T05:37:20.000Z</time>
      </trkpt>
      <trkpt lat="44.74161" lon="5.45748">
        <ele>1469.5999755859</ele>
        <time>2011-07-22T05:37:22.000Z</time>
      </trkpt>
      <trkpt lat="44.7417" lon="5.45747">
        <ele>1470</ele>
        <time>2011-07-22T05:37:27.000Z</time>
      </trkpt>
      <trkpt lat="44.74176" lon="5.45746">
        <ele>1470</ele>
        <time>2011-07-22T05:37:30.000Z</time>
      </trkpt>
      <trkpt lat="44.7418" lon="5.45747">
        <ele>1470</ele>
        <time>2011-07-22T05:37:32.000Z</time>
      </trkpt>
      <trkpt lat="44.74189" lon="5.45749">
        <ele>1470.5999755859</ele>
        <time>2011-07-22T05:37:38.000Z</time>
      </trkpt>
      <trkpt lat="44.74194" lon="5.45748">
        <ele>1471</ele>
        <time>2011-07-22T05:37:41.000Z</time>
      </trkpt>
      <trkpt lat="44.74197" lon="5.45746">
        <ele>1471.4000244141</ele>
        <time>2011-07-22T05:37:43.000Z</time>
      </trkpt>
      <trkpt lat="44.74205" lon="5.45739">
        <ele>1472.8000488281</ele>
        <time>2011-07-22T05:37:50.000Z</time>
      </trkpt>
      <trkpt lat="44.7421" lon="5.45735">
        <ele>1473.8000488281</ele>
        <time>2011-07-22T05:37:54.000Z</time>
      </trkpt>
      <trkpt lat="44.74216" lon="5.4573">
        <ele>1474.5999755859</ele>
        <time>2011-07-22T05:37:58.000Z</time>
      </trkpt>
      <trkpt lat="44.74223" lon="5.45725">
        <ele>1475.4000244141</ele>
        <time>2011-07-22T05:38:03.000Z</time>
      </trkpt>
      <trkpt lat="44.74227" lon="5.45721">
        <ele>1476</ele>
        <time>2011-07-22T05:38:06.000Z</time>
      </trkpt>
      <trkpt lat="44.74231" lon="5.45713">
        <ele>1476.5999755859</ele>
        <time>2011-07-22T05:38:10.000Z</time>
      </trkpt>
      <trkpt lat="44.74236" lon="5.45706">
        <ele>1476.5999755859</ele>
        <time>2011-07-22T05:38:13.000Z</time>
      </trkpt>
      <trkpt lat="44.74239" lon="5.45704">
        <ele>1476.5999755859</ele>
        <time>2011-07-22T05:38:15.000Z</time>
      </trkpt>
      <trkpt lat="44.74239" lon="5.45702">
        <ele>1476.8000488281</ele>
        <time>2011-07-22T05:38:16.000Z</time>
      </trkpt>
      <trkpt lat="44.7424" lon="5.45697">
        <ele>1477</ele>
        <time>2011-07-22T05:38:18.000Z</time>
      </trkpt>
      <trkpt lat="44.74245" lon="5.45698">
        <ele>1477.5999755859</ele>
        <time>2011-07-22T05:38:22.000Z</time>
      </trkpt>
      <trkpt lat="44.7425" lon="5.45699">
        <ele>1477.8000488281</ele>
        <time>2011-07-22T05:38:26.000Z</time>
      </trkpt>
      <trkpt lat="44.74253" lon="5.45699">
        <ele>1478.1999511719</ele>
        <time>2011-07-22T05:38:28.000Z</time>
      </trkpt>
      <trkpt lat="44.74255" lon="5.457">
        <ele>1478.1999511719</ele>
        <time>2011-07-22T05:38:29.000Z</time>
      </trkpt>
      <trkpt lat="44.7426" lon="5.45702">
        <ele>1479.1999511719</ele>
        <time>2011-07-22T05:38:34.000Z</time>
      </trkpt>
      <trkpt lat="44.74262" lon="5.45701">
        <ele>1479.1999511719</ele>
        <time>2011-07-22T05:38:35.000Z</time>
      </trkpt>
      <trkpt lat="44.74269" lon="5.45698">
        <ele>1480.5999755859</ele>
        <time>2011-07-22T05:38:40.000Z</time>
      </trkpt>
      <trkpt lat="44.74272" lon="5.45696">
        <ele>1481.1999511719</ele>
        <time>2011-07-22T05:38:42.000Z</time>
      </trkpt>
      <trkpt lat="44.74278" lon="5.45694">
        <ele>1483</ele>
        <time>2011-07-22T05:38:47.000Z</time>
      </trkpt>
      <trkpt lat="44.74282" lon="5.45694">
        <ele>1484</ele>
        <time>2011-07-22T05:38:50.000Z</time>
      </trkpt>
      <trkpt lat="44.74288" lon="5.457">
        <ele>1484.8000488281</ele>
        <time>2011-07-22T05:38:53.000Z</time>
      </trkpt>
      <trkpt lat="44.74294" lon="5.45705">
        <ele>1485.1999511719</ele>
        <time>2011-07-22T05:38:55.000Z</time>
      </trkpt>
      <trkpt lat="44.74298" lon="5.45704">
        <ele>1486</ele>
        <time>2011-07-22T05:38:58.000Z</time>
      </trkpt>
      <trkpt lat="44.74299" lon="5.45698">
        <ele>1486.4000244141</ele>
        <time>2011-07-22T05:39:00.000Z</time>
      </trkpt>
      <trkpt lat="44.74298" lon="5.45689">
        <ele>1486.8000488281</ele>
        <time>2011-07-22T05:39:02.000Z</time>
      </trkpt>
      <trkpt lat="44.74297" lon="5.45684">
        <ele>1487.1999511719</ele>
        <time>2011-07-22T05:39:03.000Z</time>
      </trkpt>
      <trkpt lat="44.74299" lon="5.45675">
        <ele>1488.1999511719</ele>
        <time>2011-07-22T05:39:07.000Z</time>
      </trkpt>
      <trkpt lat="44.74303" lon="5.4566">
        <ele>1488.5999755859</ele>
        <time>2011-07-22T05:39:12.000Z</time>
      </trkpt>
      <trkpt lat="44.74306" lon="5.45655">
        <ele>1489.1999511719</ele>
        <time>2011-07-22T05:39:15.000Z</time>
      </trkpt>
      <trkpt lat="44.74308" lon="5.45652">
        <ele>1489.5999755859</ele>
        <time>2011-07-22T05:39:17.000Z</time>
      </trkpt>
      <trkpt lat="44.74311" lon="5.45643">
        <ele>1490.4000244141</ele>
        <time>2011-07-22T05:39:23.000Z</time>
      </trkpt>
      <trkpt lat="44.74314" lon="5.45636">
        <ele>1491.5999755859</ele>
        <time>2011-07-22T05:39:29.000Z</time>
      </trkpt>
      <trkpt lat="44.74318" lon="5.45634">
        <ele>1492.4000244141</ele>
        <time>2011-07-22T05:39:32.000Z</time>
      </trkpt>
      <trkpt lat="44.74319" lon="5.45634">
        <ele>1492.5999755859</ele>
        <time>2011-07-22T05:39:33.000Z</time>
      </trkpt>
      <trkpt lat="44.74325" lon="5.45632">
        <ele>1493.5999755859</ele>
        <time>2011-07-22T05:39:37.000Z</time>
      </trkpt>
      <trkpt lat="44.74328" lon="5.45633">
        <ele>1494</ele>
        <time>2011-07-22T05:39:39.000Z</time>
      </trkpt>
      <trkpt lat="44.74331" lon="5.45628">
        <ele>1494.8000488281</ele>
        <time>2011-07-22T05:39:42.000Z</time>
      </trkpt>
      <trkpt lat="44.74338" lon="5.45621">
        <ele>1496.5999755859</ele>
        <time>2011-07-22T05:39:49.000Z</time>
      </trkpt>
      <trkpt lat="44.74344" lon="5.45614">
        <ele>1498</ele>
        <time>2011-07-22T05:39:55.000Z</time>
      </trkpt>
      <trkpt lat="44.74347" lon="5.45611">
        <ele>1498.4000244141</ele>
        <time>2011-07-22T05:39:57.000Z</time>
      </trkpt>
      <trkpt lat="44.74351" lon="5.45607">
        <ele>1499</ele>
        <time>2011-07-22T05:40:00.000Z</time>
      </trkpt>
      <trkpt lat="44.74356" lon="5.45596">
        <ele>1500.1999511719</ele>
        <time>2011-07-22T05:40:05.000Z</time>
      </trkpt>
      <trkpt lat="44.7436" lon="5.45592">
        <ele>1500.8000488281</ele>
        <time>2011-07-22T05:40:07.000Z</time>
      </trkpt>
      <trkpt lat="44.74361" lon="5.45592">
        <ele>1501</ele>
        <time>2011-07-22T05:40:08.000Z</time>
      </trkpt>
      <trkpt lat="44.74364" lon="5.4559">
        <ele>1501.4000244141</ele>
        <time>2011-07-22T05:40:10.000Z</time>
      </trkpt>
      <trkpt lat="44.74368" lon="5.4558">
        <ele>1501.8000488281</ele>
        <time>2011-07-22T05:40:14.000Z</time>
      </trkpt>
      <trkpt lat="44.74369" lon="5.45577">
        <ele>1502</ele>
        <time>2011-07-22T05:40:15.000Z</time>
      </trkpt>
      <trkpt lat="44.7437" lon="5.45573">
        <ele>1502.1999511719</ele>
        <time>2011-07-22T05:40:16.000Z</time>
      </trkpt>
      <trkpt lat="44.74375" lon="5.45563">
        <ele>1502.5999755859</ele>
        <time>2011-07-22T05:40:20.000Z</time>
      </trkpt>
      <trkpt lat="44.7438" lon="5.4555">
        <ele>1503</ele>
        <time>2011-07-22T05:40:25.000Z</time>
      </trkpt>
      <trkpt lat="44.74379" lon="5.45537">
        <ele>1504.5999755859</ele>
        <time>2011-07-22T05:40:31.000Z</time>
      </trkpt>
      <trkpt lat="44.74377" lon="5.4553">
        <ele>1505.8000488281</ele>
        <time>2011-07-22T05:40:36.000Z</time>
      </trkpt>
      <trkpt lat="44.74376" lon="5.45528">
        <ele>1506.1999511719</ele>
        <time>2011-07-22T05:40:37.000Z</time>
      </trkpt>
      <trkpt lat="44.74376" lon="5.45526">
        <ele>1506.5999755859</ele>
        <time>2011-07-22T05:40:39.000Z</time>
      </trkpt>
      <trkpt lat="44.74377" lon="5.45521">
        <ele>1507.5999755859</ele>
        <time>2011-07-22T05:40:43.000Z</time>
      </trkpt>
      <trkpt lat="44.74377" lon="5.45518">
        <ele>1508.4000244141</ele>
        <time>2011-07-22T05:40:47.000Z</time>
      </trkpt>
      <trkpt lat="44.74384" lon="5.45517">
        <ele>1508.1999511719</ele>
        <time>2011-07-22T05:40:53.000Z</time>
      </trkpt>
      <trkpt lat="44.74382" lon="5.45508">
        <ele>1509</ele>
        <time>2011-07-22T05:41:02.000Z</time>
      </trkpt>
      <trkpt lat="44.74383" lon="5.45504">
        <ele>1509.5999755859</ele>
        <time>2011-07-22T05:41:06.000Z</time>
      </trkpt>
      <trkpt lat="44.74389" lon="5.45497">
        <ele>1522</ele>
        <time>2011-07-22T05:42:10.000Z</time>
      </trkpt>
      <trkpt lat="44.74395" lon="5.45498">
        <ele>1522.1999511719</ele>
        <time>2011-07-22T05:42:16.000Z</time>
      </trkpt>
      <trkpt lat="44.744" lon="5.45498">
        <ele>1522.8000488281</ele>
        <time>2011-07-22T05:42:24.000Z</time>
      </trkpt>
      <trkpt lat="44.74403" lon="5.45499">
        <ele>1523</ele>
        <time>2011-07-22T05:42:26.000Z</time>
      </trkpt>
      <trkpt lat="44.74405" lon="5.455">
        <ele>1523.1999511719</ele>
        <time>2011-07-22T05:42:27.000Z</time>
      </trkpt>
      <trkpt lat="44.74409" lon="5.45506">
        <ele>1523</ele>
        <time>2011-07-22T05:42:30.000Z</time>
      </trkpt>
      <trkpt lat="44.7441" lon="5.45509">
        <ele>1522.8000488281</ele>
        <time>2011-07-22T05:42:31.000Z</time>
      </trkpt>
      <trkpt lat="44.74412" lon="5.45509">
        <ele>1524.8000488281</ele>
        <time>2011-07-22T05:42:35.000Z</time>
      </trkpt>
      <trkpt lat="44.74427" lon="5.45531">
        <ele>1535</ele>
        <time>2011-07-22T05:43:00.000Z</time>
      </trkpt>
      <trkpt lat="44.74428" lon="5.45534">
        <ele>1535.5999755859</ele>
        <time>2011-07-22T05:43:02.000Z</time>
      </trkpt>
      <trkpt lat="44.7443" lon="5.45536">
        <ele>1536.4000244141</ele>
        <time>2011-07-22T05:43:05.000Z</time>
      </trkpt>
      <trkpt lat="44.74431" lon="5.4554">
        <ele>1537.5999755859</ele>
        <time>2011-07-22T05:43:09.000Z</time>
      </trkpt>
      <trkpt lat="44.74432" lon="5.45542">
        <ele>1537.8000488281</ele>
        <time>2011-07-22T05:43:10.000Z</time>
      </trkpt>
      <trkpt lat="44.74433" lon="5.45543">
        <ele>1538</ele>
        <time>2011-07-22T05:43:11.000Z</time>
      </trkpt>
      <trkpt lat="44.74434" lon="5.45546">
        <ele>1538.8000488281</ele>
        <time>2011-07-22T05:43:14.000Z</time>
      </trkpt>
      <trkpt lat="44.74435" lon="5.45548">
        <ele>1539.1999511719</ele>
        <time>2011-07-22T05:43:16.000Z</time>
      </trkpt>
      <trkpt lat="44.74436" lon="5.45551">
        <ele>1539.8000488281</ele>
        <time>2011-07-22T05:43:19.000Z</time>
      </trkpt>
      <trkpt lat="44.74436" lon="5.45551">
        <ele>1540.1999511719</ele>
        <time>2011-07-22T05:43:20.000Z</time>
      </trkpt>
      <trkpt lat="44.74437" lon="5.45552">
        <ele>1540.5999755859</ele>
        <time>2011-07-22T05:43:22.000Z</time>
      </trkpt>
      <trkpt lat="44.74438" lon="5.45557">
        <ele>1541.1999511719</ele>
        <time>2011-07-22T05:43:27.000Z</time>
      </trkpt>
      <trkpt lat="44.74448" lon="5.45587">
        <ele>1556.8000488281</ele>
        <time>2011-07-22T05:44:07.000Z</time>
      </trkpt>
      <trkpt lat="44.74447" lon="5.45585">
        <ele>1557.4000244141</ele>
        <time>2011-07-22T05:44:09.000Z</time>
      </trkpt>
      <trkpt lat="44.74444" lon="5.45586">
        <ele>1558</ele>
        <time>2011-07-22T05:44:12.000Z</time>
      </trkpt>
      <trkpt lat="44.7444" lon="5.45583">
        <ele>1558.8000488281</ele>
        <time>2011-07-22T05:44:16.000Z</time>
      </trkpt>
      <trkpt lat="44.74433" lon="5.4558">
        <ele>1559.8000488281</ele>
        <time>2011-07-22T05:44:21.000Z</time>
      </trkpt>
      <trkpt lat="44.74431" lon="5.4558">
        <ele>1560</ele>
        <time>2011-07-22T05:44:22.000Z</time>
      </trkpt>
      <trkpt lat="44.74426" lon="5.45586">
        <ele>1560.4000244141</ele>
        <time>2011-07-22T05:44:27.000Z</time>
      </trkpt>
      <trkpt lat="44.74424" lon="5.45587">
        <ele>1561</ele>
        <time>2011-07-22T05:44:32.000Z</time>
      </trkpt>
      <trkpt lat="44.74421" lon="5.45584">
        <ele>1561.1999511719</ele>
        <time>2011-07-22T05:44:34.000Z</time>
      </trkpt>
      <trkpt lat="44.74416" lon="5.45581">
        <ele>1562</ele>
        <time>2011-07-22T05:44:36.000Z</time>
      </trkpt>
      <trkpt lat="44.74415" lon="5.45581">
        <ele>1562.1999511719</ele>
        <time>2011-07-22T05:44:37.000Z</time>
      </trkpt>
      <trkpt lat="44.74415" lon="5.45585">
        <ele>1562.4000244141</ele>
        <time>2011-07-22T05:44:39.000Z</time>
      </trkpt>
      <trkpt lat="44.74414" lon="5.45588">
        <ele>1563</ele>
        <time>2011-07-22T05:44:42.000Z</time>
      </trkpt>
      <trkpt lat="44.74413" lon="5.45589">
        <ele>1563.5999755859</ele>
        <time>2011-07-22T05:44:44.000Z</time>
      </trkpt>
      <trkpt lat="44.74411" lon="5.45592">
        <ele>1564.5999755859</ele>
        <time>2011-07-22T05:44:48.000Z</time>
      </trkpt>
      <trkpt lat="44.74411" lon="5.45593">
        <ele>1564.8000488281</ele>
        <time>2011-07-22T05:44:49.000Z</time>
      </trkpt>
      <trkpt lat="44.74406" lon="5.45597">
        <ele>1566.1999511719</ele>
        <time>2011-07-22T05:44:54.000Z</time>
      </trkpt>
      <trkpt lat="44.74405" lon="5.45598">
        <ele>1567</ele>
        <time>2011-07-22T05:44:56.000Z</time>
      </trkpt>
      <trkpt lat="44.74404" lon="5.45598">
        <ele>1567.4000244141</ele>
        <time>2011-07-22T05:44:57.000Z</time>
      </trkpt>
      <trkpt lat="44.74403" lon="5.45599">
        <ele>1568</ele>
        <time>2011-07-22T05:44:59.000Z</time>
      </trkpt>
      <trkpt lat="44.74401" lon="5.45599">
        <ele>1569.4000244141</ele>
        <time>2011-07-22T05:45:03.000Z</time>
      </trkpt>
      <trkpt lat="44.74409" lon="5.45611">
        <ele>1574.4000244141</ele>
        <time>2011-07-22T05:45:23.000Z</time>
      </trkpt>
      <trkpt lat="44.74412" lon="5.45614">
        <ele>1574.4000244141</ele>
        <time>2011-07-22T05:45:26.000Z</time>
      </trkpt>
      <trkpt lat="44.74413" lon="5.45616">
        <ele>1574.5999755859</ele>
        <time>2011-07-22T05:45:27.000Z</time>
      </trkpt>
      <trkpt lat="44.74413" lon="5.45619">
        <ele>1575</ele>
        <time>2011-07-22T05:45:30.000Z</time>
      </trkpt>
      <trkpt lat="44.74413" lon="5.4562">
        <ele>1575.1999511719</ele>
        <time>2011-07-22T05:45:31.000Z</time>
      </trkpt>
      <trkpt lat="44.74412" lon="5.45621">
        <ele>1575.5999755859</ele>
        <time>2011-07-22T05:45:33.000Z</time>
      </trkpt>
      <trkpt lat="44.74412" lon="5.45622">
        <ele>1576</ele>
        <time>2011-07-22T05:45:35.000Z</time>
      </trkpt>
      <trkpt lat="44.74413" lon="5.45624">
        <ele>1576</ele>
        <time>2011-07-22T05:45:36.000Z</time>
      </trkpt>
      <trkpt lat="44.74416" lon="5.45628">
        <ele>1576.8000488281</ele>
        <time>2011-07-22T05:45:40.000Z</time>
      </trkpt>
      <trkpt lat="44.74412" lon="5.45636">
        <ele>1581</ele>
        <time>2011-07-22T05:45:56.000Z</time>
      </trkpt>
      <trkpt lat="44.74411" lon="5.45638">
        <ele>1581.1999511719</ele>
        <time>2011-07-22T05:45:58.000Z</time>
      </trkpt>
      <trkpt lat="44.74411" lon="5.45641">
        <ele>1581.4000244141</ele>
        <time>2011-07-22T05:46:00.000Z</time>
      </trkpt>
      <trkpt lat="44.74413" lon="5.45646">
        <ele>1582.4000244141</ele>
        <time>2011-07-22T05:46:04.000Z</time>
      </trkpt>
      <trkpt lat="44.74414" lon="5.45646">
        <ele>1583</ele>
        <time>2011-07-22T05:46:06.000Z</time>
      </trkpt>
      <trkpt lat="44.74418" lon="5.45656">
        <ele>1589.5999755859</ele>
        <time>2011-07-22T05:46:30.000Z</time>
      </trkpt>
      <trkpt lat="44.74418" lon="5.45661">
        <ele>1590.1999511719</ele>
        <time>2011-07-22T05:46:33.000Z</time>
      </trkpt>
      <trkpt lat="44.74414" lon="5.45665">
        <ele>1591.1999511719</ele>
        <time>2011-07-22T05:46:37.000Z</time>
      </trkpt>
      <trkpt lat="44.74412" lon="5.45667">
        <ele>1591.8000488281</ele>
        <time>2011-07-22T05:46:40.000Z</time>
      </trkpt>
      <trkpt lat="44.74413" lon="5.45668">
        <ele>1592</ele>
        <time>2011-07-22T05:46:41.000Z</time>
      </trkpt>
      <trkpt lat="44.74413" lon="5.45669">
        <ele>1592.1999511719</ele>
        <time>2011-07-22T05:46:42.000Z</time>
      </trkpt>
      <trkpt lat="44.74416" lon="5.45673">
        <ele>1592.5999755859</ele>
        <time>2011-07-22T05:46:45.000Z</time>
      </trkpt>
      <trkpt lat="44.74417" lon="5.45673">
        <ele>1593</ele>
        <time>2011-07-22T05:46:47.000Z</time>
      </trkpt>
      <trkpt lat="44.74418" lon="5.45674">
        <ele>1593.1999511719</ele>
        <time>2011-07-22T05:46:48.000Z</time>
      </trkpt>
      <trkpt lat="44.74419" lon="5.45676">
        <ele>1593.4000244141</ele>
        <time>2011-07-22T05:46:50.000Z</time>
      </trkpt>
      <trkpt lat="44.7442" lon="5.45678">
        <ele>1593.5999755859</ele>
        <time>2011-07-22T05:46:52.000Z</time>
      </trkpt>
      <trkpt lat="44.74418" lon="5.45679">
        <ele>1594.1999511719</ele>
        <time>2011-07-22T05:46:55.000Z</time>
      </trkpt>
      <trkpt lat="44.74414" lon="5.45681">
        <ele>1595.1999511719</ele>
        <time>2011-07-22T05:47:00.000Z</time>
      </trkpt>
      <trkpt lat="44.74411" lon="5.45683">
        <ele>1595.8000488281</ele>
        <time>2011-07-22T05:47:03.000Z</time>
      </trkpt>
      <trkpt lat="44.74411" lon="5.45683">
        <ele>1596.1999511719</ele>
        <time>2011-07-22T05:47:04.000Z</time>
      </trkpt>
      <trkpt lat="44.74417" lon="5.45695">
        <ele>1597.4000244141</ele>
        <time>2011-07-22T05:47:16.000Z</time>
      </trkpt>
      <trkpt lat="44.74418" lon="5.45693">
        <ele>1598.1999511719</ele>
        <time>2011-07-22T05:47:18.000Z</time>
      </trkpt>
      <trkpt lat="44.74408" lon="5.45747">
        <ele>1626.4000244141</ele>
        <time>2011-07-22T05:48:57.000Z</time>
      </trkpt>
      <trkpt lat="44.74397" lon="5.4576">
        <ele>1634.4000244141</ele>
        <time>2011-07-22T05:49:32.000Z</time>
      </trkpt>
      <trkpt lat="44.74397" lon="5.4576">
        <ele>1634.5999755859</ele>
        <time>2011-07-22T05:49:33.000Z</time>
      </trkpt>
      <trkpt lat="44.74397" lon="5.45763">
        <ele>1634.5999755859</ele>
        <time>2011-07-22T05:49:35.000Z</time>
      </trkpt>
      <trkpt lat="44.74399" lon="5.45766">
        <ele>1634.5999755859</ele>
        <time>2011-07-22T05:49:38.000Z</time>
      </trkpt>
      <trkpt lat="44.74403" lon="5.45773">
        <ele>1634.5999755859</ele>
        <time>2011-07-22T05:49:47.000Z</time>
      </trkpt>
      <trkpt lat="44.74405" lon="5.45774">
        <ele>1634.5999755859</ele>
        <time>2011-07-22T05:49:50.000Z</time>
      </trkpt>
      <trkpt lat="44.74399" lon="5.45802">
        <ele>1665.4000244141</ele>
        <time>2011-07-22T05:51:37.000Z</time>
      </trkpt>
      <trkpt lat="44.74398" lon="5.45805">
        <ele>1666.1999511719</ele>
        <time>2011-07-22T05:51:42.000Z</time>
      </trkpt>
      <trkpt lat="44.74391" lon="5.4585">
        <ele>1683.4000244141</ele>
        <time>2011-07-22T05:53:29.000Z</time>
      </trkpt>
      <trkpt lat="44.74391" lon="5.45852">
        <ele>1683.5999755859</ele>
        <time>2011-07-22T05:53:32.000Z</time>
      </trkpt>
      <trkpt lat="44.74398" lon="5.45864">
        <ele>1683.4000244141</ele>
        <time>2011-07-22T05:53:44.000Z</time>
      </trkpt>
      <trkpt lat="44.74399" lon="5.45866">
        <ele>1683.5999755859</ele>
        <time>2011-07-22T05:53:47.000Z</time>
      </trkpt>
      <trkpt lat="44.74387" lon="5.45934">
        <ele>1720.4000244141</ele>
        <time>2011-07-22T05:56:49.000Z</time>
      </trkpt>
      <trkpt lat="44.74386" lon="5.45934">
        <ele>1720.8000488281</ele>
        <time>2011-07-22T05:56:51.000Z</time>
      </trkpt>
      <trkpt lat="44.74385" lon="5.45935">
        <ele>1721.1999511719</ele>
        <time>2011-07-22T05:56:52.000Z</time>
      </trkpt>
      <trkpt lat="44.74382" lon="5.45935">
        <ele>1721.5999755859</ele>
        <time>2011-07-22T05:56:55.000Z</time>
      </trkpt>
      <trkpt lat="44.74375" lon="5.45933">
        <ele>1722.8000488281</ele>
        <time>2011-07-22T05:57:00.000Z</time>
      </trkpt>
      <trkpt lat="44.74374" lon="5.45935">
        <ele>1722.8000488281</ele>
        <time>2011-07-22T05:57:01.000Z</time>
      </trkpt>
      <trkpt lat="44.74371" lon="5.45936">
        <ele>1723.8000488281</ele>
        <time>2011-07-22T05:57:04.000Z</time>
      </trkpt>
      <trkpt lat="44.7437" lon="5.45936">
        <ele>1724</ele>
        <time>2011-07-22T05:57:05.000Z</time>
      </trkpt>
      <trkpt lat="44.74369" lon="5.45936">
        <ele>1724.1999511719</ele>
        <time>2011-07-22T05:57:06.000Z</time>
      </trkpt>
      <trkpt lat="44.74365" lon="5.45938">
        <ele>1725.4000244141</ele>
        <time>2011-07-22T05:57:11.000Z</time>
      </trkpt>
      <trkpt lat="44.74364" lon="5.45938">
        <ele>1725.8000488281</ele>
        <time>2011-07-22T05:57:12.000Z</time>
      </trkpt>
      <trkpt lat="44.74359" lon="5.45938">
        <ele>1727.4000244141</ele>
        <time>2011-07-22T05:57:16.000Z</time>
      </trkpt>
      <trkpt lat="44.74357" lon="5.45939">
        <ele>1728</ele>
        <time>2011-07-22T05:57:18.000Z</time>
      </trkpt>
      <trkpt lat="44.74359" lon="5.45951">
        <ele>1735.8000488281</ele>
        <time>2011-07-22T05:57:45.000Z</time>
      </trkpt>
      <trkpt lat="44.74356" lon="5.45953">
        <ele>1736.4000244141</ele>
        <time>2011-07-22T05:57:49.000Z</time>
      </trkpt>
      <trkpt lat="44.7435" lon="5.45955">
        <ele>1737.4000244141</ele>
        <time>2011-07-22T05:57:54.000Z</time>
      </trkpt>
      <trkpt lat="44.74349" lon="5.45955">
        <ele>1737.8000488281</ele>
        <time>2011-07-22T05:57:55.000Z</time>
      </trkpt>
      <trkpt lat="44.74347" lon="5.45956">
        <ele>1737.8000488281</ele>
        <time>2011-07-22T05:57:57.000Z</time>
      </trkpt>
      <trkpt lat="44.74346" lon="5.45956">
        <ele>1737.8000488281</ele>
        <time>2011-07-22T05:57:58.000Z</time>
      </trkpt>
      <trkpt lat="44.74345" lon="5.45958">
        <ele>1738.5999755859</ele>
        <time>2011-07-22T05:58:03.000Z</time>
      </trkpt>
      <trkpt lat="44.74346" lon="5.45958">
        <ele>1739</ele>
        <time>2011-07-22T05:58:04.000Z</time>
      </trkpt>
      <trkpt lat="44.7435" lon="5.45962">
        <ele>1739</ele>
        <time>2011-07-22T05:58:07.000Z</time>
      </trkpt>
      <trkpt lat="44.74353" lon="5.45967">
        <ele>1739.1999511719</ele>
        <time>2011-07-22T05:58:11.000Z</time>
      </trkpt>
      <trkpt lat="44.74354" lon="5.45967">
        <ele>1739.1999511719</ele>
        <time>2011-07-22T05:58:12.000Z</time>
      </trkpt>
      <trkpt lat="44.74355" lon="5.45969">
        <ele>1739.4000244141</ele>
        <time>2011-07-22T05:58:15.000Z</time>
      </trkpt>
      <trkpt lat="44.7436" lon="5.45972">
        <ele>1739.5999755859</ele>
        <time>2011-07-22T05:58:19.000Z</time>
      </trkpt>
      <trkpt lat="44.74362" lon="5.45973">
        <ele>1739.5999755859</ele>
        <time>2011-07-22T05:58:20.000Z</time>
      </trkpt>
      <trkpt lat="44.74361" lon="5.45975">
        <ele>1739.8000488281</ele>
        <time>2011-07-22T05:58:25.000Z</time>
      </trkpt>
      <trkpt lat="44.74358" lon="5.45979">
        <ele>1740</ele>
        <time>2011-07-22T05:58:29.000Z</time>
      </trkpt>
      <trkpt lat="44.74356" lon="5.45978">
        <ele>1740.1999511719</ele>
        <time>2011-07-22T05:58:30.000Z</time>
      </trkpt>
      <trkpt lat="44.7435" lon="5.45977">
        <ele>1741.1999511719</ele>
        <time>2011-07-22T05:58:35.000Z</time>
      </trkpt>
      <trkpt lat="44.74332" lon="5.45979">
        <ele>1751.5999755859</ele>
        <time>2011-07-22T05:59:05.000Z</time>
      </trkpt>
      <trkpt lat="44.74327" lon="5.45983">
        <ele>1753</ele>
        <time>2011-07-22T05:59:09.000Z</time>
      </trkpt>
      <trkpt lat="44.74327" lon="5.45983">
        <ele>1753.1999511719</ele>
        <time>2011-07-22T05:59:10.000Z</time>
      </trkpt>
      <trkpt lat="44.74323" lon="5.45985">
        <ele>1754</ele>
        <time>2011-07-22T05:59:13.000Z</time>
      </trkpt>
      <trkpt lat="44.74323" lon="5.45985">
        <ele>1754.4000244141</ele>
        <time>2011-07-22T05:59:14.000Z</time>
      </trkpt>
      <trkpt lat="44.74323" lon="5.45988">
        <ele>1755</ele>
        <time>2011-07-22T05:59:17.000Z</time>
      </trkpt>
      <trkpt lat="44.74323" lon="5.45993">
        <ele>1755.8000488281</ele>
        <time>2011-07-22T05:59:22.000Z</time>
      </trkpt>
      <trkpt lat="44.74319" lon="5.45994">
        <ele>1756.8000488281</ele>
        <time>2011-07-22T05:59:26.000Z</time>
      </trkpt>
      <trkpt lat="44.74318" lon="5.45994">
        <ele>1757</ele>
        <time>2011-07-22T05:59:27.000Z</time>
      </trkpt>
      <trkpt lat="44.74316" lon="5.45994">
        <ele>1757.4000244141</ele>
        <time>2011-07-22T05:59:29.000Z</time>
      </trkpt>
      <trkpt lat="44.74315" lon="5.45996">
        <ele>1757.8000488281</ele>
        <time>2011-07-22T05:59:31.000Z</time>
      </trkpt>
      <trkpt lat="44.74314" lon="5.45996">
        <ele>1758.4000244141</ele>
        <time>2011-07-22T05:59:33.000Z</time>
      </trkpt>
      <trkpt lat="44.74244" lon="5.46062">
        <ele>1799</ele>
        <time>2011-07-22T06:02:29.000Z</time>
      </trkpt>
      <trkpt lat="44.74241" lon="5.46062">
        <ele>1799.4000244141</ele>
        <time>2011-07-22T06:02:31.000Z</time>
      </trkpt>
      <trkpt lat="44.74241" lon="5.46079">
        <ele>1806.5999755859</ele>
        <time>2011-07-22T06:03:17.000Z</time>
      </trkpt>
      <trkpt lat="44.74247" lon="5.46085">
        <ele>1808</ele>
        <time>2011-07-22T06:03:24.000Z</time>
      </trkpt>
      <trkpt lat="44.74255" lon="5.4609">
        <ele>1809.1999511719</ele>
        <time>2011-07-22T06:03:29.000Z</time>
      </trkpt>
      <trkpt lat="44.74256" lon="5.46092">
        <ele>1809.1999511719</ele>
        <time>2011-07-22T06:03:30.000Z</time>
      </trkpt>
      <trkpt lat="44.74258" lon="5.46095">
        <ele>1809.5999755859</ele>
        <time>2011-07-22T06:03:32.000Z</time>
      </trkpt>
      <trkpt lat="44.74255" lon="5.46096">
        <ele>1810.4000244141</ele>
        <time>2011-07-22T06:03:35.000Z</time>
      </trkpt>
      <trkpt lat="44.74249" lon="5.46097">
        <ele>1811.5999755859</ele>
        <time>2011-07-22T06:03:40.000Z</time>
      </trkpt>
      <trkpt lat="44.74245" lon="5.46098">
        <ele>1812.5999755859</ele>
        <time>2011-07-22T06:03:43.000Z</time>
      </trkpt>
      <trkpt lat="44.74243" lon="5.46099">
        <ele>1813</ele>
        <time>2011-07-22T06:03:45.000Z</time>
      </trkpt>
      <trkpt lat="44.74237" lon="5.461">
        <ele>1814.4000244141</ele>
        <time>2011-07-22T06:03:50.000Z</time>
      </trkpt>
      <trkpt lat="44.74227" lon="5.46098">
        <ele>1816.1999511719</ele>
        <time>2011-07-22T06:03:57.000Z</time>
      </trkpt>
      <trkpt lat="44.74226" lon="5.46098">
        <ele>1816.5999755859</ele>
        <time>2011-07-22T06:03:58.000Z</time>
      </trkpt>
      <trkpt lat="44.74222" lon="5.46101">
        <ele>1817.4000244141</ele>
        <time>2011-07-22T06:04:01.000Z</time>
      </trkpt>
      <trkpt lat="44.7422" lon="5.46099">
        <ele>1818.4000244141</ele>
        <time>2011-07-22T06:04:03.000Z</time>
      </trkpt>
      <trkpt lat="44.74214" lon="5.46101">
        <ele>1820</ele>
        <time>2011-07-22T06:04:08.000Z</time>
      </trkpt>
      <trkpt lat="44.74211" lon="5.46102">
        <ele>1821</ele>
        <time>2011-07-22T06:04:11.000Z</time>
      </trkpt>
      <trkpt lat="44.74213" lon="5.46103">
        <ele>1822.1999511719</ele>
        <time>2011-07-22T06:04:14.000Z</time>
      </trkpt>
      <trkpt lat="44.74201" lon="5.46109">
        <ele>1831</ele>
        <time>2011-07-22T06:05:56.000Z</time>
      </trkpt>
      <trkpt lat="44.742" lon="5.46109">
        <ele>1831</ele>
        <time>2011-07-22T06:05:57.000Z</time>
      </trkpt>
      <trkpt lat="44.74199" lon="5.4611">
        <ele>1831</ele>
        <time>2011-07-22T06:05:58.000Z</time>
      </trkpt>
      <trkpt lat="44.74187" lon="5.46114">
        <ele>1831.8000488281</ele>
        <time>2011-07-22T06:06:13.000Z</time>
      </trkpt>
      <trkpt lat="44.74183" lon="5.46115">
        <ele>1832.1999511719</ele>
        <time>2011-07-22T06:06:15.000Z</time>
      </trkpt>
      <trkpt lat="44.74178" lon="5.46117">
        <ele>1832.4000244141</ele>
        <time>2011-07-22T06:06:18.000Z</time>
      </trkpt>
      <trkpt lat="44.74177" lon="5.46117">
        <ele>1832.4000244141</ele>
        <time>2011-07-22T06:06:19.000Z</time>
      </trkpt>
      <trkpt lat="44.74166" lon="5.46122">
        <ele>1833</ele>
        <time>2011-07-22T06:06:26.000Z</time>
      </trkpt>
      <trkpt lat="44.74158" lon="5.46127">
        <ele>1833.1999511719</ele>
        <time>2011-07-22T06:06:32.000Z</time>
      </trkpt>
      <trkpt lat="44.7416" lon="5.46135">
        <ele>1834</ele>
        <time>2011-07-22T06:06:38.000Z</time>
      </trkpt>
      <trkpt lat="44.74161" lon="5.46137">
        <ele>1834.1999511719</ele>
        <time>2011-07-22T06:06:39.000Z</time>
      </trkpt>
      <trkpt lat="44.74163" lon="5.46138">
        <ele>1834.1999511719</ele>
        <time>2011-07-22T06:06:40.000Z</time>
      </trkpt>
      <trkpt lat="44.74166" lon="5.46141">
        <ele>1834.5999755859</ele>
        <time>2011-07-22T06:06:43.000Z</time>
      </trkpt>
      <trkpt lat="44.74168" lon="5.46142">
        <ele>1834.5999755859</ele>
        <time>2011-07-22T06:06:44.000Z</time>
      </trkpt>
      <trkpt lat="44.74174" lon="5.46148">
        <ele>1836.4000244141</ele>
        <time>2011-07-22T06:06:50.000Z</time>
      </trkpt>
      <trkpt lat="44.74175" lon="5.46149">
        <ele>1836.5999755859</ele>
        <time>2011-07-22T06:06:51.000Z</time>
      </trkpt>
      <trkpt lat="44.74178" lon="5.46152">
        <ele>1837.5999755859</ele>
        <time>2011-07-22T06:06:54.000Z</time>
      </trkpt>
      <trkpt lat="44.7418" lon="5.46152">
        <ele>1837.8000488281</ele>
        <time>2011-07-22T06:06:55.000Z</time>
      </trkpt>
      <trkpt lat="44.74189" lon="5.46159">
        <ele>1839.4000244141</ele>
        <time>2011-07-22T06:07:01.000Z</time>
      </trkpt>
      <trkpt lat="44.74192" lon="5.46164">
        <ele>1841.1999511719</ele>
        <time>2011-07-22T06:07:06.000Z</time>
      </trkpt>
      <trkpt lat="44.74194" lon="5.46171">
        <ele>1844.4000244141</ele>
        <time>2011-07-22T06:07:17.000Z</time>
      </trkpt>
      <trkpt lat="44.74194" lon="5.46177">
        <ele>1845.4000244141</ele>
        <time>2011-07-22T06:07:20.000Z</time>
      </trkpt>
      <trkpt lat="44.74199" lon="5.46189">
        <ele>1847.5999755859</ele>
        <time>2011-07-22T06:07:27.000Z</time>
      </trkpt>
      <trkpt lat="44.74202" lon="5.46197">
        <ele>1849.4000244141</ele>
        <time>2011-07-22T06:07:33.000Z</time>
      </trkpt>
      <trkpt lat="44.74203" lon="5.462">
        <ele>1850.1999511719</ele>
        <time>2011-07-22T06:07:35.000Z</time>
      </trkpt>
      <trkpt lat="44.7421" lon="5.46212">
        <ele>1852.4000244141</ele>
        <time>2011-07-22T06:07:42.000Z</time>
      </trkpt>
      <trkpt lat="44.74213" lon="5.46216">
        <ele>1853.4000244141</ele>
        <time>2011-07-22T06:07:45.000Z</time>
      </trkpt>
      <trkpt lat="44.74218" lon="5.46225">
        <ele>1854.8000488281</ele>
        <time>2011-07-22T06:07:50.000Z</time>
      </trkpt>
      <trkpt lat="44.74225" lon="5.46235">
        <ele>1856.5999755859</ele>
        <time>2011-07-22T06:07:56.000Z</time>
      </trkpt>
      <trkpt lat="44.74226" lon="5.46237">
        <ele>1857</ele>
        <time>2011-07-22T06:07:57.000Z</time>
      </trkpt>
      <trkpt lat="44.74234" lon="5.46247">
        <ele>1858.8000488281</ele>
        <time>2011-07-22T06:08:03.000Z</time>
      </trkpt>
      <trkpt lat="44.7424" lon="5.46255">
        <ele>1860</ele>
        <time>2011-07-22T06:08:08.000Z</time>
      </trkpt>
      <trkpt lat="44.74241" lon="5.46257">
        <ele>1860.4000244141</ele>
        <time>2011-07-22T06:08:09.000Z</time>
      </trkpt>
      <trkpt lat="44.74246" lon="5.46267">
        <ele>1862</ele>
        <time>2011-07-22T06:08:15.000Z</time>
      </trkpt>
      <trkpt lat="44.74249" lon="5.46274">
        <ele>1863.1999511719</ele>
        <time>2011-07-22T06:08:20.000Z</time>
      </trkpt>
      <trkpt lat="44.7425" lon="5.46275">
        <ele>1863.5999755859</ele>
        <time>2011-07-22T06:08:21.000Z</time>
      </trkpt>
      <trkpt lat="44.7425" lon="5.46278">
        <ele>1864</ele>
        <time>2011-07-22T06:08:23.000Z</time>
      </trkpt>
      <trkpt lat="44.74252" lon="5.46281">
        <ele>1864.5999755859</ele>
        <time>2011-07-22T06:08:25.000Z</time>
      </trkpt>
      <trkpt lat="44.74252" lon="5.46284">
        <ele>1865</ele>
        <time>2011-07-22T06:08:27.000Z</time>
      </trkpt>
      <trkpt lat="44.74253" lon="5.46292">
        <ele>1866.1999511719</ele>
        <time>2011-07-22T06:08:32.000Z</time>
      </trkpt>
      <trkpt lat="44.74253" lon="5.46295">
        <ele>1866.8000488281</ele>
        <time>2011-07-22T06:08:34.000Z</time>
      </trkpt>
      <trkpt lat="44.74253" lon="5.46296">
        <ele>1867</ele>
        <time>2011-07-22T06:08:35.000Z</time>
      </trkpt>
      <trkpt lat="44.74251" lon="5.46304">
        <ele>1868</ele>
        <time>2011-07-22T06:08:39.000Z</time>
      </trkpt>
      <trkpt lat="44.74251" lon="5.46308">
        <ele>1868.4000244141</ele>
        <time>2011-07-22T06:08:41.000Z</time>
      </trkpt>
      <trkpt lat="44.74249" lon="5.46322">
        <ele>1870.8000488281</ele>
        <time>2011-07-22T06:08:49.000Z</time>
      </trkpt>
      <trkpt lat="44.74244" lon="5.46348">
        <ele>1877.8000488281</ele>
        <time>2011-07-22T06:09:21.000Z</time>
      </trkpt>
      <trkpt lat="44.74243" lon="5.46351">
        <ele>1877.8000488281</ele>
        <time>2011-07-22T06:09:22.000Z</time>
      </trkpt>
      <trkpt lat="44.74236" lon="5.46365">
        <ele>1879.1999511719</ele>
        <time>2011-07-22T06:09:28.000Z</time>
      </trkpt>
      <trkpt lat="44.74224" lon="5.46376">
        <ele>1880.4000244141</ele>
        <time>2011-07-22T06:09:47.000Z</time>
      </trkpt>
      <trkpt lat="44.74214" lon="5.46378">
        <ele>1880.4000244141</ele>
        <time>2011-07-22T06:09:51.000Z</time>
      </trkpt>
      <trkpt lat="44.74209" lon="5.46376">
        <ele>1880.5999755859</ele>
        <time>2011-07-22T06:09:53.000Z</time>
      </trkpt>
      <trkpt lat="44.74205" lon="5.46375">
        <ele>1880.8000488281</ele>
        <time>2011-07-22T06:09:55.000Z</time>
      </trkpt>
      <trkpt lat="44.74199" lon="5.46375">
        <ele>1880.8000488281</ele>
        <time>2011-07-22T06:09:58.000Z</time>
      </trkpt>
      <trkpt lat="44.7419" lon="5.46382">
        <ele>1881.4000244141</ele>
        <time>2011-07-22T06:10:04.000Z</time>
      </trkpt>
      <trkpt lat="44.74187" lon="5.46384">
        <ele>1881.5999755859</ele>
        <time>2011-07-22T06:10:06.000Z</time>
      </trkpt>
      <trkpt lat="44.74181" lon="5.46389">
        <ele>1882.1999511719</ele>
        <time>2011-07-22T06:10:11.000Z</time>
      </trkpt>
      <trkpt lat="44.7417" lon="5.46393">
        <ele>1883</ele>
        <time>2011-07-22T06:10:19.000Z</time>
      </trkpt>
      <trkpt lat="44.74163" lon="5.46395">
        <ele>1884</ele>
        <time>2011-07-22T06:10:25.000Z</time>
      </trkpt>
      <trkpt lat="44.74156" lon="5.46402">
        <ele>1885.4000244141</ele>
        <time>2011-07-22T06:10:32.000Z</time>
      </trkpt>
      <trkpt lat="44.74156" lon="5.46405">
        <ele>1886.4000244141</ele>
        <time>2011-07-22T06:10:36.000Z</time>
      </trkpt>
      <trkpt lat="44.74157" lon="5.46407">
        <ele>1886.8000488281</ele>
        <time>2011-07-22T06:10:37.000Z</time>
      </trkpt>
      <trkpt lat="44.74161" lon="5.46416">
        <ele>1888</ele>
        <time>2011-07-22T06:10:44.000Z</time>
      </trkpt>
      <trkpt lat="44.74165" lon="5.46428">
        <ele>1889.8000488281</ele>
        <time>2011-07-22T06:10:52.000Z</time>
      </trkpt>
      <trkpt lat="44.74168" lon="5.46435">
        <ele>1891</ele>
        <time>2011-07-22T06:10:58.000Z</time>
      </trkpt>
      <trkpt lat="44.74172" lon="5.46444">
        <ele>1892.1999511719</ele>
        <time>2011-07-22T06:11:05.000Z</time>
      </trkpt>
      <trkpt lat="44.74174" lon="5.4645">
        <ele>1893.1999511719</ele>
        <time>2011-07-22T06:11:10.000Z</time>
      </trkpt>
      <trkpt lat="44.74175" lon="5.46452">
        <ele>1893.5999755859</ele>
        <time>2011-07-22T06:11:12.000Z</time>
      </trkpt>
      <trkpt lat="44.74177" lon="5.46457">
        <ele>1894.5999755859</ele>
        <time>2011-07-22T06:11:16.000Z</time>
      </trkpt>
      <trkpt lat="44.7418" lon="5.46462">
        <ele>1895.4000244141</ele>
        <time>2011-07-22T06:11:20.000Z</time>
      </trkpt>
      <trkpt lat="44.74183" lon="5.4647">
        <ele>1897.1999511719</ele>
        <time>2011-07-22T06:11:27.000Z</time>
      </trkpt>
      <trkpt lat="44.74183" lon="5.46472">
        <ele>1897.5999755859</ele>
        <time>2011-07-22T06:11:29.000Z</time>
      </trkpt>
      <trkpt lat="44.74186" lon="5.46477">
        <ele>1898.8000488281</ele>
        <time>2011-07-22T06:11:34.000Z</time>
      </trkpt>
      <trkpt lat="44.74191" lon="5.46484">
        <ele>1899.8000488281</ele>
        <time>2011-07-22T06:11:39.000Z</time>
      </trkpt>
      <trkpt lat="44.74194" lon="5.46492">
        <ele>1900.8000488281</ele>
        <time>2011-07-22T06:11:45.000Z</time>
      </trkpt>
      <trkpt lat="44.74198" lon="5.46497">
        <ele>1901.5999755859</ele>
        <time>2011-07-22T06:11:51.000Z</time>
      </trkpt>
      <trkpt lat="44.74199" lon="5.46499">
        <ele>1902</ele>
        <time>2011-07-22T06:11:53.000Z</time>
      </trkpt>
      <trkpt lat="44.74206" lon="5.46511">
        <ele>1903.5999755859</ele>
        <time>2011-07-22T06:12:05.000Z</time>
      </trkpt>
      <trkpt lat="44.74207" lon="5.46512">
        <ele>1903.8000488281</ele>
        <time>2011-07-22T06:12:06.000Z</time>
      </trkpt>
      <trkpt lat="44.74208" lon="5.46516">
        <ele>1904.1999511719</ele>
        <time>2011-07-22T06:12:09.000Z</time>
      </trkpt>
      <trkpt lat="44.74199" lon="5.46508">
        <ele>1920.5999755859</ele>
        <time>2011-07-22T06:17:21.000Z</time>
      </trkpt>
      <trkpt lat="44.74198" lon="5.46501">
        <ele>1920.5999755859</ele>
        <time>2011-07-22T06:17:25.000Z</time>
      </trkpt>
      <trkpt lat="44.74193" lon="5.46491">
        <ele>1919.4000244141</ele>
        <time>2011-07-22T06:17:43.000Z</time>
      </trkpt>
      <trkpt lat="44.7419" lon="5.46488">
        <ele>1919</ele>
        <time>2011-07-22T06:17:45.000Z</time>
      </trkpt>
      <trkpt lat="44.74188" lon="5.46485">
        <ele>1918.8000488281</ele>
        <time>2011-07-22T06:17:47.000Z</time>
      </trkpt>
      <trkpt lat="44.74187" lon="5.46483">
        <ele>1918.5999755859</ele>
        <time>2011-07-22T06:17:48.000Z</time>
      </trkpt>
      <trkpt lat="44.7418" lon="5.46473">
        <ele>1917.8000488281</ele>
        <time>2011-07-22T06:17:53.000Z</time>
      </trkpt>
      <trkpt lat="44.74179" lon="5.46471">
        <ele>1917.5999755859</ele>
        <time>2011-07-22T06:17:54.000Z</time>
      </trkpt>
      <trkpt lat="44.74178" lon="5.46468">
        <ele>1917.5999755859</ele>
        <time>2011-07-22T06:17:55.000Z</time>
      </trkpt>
      <trkpt lat="44.74177" lon="5.46463">
        <ele>1917</ele>
        <time>2011-07-22T06:17:57.000Z</time>
      </trkpt>
      <trkpt lat="44.74174" lon="5.46458">
        <ele>1916.5999755859</ele>
        <time>2011-07-22T06:18:00.000Z</time>
      </trkpt>
      <trkpt lat="44.74174" lon="5.46457">
        <ele>1916.1999511719</ele>
        <time>2011-07-22T06:18:02.000Z</time>
      </trkpt>
      <trkpt lat="44.7415" lon="5.46398">
        <ele>1903.4000244141</ele>
        <time>2011-07-22T06:19:28.000Z</time>
      </trkpt>
      <trkpt lat="44.74149" lon="5.46394">
        <ele>1903.1999511719</ele>
        <time>2011-07-22T06:19:30.000Z</time>
      </trkpt>
      <trkpt lat="44.74147" lon="5.4638">
        <ele>1902.1999511719</ele>
        <time>2011-07-22T06:19:36.000Z</time>
      </trkpt>
      <trkpt lat="44.74147" lon="5.46376">
        <ele>1901.8000488281</ele>
        <time>2011-07-22T06:19:38.000Z</time>
      </trkpt>
      <trkpt lat="44.74149" lon="5.46373">
        <ele>1901.4000244141</ele>
        <time>2011-07-22T06:19:40.000Z</time>
      </trkpt>
      <trkpt lat="44.74149" lon="5.46371">
        <ele>1901.1999511719</ele>
        <time>2011-07-22T06:19:41.000Z</time>
      </trkpt>
      <trkpt lat="44.74149" lon="5.46371">
        <ele>1901.1999511719</ele>
        <time>2011-07-22T06:19:42.000Z</time>
      </trkpt>
      <trkpt lat="44.74155" lon="5.46369">
        <ele>1900.1999511719</ele>
        <time>2011-07-22T06:19:47.000Z</time>
      </trkpt>
      <trkpt lat="44.74166" lon="5.4637">
        <ele>1899.1999511719</ele>
        <time>2011-07-22T06:19:51.000Z</time>
      </trkpt>
      <trkpt lat="44.74172" lon="5.46369">
        <ele>1898.5999755859</ele>
        <time>2011-07-22T06:19:53.000Z</time>
      </trkpt>
      <trkpt lat="44.74184" lon="5.46366">
        <ele>1897.5999755859</ele>
        <time>2011-07-22T06:19:57.000Z</time>
      </trkpt>
      <trkpt lat="44.74186" lon="5.46365">
        <ele>1897.4000244141</ele>
        <time>2011-07-22T06:19:58.000Z</time>
      </trkpt>
      <trkpt lat="44.74197" lon="5.46357">
        <ele>1896</ele>
        <time>2011-07-22T06:20:04.000Z</time>
      </trkpt>
      <trkpt lat="44.74199" lon="5.46355">
        <ele>1895.5999755859</ele>
        <time>2011-07-22T06:20:05.000Z</time>
      </trkpt>
      <trkpt lat="44.74199" lon="5.46352">
        <ele>1895.4000244141</ele>
        <time>2011-07-22T06:20:06.000Z</time>
      </trkpt>
      <trkpt lat="44.74202" lon="5.46346">
        <ele>1894.8000488281</ele>
        <time>2011-07-22T06:20:08.000Z</time>
      </trkpt>
      <trkpt lat="44.74205" lon="5.46345">
        <ele>1893.8000488281</ele>
        <time>2011-07-22T06:20:12.000Z</time>
      </trkpt>
      <trkpt lat="44.74213" lon="5.46343">
        <ele>1892.8000488281</ele>
        <time>2011-07-22T06:20:16.000Z</time>
      </trkpt>
      <trkpt lat="44.74215" lon="5.46343">
        <ele>1892.4000244141</ele>
        <time>2011-07-22T06:20:17.000Z</time>
      </trkpt>
      <trkpt lat="44.74222" lon="5.46335">
        <ele>1891.5999755859</ele>
        <time>2011-07-22T06:20:21.000Z</time>
      </trkpt>
      <trkpt lat="44.74231" lon="5.46329">
        <ele>1890.5999755859</ele>
        <time>2011-07-22T06:20:26.000Z</time>
      </trkpt>
      <trkpt lat="44.74232" lon="5.46329">
        <ele>1890.4000244141</ele>
        <time>2011-07-22T06:20:27.000Z</time>
      </trkpt>
      <trkpt lat="44.74234" lon="5.46328">
        <ele>1890.1999511719</ele>
        <time>2011-07-22T06:20:28.000Z</time>
      </trkpt>
      <trkpt lat="44.74239" lon="5.4632">
        <ele>1889.5999755859</ele>
        <time>2011-07-22T06:20:31.000Z</time>
      </trkpt>
      <trkpt lat="44.74241" lon="5.46311">
        <ele>1889</ele>
        <time>2011-07-22T06:20:35.000Z</time>
      </trkpt>
      <trkpt lat="44.74247" lon="5.46304">
        <ele>1877.1999511719</ele>
        <time>2011-07-22T06:22:37.000Z</time>
      </trkpt>
      <trkpt lat="44.74249" lon="5.46297">
        <ele>1877.1999511719</ele>
        <time>2011-07-22T06:22:39.000Z</time>
      </trkpt>
      <trkpt lat="44.74251" lon="5.46279">
        <ele>1877</ele>
        <time>2011-07-22T06:22:44.000Z</time>
      </trkpt>
      <trkpt lat="44.74253" lon="5.46276">
        <ele>1877</ele>
        <time>2011-07-22T06:22:45.000Z</time>
      </trkpt>
      <trkpt lat="44.74257" lon="5.4626">
        <ele>1876.8000488281</ele>
        <time>2011-07-22T06:22:50.000Z</time>
      </trkpt>
      <trkpt lat="44.74256" lon="5.46253">
        <ele>1876.8000488281</ele>
        <time>2011-07-22T06:22:53.000Z</time>
      </trkpt>
      <trkpt lat="44.74257" lon="5.46249">
        <ele>1876.8000488281</ele>
        <time>2011-07-22T06:22:56.000Z</time>
      </trkpt>
      <trkpt lat="44.7425" lon="5.46229">
        <ele>1867.5999755859</ele>
        <time>2011-07-22T06:28:00.000Z</time>
      </trkpt>
      <trkpt lat="44.74251" lon="5.46225">
        <ele>1867.5999755859</ele>
        <time>2011-07-22T06:28:01.000Z</time>
      </trkpt>
      <trkpt lat="44.74253" lon="5.46209">
        <ele>1867.4000244141</ele>
        <time>2011-07-22T06:28:06.000Z</time>
      </trkpt>
      <trkpt lat="44.74255" lon="5.46203">
        <ele>1867.4000244141</ele>
        <time>2011-07-22T06:28:08.000Z</time>
      </trkpt>
      <trkpt lat="44.74256" lon="5.46198">
        <ele>1867.1999511719</ele>
        <time>2011-07-22T06:28:10.000Z</time>
      </trkpt>
      <trkpt lat="44.74257" lon="5.46196">
        <ele>1867.1999511719</ele>
        <time>2011-07-22T06:28:11.000Z</time>
      </trkpt>
      <trkpt lat="44.74255" lon="5.46192">
        <ele>1866.8000488281</ele>
        <time>2011-07-22T06:28:14.000Z</time>
      </trkpt>
      <trkpt lat="44.74249" lon="5.46182">
        <ele>1865.1999511719</ele>
        <time>2011-07-22T06:28:26.000Z</time>
      </trkpt>
      <trkpt lat="44.74248" lon="5.46178">
        <ele>1864.8000488281</ele>
        <time>2011-07-22T06:28:28.000Z</time>
      </trkpt>
      <trkpt lat="44.74247" lon="5.4617">
        <ele>1864</ele>
        <time>2011-07-22T06:28:33.000Z</time>
      </trkpt>
      <trkpt lat="44.74246" lon="5.46164">
        <ele>1863</ele>
        <time>2011-07-22T06:28:38.000Z</time>
      </trkpt>
      <trkpt lat="44.74245" lon="5.46157">
        <ele>1862.1999511719</ele>
        <time>2011-07-22T06:28:41.000Z</time>
      </trkpt>
      <trkpt lat="44.74245" lon="5.46154">
        <ele>1862</ele>
        <time>2011-07-22T06:28:42.000Z</time>
      </trkpt>
      <trkpt lat="44.74245" lon="5.46153">
        <ele>1861.8000488281</ele>
        <time>2011-07-22T06:28:43.000Z</time>
      </trkpt>
      <trkpt lat="44.74244" lon="5.46144">
        <ele>1860.8000488281</ele>
        <time>2011-07-22T06:28:47.000Z</time>
      </trkpt>
      <trkpt lat="44.74244" lon="5.46143">
        <ele>1860.5999755859</ele>
        <time>2011-07-22T06:28:48.000Z</time>
      </trkpt>
      <trkpt lat="44.74244" lon="5.46141">
        <ele>1860.1999511719</ele>
        <time>2011-07-22T06:28:50.000Z</time>
      </trkpt>
      <trkpt lat="44.74245" lon="5.4614">
        <ele>1859.8000488281</ele>
        <time>2011-07-22T06:28:51.000Z</time>
      </trkpt>
      <trkpt lat="44.74247" lon="5.46132">
        <ele>1858.5999755859</ele>
        <time>2011-07-22T06:28:56.000Z</time>
      </trkpt>
      <trkpt lat="44.74247" lon="5.46131">
        <ele>1858.4000244141</ele>
        <time>2011-07-22T06:28:57.000Z</time>
      </trkpt>
      <trkpt lat="44.74251" lon="5.46126">
        <ele>1856.8000488281</ele>
        <time>2011-07-22T06:29:02.000Z</time>
      </trkpt>
      <trkpt lat="44.74251" lon="5.46123">
        <ele>1856.4000244141</ele>
        <time>2011-07-22T06:29:03.000Z</time>
      </trkpt>
      <trkpt lat="44.7425" lon="5.46117">
        <ele>1855.1999511719</ele>
        <time>2011-07-22T06:29:07.000Z</time>
      </trkpt>
      <trkpt lat="44.74247" lon="5.4611">
        <ele>1853.8000488281</ele>
        <time>2011-07-22T06:29:11.000Z</time>
      </trkpt>
      <trkpt lat="44.74247" lon="5.46108">
        <ele>1853.4000244141</ele>
        <time>2011-07-22T06:29:12.000Z</time>
      </trkpt>
      <trkpt lat="44.74245" lon="5.46104">
        <ele>1852.8000488281</ele>
        <time>2011-07-22T06:29:14.000Z</time>
      </trkpt>
      <trkpt lat="44.74245" lon="5.46102">
        <ele>1852.4000244141</ele>
        <time>2011-07-22T06:29:15.000Z</time>
      </trkpt>
      <trkpt lat="44.74243" lon="5.46099">
        <ele>1851.4000244141</ele>
        <time>2011-07-22T06:29:18.000Z</time>
      </trkpt>
      <trkpt lat="44.74243" lon="5.46098">
        <ele>1851</ele>
        <time>2011-07-22T06:29:19.000Z</time>
      </trkpt>
      <trkpt lat="44.74248" lon="5.46097">
        <ele>1849.8000488281</ele>
        <time>2011-07-22T06:29:22.000Z</time>
      </trkpt>
      <trkpt lat="44.7425" lon="5.46098">
        <ele>1849.1999511719</ele>
        <time>2011-07-22T06:29:24.000Z</time>
      </trkpt>
      <trkpt lat="44.74256" lon="5.46095">
        <ele>1846.5999755859</ele>
        <time>2011-07-22T06:29:33.000Z</time>
      </trkpt>
      <trkpt lat="44.74258" lon="5.46095">
        <ele>1846</ele>
        <time>2011-07-22T06:29:35.000Z</time>
      </trkpt>
      <trkpt lat="44.74249" lon="5.46086">
        <ele>1833.4000244141</ele>
        <time>2011-07-22T06:30:47.000Z</time>
      </trkpt>
      <trkpt lat="44.74247" lon="5.46084">
        <ele>1833.1999511719</ele>
        <time>2011-07-22T06:30:48.000Z</time>
      </trkpt>
      <trkpt lat="44.74241" lon="5.46077">
        <ele>1832.1999511719</ele>
        <time>2011-07-22T06:30:52.000Z</time>
      </trkpt>
      <trkpt lat="44.74237" lon="5.46073">
        <ele>1831.4000244141</ele>
        <time>2011-07-22T06:30:55.000Z</time>
      </trkpt>
      <trkpt lat="44.74233" lon="5.46069">
        <ele>1831</ele>
        <time>2011-07-22T06:30:57.000Z</time>
      </trkpt>
      <trkpt lat="44.74232" lon="5.46067">
        <ele>1830.8000488281</ele>
        <time>2011-07-22T06:30:58.000Z</time>
      </trkpt>
      <trkpt lat="44.74234" lon="5.46061">
        <ele>1830</ele>
        <time>2011-07-22T06:31:01.000Z</time>
      </trkpt>
      <trkpt lat="44.74244" lon="5.46062">
        <ele>1828.8000488281</ele>
        <time>2011-07-22T06:31:05.000Z</time>
      </trkpt>
      <trkpt lat="44.74246" lon="5.46061">
        <ele>1828.5999755859</ele>
        <time>2011-07-22T06:31:06.000Z</time>
      </trkpt>
      <trkpt lat="44.74251" lon="5.46055">
        <ele>1827.5999755859</ele>
        <time>2011-07-22T06:31:09.000Z</time>
      </trkpt>
      <trkpt lat="44.74259" lon="5.46051">
        <ele>1826.1999511719</ele>
        <time>2011-07-22T06:31:13.000Z</time>
      </trkpt>
      <trkpt lat="44.74263" lon="5.46049">
        <ele>1825</ele>
        <time>2011-07-22T06:31:16.000Z</time>
      </trkpt>
      <trkpt lat="44.74265" lon="5.46048">
        <ele>1824.5999755859</ele>
        <time>2011-07-22T06:31:17.000Z</time>
      </trkpt>
      <trkpt lat="44.74266" lon="5.46047">
        <ele>1824.1999511719</ele>
        <time>2011-07-22T06:31:18.000Z</time>
      </trkpt>
      <trkpt lat="44.74268" lon="5.46046">
        <ele>1823.8000488281</ele>
        <time>2011-07-22T06:31:19.000Z</time>
      </trkpt>
      <trkpt lat="44.74273" lon="5.46042">
        <ele>1822.5999755859</ele>
        <time>2011-07-22T06:31:22.000Z</time>
      </trkpt>
      <trkpt lat="44.74278" lon="5.46038">
        <ele>1821.4000244141</ele>
        <time>2011-07-22T06:31:25.000Z</time>
      </trkpt>
      <trkpt lat="44.74282" lon="5.46036">
        <ele>1820.5999755859</ele>
        <time>2011-07-22T06:31:27.000Z</time>
      </trkpt>
      <trkpt lat="44.74289" lon="5.46032">
        <ele>1818.5999755859</ele>
        <time>2011-07-22T06:31:32.000Z</time>
      </trkpt>
      <trkpt lat="44.74288" lon="5.46031">
        <ele>1818.1999511719</ele>
        <time>2011-07-22T06:31:33.000Z</time>
      </trkpt>
      <trkpt lat="44.74285" lon="5.46029">
        <ele>1817.4000244141</ele>
        <time>2011-07-22T06:31:35.000Z</time>
      </trkpt>
      <trkpt lat="44.74283" lon="5.46027">
        <ele>1817</ele>
        <time>2011-07-22T06:31:36.000Z</time>
      </trkpt>
      <trkpt lat="44.74281" lon="5.46025">
        <ele>1816.5999755859</ele>
        <time>2011-07-22T06:31:37.000Z</time>
      </trkpt>
      <trkpt lat="44.74278" lon="5.4602">
        <ele>1815.4000244141</ele>
        <time>2011-07-22T06:31:40.000Z</time>
      </trkpt>
      <trkpt lat="44.74279" lon="5.46018">
        <ele>1815</ele>
        <time>2011-07-22T06:31:41.000Z</time>
      </trkpt>
      <trkpt lat="44.74285" lon="5.46019">
        <ele>1814</ele>
        <time>2011-07-22T06:31:43.000Z</time>
      </trkpt>
      <trkpt lat="44.74288" lon="5.46017">
        <ele>1813.1999511719</ele>
        <time>2011-07-22T06:31:45.000Z</time>
      </trkpt>
      <trkpt lat="44.74291" lon="5.46012">
        <ele>1812</ele>
        <time>2011-07-22T06:31:48.000Z</time>
      </trkpt>
      <trkpt lat="44.74297" lon="5.46006">
        <ele>1810.4000244141</ele>
        <time>2011-07-22T06:31:52.000Z</time>
      </trkpt>
      <trkpt lat="44.74302" lon="5.46002">
        <ele>1809.1999511719</ele>
        <time>2011-07-22T06:31:55.000Z</time>
      </trkpt>
      <trkpt lat="44.74309" lon="5.45997">
        <ele>1807.8000488281</ele>
        <time>2011-07-22T06:31:58.000Z</time>
      </trkpt>
      <trkpt lat="44.74319" lon="5.4599">
        <ele>1805.5999755859</ele>
        <time>2011-07-22T06:32:03.000Z</time>
      </trkpt>
      <trkpt lat="44.74324" lon="5.45986">
        <ele>1804.1999511719</ele>
        <time>2011-07-22T06:32:06.000Z</time>
      </trkpt>
      <trkpt lat="44.74324" lon="5.45985">
        <ele>1803.8000488281</ele>
        <time>2011-07-22T06:32:07.000Z</time>
      </trkpt>
      <trkpt lat="44.74332" lon="5.4598">
        <ele>1801.5999755859</ele>
        <time>2011-07-22T06:32:12.000Z</time>
      </trkpt>
      <trkpt lat="44.74335" lon="5.4598">
        <ele>1801</ele>
        <time>2011-07-22T06:32:13.000Z</time>
      </trkpt>
      <trkpt lat="44.74337" lon="5.45979">
        <ele>1800.5999755859</ele>
        <time>2011-07-22T06:32:14.000Z</time>
      </trkpt>
      <trkpt lat="44.74345" lon="5.45974">
        <ele>1798.8000488281</ele>
        <time>2011-07-22T06:32:18.000Z</time>
      </trkpt>
      <trkpt lat="44.74353" lon="5.45974">
        <ele>1796.8000488281</ele>
        <time>2011-07-22T06:32:22.000Z</time>
      </trkpt>
      <trkpt lat="44.74355" lon="5.45973">
        <ele>1796.4000244141</ele>
        <time>2011-07-22T06:32:23.000Z</time>
      </trkpt>
      <trkpt lat="44.7436" lon="5.45973">
        <ele>1794.8000488281</ele>
        <time>2011-07-22T06:32:26.000Z</time>
      </trkpt>
      <trkpt lat="44.7436" lon="5.45972">
        <ele>1794.4000244141</ele>
        <time>2011-07-22T06:32:27.000Z</time>
      </trkpt>
      <trkpt lat="44.74353" lon="5.45967">
        <ele>1792.4000244141</ele>
        <time>2011-07-22T06:32:31.000Z</time>
      </trkpt>
      <trkpt lat="44.74348" lon="5.45963">
        <ele>1791.5999755859</ele>
        <time>2011-07-22T06:32:33.000Z</time>
      </trkpt>
      <trkpt lat="44.74345" lon="5.4596">
        <ele>1790.5999755859</ele>
        <time>2011-07-22T06:32:35.000Z</time>
      </trkpt>
      <trkpt lat="44.74349" lon="5.45955">
        <ele>1788.5999755859</ele>
        <time>2011-07-22T06:32:39.000Z</time>
      </trkpt>
      <trkpt lat="44.74355" lon="5.45951">
        <ele>1786.5999755859</ele>
        <time>2011-07-22T06:32:43.000Z</time>
      </trkpt>
      <trkpt lat="44.74354" lon="5.45944">
        <ele>1784.5999755859</ele>
        <time>2011-07-22T06:32:47.000Z</time>
      </trkpt>
      <trkpt lat="44.74356" lon="5.45939">
        <ele>1782.8000488281</ele>
        <time>2011-07-22T06:32:51.000Z</time>
      </trkpt>
      <trkpt lat="44.7436" lon="5.4594">
        <ele>1781.4000244141</ele>
        <time>2011-07-22T06:32:54.000Z</time>
      </trkpt>
      <trkpt lat="44.7436" lon="5.4594">
        <ele>1780.8000488281</ele>
        <time>2011-07-22T06:32:55.000Z</time>
      </trkpt>
      <trkpt lat="44.74364" lon="5.45939">
        <ele>1778.8000488281</ele>
        <time>2011-07-22T06:32:59.000Z</time>
      </trkpt>
      <trkpt lat="44.74369" lon="5.45936">
        <ele>1777.4000244141</ele>
        <time>2011-07-22T06:33:02.000Z</time>
      </trkpt>
      <trkpt lat="44.7438" lon="5.45937">
        <ele>1775.4000244141</ele>
        <time>2011-07-22T06:33:06.000Z</time>
      </trkpt>
      <trkpt lat="44.74387" lon="5.45932">
        <ele>1773.5999755859</ele>
        <time>2011-07-22T06:33:10.000Z</time>
      </trkpt>
      <trkpt lat="44.7439" lon="5.45929">
        <ele>1772.5999755859</ele>
        <time>2011-07-22T06:33:12.000Z</time>
      </trkpt>
      <trkpt lat="44.74392" lon="5.45928">
        <ele>1772.1999511719</ele>
        <time>2011-07-22T06:33:13.000Z</time>
      </trkpt>
      <trkpt lat="44.74394" lon="5.45929">
        <ele>1771.5999755859</ele>
        <time>2011-07-22T06:33:14.000Z</time>
      </trkpt>
      <trkpt lat="44.74396" lon="5.45928">
        <ele>1771.1999511719</ele>
        <time>2011-07-22T06:33:15.000Z</time>
      </trkpt>
      <trkpt lat="44.74403" lon="5.45924">
        <ele>1769.5999755859</ele>
        <time>2011-07-22T06:33:19.000Z</time>
      </trkpt>
      <trkpt lat="44.74405" lon="5.45926">
        <ele>1769</ele>
        <time>2011-07-22T06:33:20.000Z</time>
      </trkpt>
      <trkpt lat="44.74414" lon="5.45926">
        <ele>1767</ele>
        <time>2011-07-22T06:33:24.000Z</time>
      </trkpt>
      <trkpt lat="44.74419" lon="5.45925">
        <ele>1765.5999755859</ele>
        <time>2011-07-22T06:33:27.000Z</time>
      </trkpt>
      <trkpt lat="44.74421" lon="5.45923">
        <ele>1764.8000488281</ele>
        <time>2011-07-22T06:33:29.000Z</time>
      </trkpt>
      <trkpt lat="44.74423" lon="5.45922">
        <ele>1764.1999511719</ele>
        <time>2011-07-22T06:33:30.000Z</time>
      </trkpt>
      <trkpt lat="44.74429" lon="5.45923">
        <ele>1762.5999755859</ele>
        <time>2011-07-22T06:33:33.000Z</time>
      </trkpt>
      <trkpt lat="44.7443" lon="5.45922">
        <ele>1762.1999511719</ele>
        <time>2011-07-22T06:33:34.000Z</time>
      </trkpt>
      <trkpt lat="44.74431" lon="5.45922">
        <ele>1761.5999755859</ele>
        <time>2011-07-22T06:33:35.000Z</time>
      </trkpt>
      <trkpt lat="44.74435" lon="5.45919">
        <ele>1760.1999511719</ele>
        <time>2011-07-22T06:33:38.000Z</time>
      </trkpt>
      <trkpt lat="44.74441" lon="5.45918">
        <ele>1758.1999511719</ele>
        <time>2011-07-22T06:33:42.000Z</time>
      </trkpt>
      <trkpt lat="44.74447" lon="5.45915">
        <ele>1756.1999511719</ele>
        <time>2011-07-22T06:33:46.000Z</time>
      </trkpt>
      <trkpt lat="44.74448" lon="5.45914">
        <ele>1755.8000488281</ele>
        <time>2011-07-22T06:33:47.000Z</time>
      </trkpt>
      <trkpt lat="44.7445" lon="5.45911">
        <ele>1753.8000488281</ele>
        <time>2011-07-22T06:33:51.000Z</time>
      </trkpt>
      <trkpt lat="44.74454" lon="5.45863">
        <ele>1704.8000488281</ele>
        <time>2011-07-22T06:39:09.000Z</time>
      </trkpt>
      <trkpt lat="44.74453" lon="5.4586">
        <ele>1704.5999755859</ele>
        <time>2011-07-22T06:39:10.000Z</time>
      </trkpt>
      <trkpt lat="44.74452" lon="5.45855">
        <ele>1704.4000244141</ele>
        <time>2011-07-22T06:39:12.000Z</time>
      </trkpt>
      <trkpt lat="44.74454" lon="5.45845">
        <ele>1702.5999755859</ele>
        <time>2011-07-22T06:39:21.000Z</time>
      </trkpt>
      <trkpt lat="44.74453" lon="5.45844">
        <ele>1702.4000244141</ele>
        <time>2011-07-22T06:39:22.000Z</time>
      </trkpt>
      <trkpt lat="44.74454" lon="5.45842">
        <ele>1701.8000488281</ele>
        <time>2011-07-22T06:39:24.000Z</time>
      </trkpt>
      <trkpt lat="44.74454" lon="5.45839">
        <ele>1701.4000244141</ele>
        <time>2011-07-22T06:39:26.000Z</time>
      </trkpt>
      <trkpt lat="44.74454" lon="5.45835">
        <ele>1700.1999511719</ele>
        <time>2011-07-22T06:39:30.000Z</time>
      </trkpt>
      <trkpt lat="44.74454" lon="5.45833">
        <ele>1700</ele>
        <time>2011-07-22T06:39:31.000Z</time>
      </trkpt>
      <trkpt lat="44.74453" lon="5.45829">
        <ele>1699</ele>
        <time>2011-07-22T06:39:35.000Z</time>
      </trkpt>
      <trkpt lat="44.74454" lon="5.45828">
        <ele>1698</ele>
        <time>2011-07-22T06:39:38.000Z</time>
      </trkpt>
      <trkpt lat="44.74455" lon="5.45827">
        <ele>1697.4000244141</ele>
        <time>2011-07-22T06:39:40.000Z</time>
      </trkpt>
      <trkpt lat="44.74456" lon="5.45827">
        <ele>1697.1999511719</ele>
        <time>2011-07-22T06:39:41.000Z</time>
      </trkpt>
      <trkpt lat="44.74458" lon="5.45827">
        <ele>1696.8000488281</ele>
        <time>2011-07-22T06:39:42.000Z</time>
      </trkpt>
      <trkpt lat="44.74458" lon="5.45823">
        <ele>1695.8000488281</ele>
        <time>2011-07-22T06:39:45.000Z</time>
      </trkpt>
      <trkpt lat="44.74453" lon="5.45819">
        <ele>1694.1999511719</ele>
        <time>2011-07-22T06:39:52.000Z</time>
      </trkpt>
      <trkpt lat="44.74451" lon="5.45815">
        <ele>1693.5999755859</ele>
        <time>2011-07-22T06:39:55.000Z</time>
      </trkpt>
      <trkpt lat="44.74448" lon="5.45808">
        <ele>1692.4000244141</ele>
        <time>2011-07-22T06:39:59.000Z</time>
      </trkpt>
      <trkpt lat="44.7444" lon="5.458">
        <ele>1690.8000488281</ele>
        <time>2011-07-22T06:40:04.000Z</time>
      </trkpt>
      <trkpt lat="44.74437" lon="5.45795">
        <ele>1690.1999511719</ele>
        <time>2011-07-22T06:40:06.000Z</time>
      </trkpt>
      <trkpt lat="44.74434" lon="5.45791">
        <ele>1689.5999755859</ele>
        <time>2011-07-22T06:40:08.000Z</time>
      </trkpt>
      <trkpt lat="44.74432" lon="5.45783">
        <ele>1687.8000488281</ele>
        <time>2011-07-22T06:40:13.000Z</time>
      </trkpt>
      <trkpt lat="44.7443" lon="5.45777">
        <ele>1687.1999511719</ele>
        <time>2011-07-22T06:40:15.000Z</time>
      </trkpt>
      <trkpt lat="44.74427" lon="5.45773">
        <ele>1686.4000244141</ele>
        <time>2011-07-22T06:40:17.000Z</time>
      </trkpt>
      <trkpt lat="44.74426" lon="5.4577">
        <ele>1686.1999511719</ele>
        <time>2011-07-22T06:40:18.000Z</time>
      </trkpt>
      <trkpt lat="44.74419" lon="5.45763">
        <ele>1685.1999511719</ele>
        <time>2011-07-22T06:40:21.000Z</time>
      </trkpt>
      <trkpt lat="44.74416" lon="5.45758">
        <ele>1684.4000244141</ele>
        <time>2011-07-22T06:40:23.000Z</time>
      </trkpt>
      <trkpt lat="44.74411" lon="5.45752">
        <ele>1683.4000244141</ele>
        <time>2011-07-22T06:40:26.000Z</time>
      </trkpt>
      <trkpt lat="44.74405" lon="5.45747">
        <ele>1681.8000488281</ele>
        <time>2011-07-22T06:40:30.000Z</time>
      </trkpt>
      <trkpt lat="44.74403" lon="5.45743">
        <ele>1680.8000488281</ele>
        <time>2011-07-22T06:40:33.000Z</time>
      </trkpt>
      <trkpt lat="44.74404" lon="5.45741">
        <ele>1680.4000244141</ele>
        <time>2011-07-22T06:40:34.000Z</time>
      </trkpt>
      <trkpt lat="44.74409" lon="5.45737">
        <ele>1679.1999511719</ele>
        <time>2011-07-22T06:40:37.000Z</time>
      </trkpt>
      <trkpt lat="44.7441" lon="5.45737">
        <ele>1678.5999755859</ele>
        <time>2011-07-22T06:40:38.000Z</time>
      </trkpt>
      <trkpt lat="44.74409" lon="5.45731">
        <ele>1677</ele>
        <time>2011-07-22T06:40:42.000Z</time>
      </trkpt>
      <trkpt lat="44.74416" lon="5.45728">
        <ele>1675.1999511719</ele>
        <time>2011-07-22T06:40:46.000Z</time>
      </trkpt>
      <trkpt lat="44.74417" lon="5.45728">
        <ele>1674.8000488281</ele>
        <time>2011-07-22T06:40:47.000Z</time>
      </trkpt>
      <trkpt lat="44.74419" lon="5.45729">
        <ele>1674.4000244141</ele>
        <time>2011-07-22T06:40:48.000Z</time>
      </trkpt>
      <trkpt lat="44.74423" lon="5.45725">
        <ele>1673</ele>
        <time>2011-07-22T06:40:51.000Z</time>
      </trkpt>
      <trkpt lat="44.74425" lon="5.45719">
        <ele>1670.5999755859</ele>
        <time>2011-07-22T06:40:56.000Z</time>
      </trkpt>
      <trkpt lat="44.74424" lon="5.45717">
        <ele>1670.1999511719</ele>
        <time>2011-07-22T06:40:57.000Z</time>
      </trkpt>
      <trkpt lat="44.74422" lon="5.45715">
        <ele>1669.8000488281</ele>
        <time>2011-07-22T06:40:58.000Z</time>
      </trkpt>
      <trkpt lat="44.74419" lon="5.45708">
        <ele>1668.4000244141</ele>
        <time>2011-07-22T06:41:01.000Z</time>
      </trkpt>
      <trkpt lat="44.74417" lon="5.45698">
        <ele>1666</ele>
        <time>2011-07-22T06:41:06.000Z</time>
      </trkpt>
      <trkpt lat="44.74414" lon="5.45691">
        <ele>1663.5999755859</ele>
        <time>2011-07-22T06:41:11.000Z</time>
      </trkpt>
      <trkpt lat="44.74408" lon="5.45684">
        <ele>1661.1999511719</ele>
        <time>2011-07-22T06:41:16.000Z</time>
      </trkpt>
      <trkpt lat="44.74413" lon="5.45679">
        <ele>1659</ele>
        <time>2011-07-22T06:41:20.000Z</time>
      </trkpt>
      <trkpt lat="44.74413" lon="5.45678">
        <ele>1658.5999755859</ele>
        <time>2011-07-22T06:41:21.000Z</time>
      </trkpt>
      <trkpt lat="44.74414" lon="5.45674">
        <ele>1657</ele>
        <time>2011-07-22T06:41:24.000Z</time>
      </trkpt>
      <trkpt lat="44.74413" lon="5.45673">
        <ele>1656.4000244141</ele>
        <time>2011-07-22T06:41:25.000Z</time>
      </trkpt>
      <trkpt lat="44.74411" lon="5.45665">
        <ele>1654.4000244141</ele>
        <time>2011-07-22T06:41:29.000Z</time>
      </trkpt>
      <trkpt lat="44.74414" lon="5.45656">
        <ele>1652.1999511719</ele>
        <time>2011-07-22T06:41:33.000Z</time>
      </trkpt>
      <trkpt lat="44.74414" lon="5.45653">
        <ele>1650</ele>
        <time>2011-07-22T06:41:37.000Z</time>
      </trkpt>
      <trkpt lat="44.74414" lon="5.45652">
        <ele>1649.4000244141</ele>
        <time>2011-07-22T06:41:38.000Z</time>
      </trkpt>
      <trkpt lat="44.74408" lon="5.45645">
        <ele>1646.8000488281</ele>
        <time>2011-07-22T06:41:43.000Z</time>
      </trkpt>
      <trkpt lat="44.74413" lon="5.45637">
        <ele>1644</ele>
        <time>2011-07-22T06:41:48.000Z</time>
      </trkpt>
      <trkpt lat="44.74414" lon="5.45636">
        <ele>1643.4000244141</ele>
        <time>2011-07-22T06:41:49.000Z</time>
      </trkpt>
      <trkpt lat="44.74413" lon="5.4563">
        <ele>1641.8000488281</ele>
        <time>2011-07-22T06:41:52.000Z</time>
      </trkpt>
      <trkpt lat="44.74411" lon="5.45622">
        <ele>1639.4000244141</ele>
        <time>2011-07-22T06:41:56.000Z</time>
      </trkpt>
      <trkpt lat="44.74412" lon="5.45621">
        <ele>1638.8000488281</ele>
        <time>2011-07-22T06:41:57.000Z</time>
      </trkpt>
      <trkpt lat="44.74412" lon="5.4562">
        <ele>1638.4000244141</ele>
        <time>2011-07-22T06:41:58.000Z</time>
      </trkpt>
      <trkpt lat="44.74411" lon="5.45617">
        <ele>1637.1999511719</ele>
        <time>2011-07-22T06:42:00.000Z</time>
      </trkpt>
      <trkpt lat="44.74409" lon="5.45616">
        <ele>1636</ele>
        <time>2011-07-22T06:42:02.000Z</time>
      </trkpt>
      <trkpt lat="44.74404" lon="5.45612">
        <ele>1634.5999755859</ele>
        <time>2011-07-22T06:42:05.000Z</time>
      </trkpt>
      <trkpt lat="44.74402" lon="5.45608">
        <ele>1632.8000488281</ele>
        <time>2011-07-22T06:42:08.000Z</time>
      </trkpt>
      <trkpt lat="44.74405" lon="5.45598">
        <ele>1630.5999755859</ele>
        <time>2011-07-22T06:42:12.000Z</time>
      </trkpt>
      <trkpt lat="44.74409" lon="5.45594">
        <ele>1628.8000488281</ele>
        <time>2011-07-22T06:42:15.000Z</time>
      </trkpt>
      <trkpt lat="44.74411" lon="5.45593">
        <ele>1628.1999511719</ele>
        <time>2011-07-22T06:42:16.000Z</time>
      </trkpt>
      <trkpt lat="44.74413" lon="5.45591">
        <ele>1627</ele>
        <time>2011-07-22T06:42:18.000Z</time>
      </trkpt>
      <trkpt lat="44.74411" lon="5.45585">
        <ele>1625.4000244141</ele>
        <time>2011-07-22T06:42:21.000Z</time>
      </trkpt>
      <trkpt lat="44.74414" lon="5.45586">
        <ele>1624.1999511719</ele>
        <time>2011-07-22T06:42:23.000Z</time>
      </trkpt>
      <trkpt lat="44.74417" lon="5.45585">
        <ele>1623</ele>
        <time>2011-07-22T06:42:25.000Z</time>
      </trkpt>
      <trkpt lat="44.74425" lon="5.45576">
        <ele>1619.5999755859</ele>
        <time>2011-07-22T06:42:31.000Z</time>
      </trkpt>
      <trkpt lat="44.74432" lon="5.45573">
        <ele>1617.1999511719</ele>
        <time>2011-07-22T06:42:35.000Z</time>
      </trkpt>
      <trkpt lat="44.74432" lon="5.4557">
        <ele>1616</ele>
        <time>2011-07-22T06:42:37.000Z</time>
      </trkpt>
      <trkpt lat="44.74437" lon="5.45563">
        <ele>1612.8000488281</ele>
        <time>2011-07-22T06:42:42.000Z</time>
      </trkpt>
      <trkpt lat="44.74435" lon="5.45555">
        <ele>1610.5999755859</ele>
        <time>2011-07-22T06:42:46.000Z</time>
      </trkpt>
      <trkpt lat="44.74433" lon="5.45552">
        <ele>1609.4000244141</ele>
        <time>2011-07-22T06:42:48.000Z</time>
      </trkpt>
      <trkpt lat="44.74432" lon="5.45551">
        <ele>1608.8000488281</ele>
        <time>2011-07-22T06:42:49.000Z</time>
      </trkpt>
      <trkpt lat="44.74431" lon="5.45546">
        <ele>1607.5999755859</ele>
        <time>2011-07-22T06:42:51.000Z</time>
      </trkpt>
      <trkpt lat="44.74426" lon="5.45532">
        <ele>1604</ele>
        <time>2011-07-22T06:42:57.000Z</time>
      </trkpt>
      <trkpt lat="44.74423" lon="5.45528">
        <ele>1602.8000488281</ele>
        <time>2011-07-22T06:42:59.000Z</time>
      </trkpt>
      <trkpt lat="44.74422" lon="5.45526">
        <ele>1602.1999511719</ele>
        <time>2011-07-22T06:43:00.000Z</time>
      </trkpt>
      <trkpt lat="44.7442" lon="5.45522">
        <ele>1601</ele>
        <time>2011-07-22T06:43:02.000Z</time>
      </trkpt>
      <trkpt lat="44.74417" lon="5.45516">
        <ele>1599.1999511719</ele>
        <time>2011-07-22T06:43:05.000Z</time>
      </trkpt>
      <trkpt lat="44.74415" lon="5.45512">
        <ele>1598</ele>
        <time>2011-07-22T06:43:07.000Z</time>
      </trkpt>
      <trkpt lat="44.74413" lon="5.45507">
        <ele>1596.8000488281</ele>
        <time>2011-07-22T06:43:09.000Z</time>
      </trkpt>
      <trkpt lat="44.7441" lon="5.45501">
        <ele>1595</ele>
        <time>2011-07-22T06:43:12.000Z</time>
      </trkpt>
      <trkpt lat="44.74408" lon="5.45498">
        <ele>1593.8000488281</ele>
        <time>2011-07-22T06:43:14.000Z</time>
      </trkpt>
      <trkpt lat="44.74401" lon="5.45495">
        <ele>1591.8000488281</ele>
        <time>2011-07-22T06:43:17.000Z</time>
      </trkpt>
      <trkpt lat="44.74399" lon="5.45495">
        <ele>1591.1999511719</ele>
        <time>2011-07-22T06:43:18.000Z</time>
      </trkpt>
      <trkpt lat="44.74389" lon="5.45492">
        <ele>1588.5999755859</ele>
        <time>2011-07-22T06:43:22.000Z</time>
      </trkpt>
      <trkpt lat="44.7438" lon="5.45492">
        <ele>1586.8000488281</ele>
        <time>2011-07-22T06:43:25.000Z</time>
      </trkpt>
      <trkpt lat="44.74377" lon="5.45492">
        <ele>1585.5999755859</ele>
        <time>2011-07-22T06:43:27.000Z</time>
      </trkpt>
      <trkpt lat="44.74376" lon="5.45492">
        <ele>1584.8000488281</ele>
        <time>2011-07-22T06:43:28.000Z</time>
      </trkpt>
      <trkpt lat="44.74374" lon="5.45487">
        <ele>1583</ele>
        <time>2011-07-22T06:43:31.000Z</time>
      </trkpt>
      <trkpt lat="44.74375" lon="5.45485">
        <ele>1582.4000244141</ele>
        <time>2011-07-22T06:43:32.000Z</time>
      </trkpt>
      <trkpt lat="44.74375" lon="5.45484">
        <ele>1581.8000488281</ele>
        <time>2011-07-22T06:43:33.000Z</time>
      </trkpt>
      <trkpt lat="44.74375" lon="5.4548">
        <ele>1580</ele>
        <time>2011-07-22T06:43:36.000Z</time>
      </trkpt>
      <trkpt lat="44.74376" lon="5.45472">
        <ele>1578.1999511719</ele>
        <time>2011-07-22T06:43:39.000Z</time>
      </trkpt>
      <trkpt lat="44.74376" lon="5.45469">
        <ele>1577.5999755859</ele>
        <time>2011-07-22T06:43:40.000Z</time>
      </trkpt>
      <trkpt lat="44.74379" lon="5.45459">
        <ele>1575.1999511719</ele>
        <time>2011-07-22T06:43:44.000Z</time>
      </trkpt>
      <trkpt lat="44.74379" lon="5.45457">
        <ele>1574.5999755859</ele>
        <time>2011-07-22T06:43:45.000Z</time>
      </trkpt>
      <trkpt lat="44.74374" lon="5.45451">
        <ele>1572.4000244141</ele>
        <time>2011-07-22T06:43:49.000Z</time>
      </trkpt>
      <trkpt lat="44.74372" lon="5.4545">
        <ele>1571.8000488281</ele>
        <time>2011-07-22T06:43:50.000Z</time>
      </trkpt>
      <trkpt lat="44.74365" lon="5.45445">
        <ele>1568.8000488281</ele>
        <time>2011-07-22T06:43:55.000Z</time>
      </trkpt>
      <trkpt lat="44.74358" lon="5.45442">
        <ele>1565.8000488281</ele>
        <time>2011-07-22T06:44:00.000Z</time>
      </trkpt>
      <trkpt lat="44.74357" lon="5.45438">
        <ele>1564</ele>
        <time>2011-07-22T06:44:03.000Z</time>
      </trkpt>
      <trkpt lat="44.74358" lon="5.45434">
        <ele>1562.8000488281</ele>
        <time>2011-07-22T06:44:05.000Z</time>
      </trkpt>
      <trkpt lat="44.74358" lon="5.45432">
        <ele>1562.1999511719</ele>
        <time>2011-07-22T06:44:06.000Z</time>
      </trkpt>
      <trkpt lat="44.74357" lon="5.4543">
        <ele>1560.5999755859</ele>
        <time>2011-07-22T06:44:09.000Z</time>
      </trkpt>
      <trkpt lat="44.74356" lon="5.45429">
        <ele>1560</ele>
        <time>2011-07-22T06:44:10.000Z</time>
      </trkpt>
      <trkpt lat="44.74352" lon="5.45422">
        <ele>1558.1999511719</ele>
        <time>2011-07-22T06:44:13.000Z</time>
      </trkpt>
      <trkpt lat="44.7435" lon="5.4542">
        <ele>1557.8000488281</ele>
        <time>2011-07-22T06:44:14.000Z</time>
      </trkpt>
      <trkpt lat="44.7435" lon="5.45411">
        <ele>1554.8000488281</ele>
        <time>2011-07-22T06:44:19.000Z</time>
      </trkpt>
      <trkpt lat="44.74352" lon="5.45403">
        <ele>1551.8000488281</ele>
        <time>2011-07-22T06:44:24.000Z</time>
      </trkpt>
      <trkpt lat="44.74351" lon="5.45401">
        <ele>1551.1999511719</ele>
        <time>2011-07-22T06:44:25.000Z</time>
      </trkpt>
      <trkpt lat="44.74347" lon="5.45396">
        <ele>1550.1999511719</ele>
        <time>2011-07-22T06:44:27.000Z</time>
      </trkpt>
      <trkpt lat="44.74345" lon="5.45393">
        <ele>1549.5999755859</ele>
        <time>2011-07-22T06:44:28.000Z</time>
      </trkpt>
      <trkpt lat="44.7434" lon="5.45382">
        <ele>1547.1999511719</ele>
        <time>2011-07-22T06:44:32.000Z</time>
      </trkpt>
      <trkpt lat="44.74338" lon="5.4538">
        <ele>1546.5999755859</ele>
        <time>2011-07-22T06:44:33.000Z</time>
      </trkpt>
      <trkpt lat="44.7433" lon="5.4537">
        <ele>1543.5999755859</ele>
        <time>2011-07-22T06:44:38.000Z</time>
      </trkpt>
      <trkpt lat="44.74324" lon="5.45363">
        <ele>1541.4000244141</ele>
        <time>2011-07-22T06:44:42.000Z</time>
      </trkpt>
      <trkpt lat="44.74324" lon="5.4536">
        <ele>1540.8000488281</ele>
        <time>2011-07-22T06:44:43.000Z</time>
      </trkpt>
      <trkpt lat="44.7432" lon="5.45354">
        <ele>1539.4000244141</ele>
        <time>2011-07-22T06:44:46.000Z</time>
      </trkpt>
      <trkpt lat="44.74316" lon="5.45351">
        <ele>1538.4000244141</ele>
        <time>2011-07-22T06:44:48.000Z</time>
      </trkpt>
      <trkpt lat="44.74313" lon="5.45341">
        <ele>1536.4000244141</ele>
        <time>2011-07-22T06:44:52.000Z</time>
      </trkpt>
      <trkpt lat="44.74314" lon="5.4534">
        <ele>1536</ele>
        <time>2011-07-22T06:44:53.000Z</time>
      </trkpt>
      <trkpt lat="44.74313" lon="5.45338">
        <ele>1535.4000244141</ele>
        <time>2011-07-22T06:44:54.000Z</time>
      </trkpt>
      <trkpt lat="44.74316" lon="5.45339">
        <ele>1534</ele>
        <time>2011-07-22T06:44:57.000Z</time>
      </trkpt>
      <trkpt lat="44.74327" lon="5.45332">
        <ele>1530.5999755859</ele>
        <time>2011-07-22T06:45:03.000Z</time>
      </trkpt>
      <trkpt lat="44.74341" lon="5.45325">
        <ele>1527.1999511719</ele>
        <time>2011-07-22T06:45:09.000Z</time>
      </trkpt>
      <trkpt lat="44.74345" lon="5.45323">
        <ele>1526.5999755859</ele>
        <time>2011-07-22T06:45:10.000Z</time>
      </trkpt>
      <trkpt lat="44.74356" lon="5.45318">
        <ele>1524.8000488281</ele>
        <time>2011-07-22T06:45:13.000Z</time>
      </trkpt>
      <trkpt lat="44.74363" lon="5.45314">
        <ele>1523.5999755859</ele>
        <time>2011-07-22T06:45:15.000Z</time>
      </trkpt>
      <trkpt lat="44.7437" lon="5.45309">
        <ele>1521.8000488281</ele>
        <time>2011-07-22T06:45:18.000Z</time>
      </trkpt>
      <trkpt lat="44.74375" lon="5.45302">
        <ele>1519.8000488281</ele>
        <time>2011-07-22T06:45:21.000Z</time>
      </trkpt>
      <trkpt lat="44.74376" lon="5.45299">
        <ele>1519</ele>
        <time>2011-07-22T06:45:22.000Z</time>
      </trkpt>
      <trkpt lat="44.74378" lon="5.45296">
        <ele>1518.4000244141</ele>
        <time>2011-07-22T06:45:23.000Z</time>
      </trkpt>
      <trkpt lat="44.74383" lon="5.45285">
        <ele>1515.5999755859</ele>
        <time>2011-07-22T06:45:27.000Z</time>
      </trkpt>
      <trkpt lat="44.74384" lon="5.45282">
        <ele>1515</ele>
        <time>2011-07-22T06:45:28.000Z</time>
      </trkpt>
      <trkpt lat="44.74383" lon="5.45279">
        <ele>1514.4000244141</ele>
        <time>2011-07-22T06:45:29.000Z</time>
      </trkpt>
      <trkpt lat="44.74381" lon="5.45273">
        <ele>1513</ele>
        <time>2011-07-22T06:45:31.000Z</time>
      </trkpt>
      <trkpt lat="44.74381" lon="5.45262">
        <ele>1510</ele>
        <time>2011-07-22T06:45:35.000Z</time>
      </trkpt>
      <trkpt lat="44.7438" lon="5.45256">
        <ele>1507.4000244141</ele>
        <time>2011-07-22T06:45:39.000Z</time>
      </trkpt>
      <trkpt lat="44.74379" lon="5.45259">
        <ele>1490.1999511719</ele>
        <time>2011-07-22T06:46:09.000Z</time>
      </trkpt>
      <trkpt lat="44.74376" lon="5.45259">
        <ele>1489.5999755859</ele>
        <time>2011-07-22T06:46:10.000Z</time>
      </trkpt>
      <trkpt lat="44.74363" lon="5.45254">
        <ele>1487.4000244141</ele>
        <time>2011-07-22T06:46:15.000Z</time>
      </trkpt>
      <trkpt lat="44.74361" lon="5.45252">
        <ele>1486.8000488281</ele>
        <time>2011-07-22T06:46:16.000Z</time>
      </trkpt>
      <trkpt lat="44.74358" lon="5.45249">
        <ele>1485.8000488281</ele>
        <time>2011-07-22T06:46:18.000Z</time>
      </trkpt>
      <trkpt lat="44.74355" lon="5.45245">
        <ele>1484.8000488281</ele>
        <time>2011-07-22T06:46:20.000Z</time>
      </trkpt>
      <trkpt lat="44.74348" lon="5.45237">
        <ele>1483.4000244141</ele>
        <time>2011-07-22T06:46:23.000Z</time>
      </trkpt>
      <trkpt lat="44.74345" lon="5.45234">
        <ele>1483</ele>
        <time>2011-07-22T06:46:24.000Z</time>
      </trkpt>
      <trkpt lat="44.74342" lon="5.45231">
        <ele>1482.5999755859</ele>
        <time>2011-07-22T06:46:25.000Z</time>
      </trkpt>
      <trkpt lat="44.74332" lon="5.45219">
        <ele>1480.1999511719</ele>
        <time>2011-07-22T06:46:30.000Z</time>
      </trkpt>
      <trkpt lat="44.74329" lon="5.45216">
        <ele>1479.5999755859</ele>
        <time>2011-07-22T06:46:31.000Z</time>
      </trkpt>
      <trkpt lat="44.74323" lon="5.45207">
        <ele>1478.1999511719</ele>
        <time>2011-07-22T06:46:34.000Z</time>
      </trkpt>
      <trkpt lat="44.74315" lon="5.45197">
        <ele>1476.1999511719</ele>
        <time>2011-07-22T06:46:38.000Z</time>
      </trkpt>
      <trkpt lat="44.74311" lon="5.45191">
        <ele>1474.4000244141</ele>
        <time>2011-07-22T06:46:41.000Z</time>
      </trkpt>
      <trkpt lat="44.74312" lon="5.45189">
        <ele>1474</ele>
        <time>2011-07-22T06:46:42.000Z</time>
      </trkpt>
      <trkpt lat="44.74311" lon="5.45182">
        <ele>1472.1999511719</ele>
        <time>2011-07-22T06:46:45.000Z</time>
      </trkpt>
      <trkpt lat="44.74312" lon="5.45179">
        <ele>1471.8000488281</ele>
        <time>2011-07-22T06:46:46.000Z</time>
      </trkpt>
      <trkpt lat="44.74316" lon="5.45176">
        <ele>1470.5999755859</ele>
        <time>2011-07-22T06:46:48.000Z</time>
      </trkpt>
      <trkpt lat="44.74318" lon="5.45174">
        <ele>1470</ele>
        <time>2011-07-22T06:46:49.000Z</time>
      </trkpt>
      <trkpt lat="44.74319" lon="5.45171">
        <ele>1469.4000244141</ele>
        <time>2011-07-22T06:46:50.000Z</time>
      </trkpt>
      <trkpt lat="44.74325" lon="5.45167">
        <ele>1467.5999755859</ele>
        <time>2011-07-22T06:46:53.000Z</time>
      </trkpt>
      <trkpt lat="44.74327" lon="5.45166">
        <ele>1467</ele>
        <time>2011-07-22T06:46:54.000Z</time>
      </trkpt>
      <trkpt lat="44.74333" lon="5.45167">
        <ele>1465.8000488281</ele>
        <time>2011-07-22T06:46:56.000Z</time>
      </trkpt>
      <trkpt lat="44.74339" lon="5.45164">
        <ele>1464</ele>
        <time>2011-07-22T06:46:59.000Z</time>
      </trkpt>
      <trkpt lat="44.7434" lon="5.45164">
        <ele>1463.4000244141</ele>
        <time>2011-07-22T06:47:00.000Z</time>
      </trkpt>
      <trkpt lat="44.74347" lon="5.45159">
        <ele>1461</ele>
        <time>2011-07-22T06:47:04.000Z</time>
      </trkpt>
      <trkpt lat="44.74345" lon="5.45155">
        <ele>1459.8000488281</ele>
        <time>2011-07-22T06:47:06.000Z</time>
      </trkpt>
      <trkpt lat="44.74345" lon="5.45153">
        <ele>1459.1999511719</ele>
        <time>2011-07-22T06:47:07.000Z</time>
      </trkpt>
      <trkpt lat="44.74346" lon="5.45142">
        <ele>1456.8000488281</ele>
        <time>2011-07-22T06:47:11.000Z</time>
      </trkpt>
      <trkpt lat="44.74346" lon="5.4514">
        <ele>1456.1999511719</ele>
        <time>2011-07-22T06:47:12.000Z</time>
      </trkpt>
      <trkpt lat="44.74349" lon="5.45134">
        <ele>1454</ele>
        <time>2011-07-22T06:47:16.000Z</time>
      </trkpt>
      <trkpt lat="44.74349" lon="5.45131">
        <ele>1453.4000244141</ele>
        <time>2011-07-22T06:47:17.000Z</time>
      </trkpt>
      <trkpt lat="44.7435" lon="5.45124">
        <ele>1451</ele>
        <time>2011-07-22T06:47:21.000Z</time>
      </trkpt>
      <trkpt lat="44.74349" lon="5.45124">
        <ele>1450.4000244141</ele>
        <time>2011-07-22T06:47:22.000Z</time>
      </trkpt>
      <trkpt lat="44.74348" lon="5.45119">
        <ele>1448.8000488281</ele>
        <time>2011-07-22T06:47:25.000Z</time>
      </trkpt>
      <trkpt lat="44.74348" lon="5.45115">
        <ele>1447.5999755859</ele>
        <time>2011-07-22T06:47:27.000Z</time>
      </trkpt>
      <trkpt lat="44.74344" lon="5.45111">
        <ele>1446.4000244141</ele>
        <time>2011-07-22T06:47:29.000Z</time>
      </trkpt>
      <trkpt lat="44.74342" lon="5.45109">
        <ele>1445.8000488281</ele>
        <time>2011-07-22T06:47:30.000Z</time>
      </trkpt>
      <trkpt lat="44.74332" lon="5.45101">
        <ele>1442.8000488281</ele>
        <time>2011-07-22T06:47:35.000Z</time>
      </trkpt>
      <trkpt lat="44.74327" lon="5.45097">
        <ele>1441.5999755859</ele>
        <time>2011-07-22T06:47:37.000Z</time>
      </trkpt>
      <trkpt lat="44.74324" lon="5.45096">
        <ele>1441</ele>
        <time>2011-07-22T06:47:38.000Z</time>
      </trkpt>
      <trkpt lat="44.74322" lon="5.45096">
        <ele>1440.4000244141</ele>
        <time>2011-07-22T06:47:39.000Z</time>
      </trkpt>
      <trkpt lat="44.74317" lon="5.45098">
        <ele>1439.1999511719</ele>
        <time>2011-07-22T06:47:41.000Z</time>
      </trkpt>
      <trkpt lat="44.7431" lon="5.45098">
        <ele>1437.4000244141</ele>
        <time>2011-07-22T06:47:44.000Z</time>
      </trkpt>
      <trkpt lat="44.74308" lon="5.45099">
        <ele>1436.8000488281</ele>
        <time>2011-07-22T06:47:45.000Z</time>
      </trkpt>
      <trkpt lat="44.74306" lon="5.45099">
        <ele>1435</ele>
        <time>2011-07-22T06:47:48.000Z</time>
      </trkpt>
      <trkpt lat="44.74297" lon="5.45087">
        <ele>1426.8000488281</ele>
        <time>2011-07-22T06:48:04.000Z</time>
      </trkpt>
      <trkpt lat="44.74296" lon="5.45085">
        <ele>1426.4000244141</ele>
        <time>2011-07-22T06:48:05.000Z</time>
      </trkpt>
      <trkpt lat="44.7429" lon="5.45079">
        <ele>1424.8000488281</ele>
        <time>2011-07-22T06:48:08.000Z</time>
      </trkpt>
      <trkpt lat="44.74282" lon="5.45075">
        <ele>1422.8000488281</ele>
        <time>2011-07-22T06:48:12.000Z</time>
      </trkpt>
      <trkpt lat="44.7428" lon="5.45073">
        <ele>1422.4000244141</ele>
        <time>2011-07-22T06:48:13.000Z</time>
      </trkpt>
      <trkpt lat="44.74271" lon="5.45067">
        <ele>1420.8000488281</ele>
        <time>2011-07-22T06:48:16.000Z</time>
      </trkpt>
      <trkpt lat="44.74262" lon="5.45061">
        <ele>1418.8000488281</ele>
        <time>2011-07-22T06:48:20.000Z</time>
      </trkpt>
      <trkpt lat="44.74256" lon="5.45056">
        <ele>1417.4000244141</ele>
        <time>2011-07-22T06:48:23.000Z</time>
      </trkpt>
      <trkpt lat="44.74252" lon="5.45055">
        <ele>1416.4000244141</ele>
        <time>2011-07-22T06:48:25.000Z</time>
      </trkpt>
      <trkpt lat="44.74246" lon="5.45052">
        <ele>1414.4000244141</ele>
        <time>2011-07-22T06:48:29.000Z</time>
      </trkpt>
      <trkpt lat="44.74245" lon="5.45051">
        <ele>1413.8000488281</ele>
        <time>2011-07-22T06:48:30.000Z</time>
      </trkpt>
      <trkpt lat="44.7424" lon="5.45047">
        <ele>1413</ele>
        <time>2011-07-22T06:48:32.000Z</time>
      </trkpt>
      <trkpt lat="44.74236" lon="5.45046">
        <ele>1411.4000244141</ele>
        <time>2011-07-22T06:48:35.000Z</time>
      </trkpt>
      <trkpt lat="44.74235" lon="5.45045">
        <ele>1410.8000488281</ele>
        <time>2011-07-22T06:48:36.000Z</time>
      </trkpt>
      <trkpt lat="44.74233" lon="5.45043">
        <ele>1409.4000244141</ele>
        <time>2011-07-22T06:48:39.000Z</time>
      </trkpt>
      <trkpt lat="44.74228" lon="5.4504">
        <ele>1407.1999511719</ele>
        <time>2011-07-22T06:48:43.000Z</time>
      </trkpt>
      <trkpt lat="44.74228" lon="5.45039">
        <ele>1406.5999755859</ele>
        <time>2011-07-22T06:48:44.000Z</time>
      </trkpt>
      <trkpt lat="44.74227" lon="5.45037">
        <ele>1405.8000488281</ele>
        <time>2011-07-22T06:48:46.000Z</time>
      </trkpt>
      <trkpt lat="44.74236" lon="5.45023">
        <ele>1396</ele>
        <time>2011-07-22T06:49:07.000Z</time>
      </trkpt>
      <trkpt lat="44.74244" lon="5.45026">
        <ele>1394</ele>
        <time>2011-07-22T06:49:11.000Z</time>
      </trkpt>
      <trkpt lat="44.74251" lon="5.45031">
        <ele>1392</ele>
        <time>2011-07-22T06:49:15.000Z</time>
      </trkpt>
      <trkpt lat="44.74253" lon="5.45032">
        <ele>1391.5999755859</ele>
        <time>2011-07-22T06:49:16.000Z</time>
      </trkpt>
      <trkpt lat="44.74257" lon="5.4503">
        <ele>1389.1999511719</ele>
        <time>2011-07-22T06:49:21.000Z</time>
      </trkpt>
      <trkpt lat="44.74258" lon="5.45031">
        <ele>1388.8000488281</ele>
        <time>2011-07-22T06:49:22.000Z</time>
      </trkpt>
      <trkpt lat="44.74263" lon="5.45028">
        <ele>1387.1999511719</ele>
        <time>2011-07-22T06:49:25.000Z</time>
      </trkpt>
      <trkpt lat="44.74264" lon="5.45024">
        <ele>1385.8000488281</ele>
        <time>2011-07-22T06:49:28.000Z</time>
      </trkpt>
      <trkpt lat="44.74263" lon="5.45019">
        <ele>1383.8000488281</ele>
        <time>2011-07-22T06:49:32.000Z</time>
      </trkpt>
      <trkpt lat="44.74263" lon="5.45017">
        <ele>1383.4000244141</ele>
        <time>2011-07-22T06:49:33.000Z</time>
      </trkpt>
      <trkpt lat="44.74261" lon="5.45013">
        <ele>1381.8000488281</ele>
        <time>2011-07-22T06:49:36.000Z</time>
      </trkpt>
      <trkpt lat="44.74259" lon="5.45008">
        <ele>1379.8000488281</ele>
        <time>2011-07-22T06:49:40.000Z</time>
      </trkpt>
      <trkpt lat="44.74258" lon="5.45006">
        <ele>1379.4000244141</ele>
        <time>2011-07-22T06:49:41.000Z</time>
      </trkpt>
      <trkpt lat="44.74255" lon="5.45004">
        <ele>1378</ele>
        <time>2011-07-22T06:49:44.000Z</time>
      </trkpt>
      <trkpt lat="44.74253" lon="5.45003">
        <ele>1377.4000244141</ele>
        <time>2011-07-22T06:49:45.000Z</time>
      </trkpt>
      <trkpt lat="44.7425" lon="5.45002">
        <ele>1377</ele>
        <time>2011-07-22T06:49:46.000Z</time>
      </trkpt>
      <trkpt lat="44.74246" lon="5.44999">
        <ele>1375.1999511719</ele>
        <time>2011-07-22T06:49:49.000Z</time>
      </trkpt>
      <trkpt lat="44.74247" lon="5.44997">
        <ele>1374.8000488281</ele>
        <time>2011-07-22T06:49:50.000Z</time>
      </trkpt>
      <trkpt lat="44.74241" lon="5.44989">
        <ele>1372.1999511719</ele>
        <time>2011-07-22T06:49:55.000Z</time>
      </trkpt>
      <trkpt lat="44.74239" lon="5.44987">
        <ele>1371.5999755859</ele>
        <time>2011-07-22T06:49:56.000Z</time>
      </trkpt>
      <trkpt lat="44.74238" lon="5.44985">
        <ele>1371.1999511719</ele>
        <time>2011-07-22T06:49:57.000Z</time>
      </trkpt>
      <trkpt lat="44.74237" lon="5.44982">
        <ele>1370.5999755859</ele>
        <time>2011-07-22T06:49:58.000Z</time>
      </trkpt>
      <trkpt lat="44.74237" lon="5.44979">
        <ele>1370.1999511719</ele>
        <time>2011-07-22T06:49:59.000Z</time>
      </trkpt>
      <trkpt lat="44.74229" lon="5.44969">
        <ele>1368.1999511719</ele>
        <time>2011-07-22T06:50:03.000Z</time>
      </trkpt>
      <trkpt lat="44.74226" lon="5.44966">
        <ele>1367.8000488281</ele>
        <time>2011-07-22T06:50:04.000Z</time>
      </trkpt>
      <trkpt lat="44.74224" lon="5.44963">
        <ele>1367.1999511719</ele>
        <time>2011-07-22T06:50:05.000Z</time>
      </trkpt>
      <trkpt lat="44.74217" lon="5.44955">
        <ele>1365.8000488281</ele>
        <time>2011-07-22T06:50:08.000Z</time>
      </trkpt>
      <trkpt lat="44.74215" lon="5.44953">
        <ele>1364.8000488281</ele>
        <time>2011-07-22T06:50:10.000Z</time>
      </trkpt>
      <trkpt lat="44.74218" lon="5.44951">
        <ele>1363.5999755859</ele>
        <time>2011-07-22T06:50:12.000Z</time>
      </trkpt>
      <trkpt lat="44.74218" lon="5.44944">
        <ele>1362.1999511719</ele>
        <time>2011-07-22T06:50:15.000Z</time>
      </trkpt>
      <trkpt lat="44.74217" lon="5.4494">
        <ele>1361.1999511719</ele>
        <time>2011-07-22T06:50:17.000Z</time>
      </trkpt>
      <trkpt lat="44.7421" lon="5.44934">
        <ele>1358.4000244141</ele>
        <time>2011-07-22T06:50:22.000Z</time>
      </trkpt>
      <trkpt lat="44.74205" lon="5.44929">
        <ele>1355.4000244141</ele>
        <time>2011-07-22T06:50:27.000Z</time>
      </trkpt>
      <trkpt lat="44.74206" lon="5.44925">
        <ele>1354.4000244141</ele>
        <time>2011-07-22T06:50:29.000Z</time>
      </trkpt>
      <trkpt lat="44.74207" lon="5.44917">
        <ele>1352.4000244141</ele>
        <time>2011-07-22T06:50:32.000Z</time>
      </trkpt>
      <trkpt lat="44.74203" lon="5.44917">
        <ele>1350.5999755859</ele>
        <time>2011-07-22T06:50:35.000Z</time>
      </trkpt>
      <trkpt lat="44.74202" lon="5.44914">
        <ele>1349.4000244141</ele>
        <time>2011-07-22T06:50:37.000Z</time>
      </trkpt>
      <trkpt lat="44.742" lon="5.44911">
        <ele>1348.8000488281</ele>
        <time>2011-07-22T06:50:38.000Z</time>
      </trkpt>
      <trkpt lat="44.74197" lon="5.44903">
        <ele>1346</ele>
        <time>2011-07-22T06:50:42.000Z</time>
      </trkpt>
      <trkpt lat="44.74192" lon="5.44892">
        <ele>1343.5999755859</ele>
        <time>2011-07-22T06:50:46.000Z</time>
      </trkpt>
      <trkpt lat="44.74191" lon="5.44886">
        <ele>1342.1999511719</ele>
        <time>2011-07-22T06:50:48.000Z</time>
      </trkpt>
      <trkpt lat="44.74192" lon="5.44883">
        <ele>1341.5999755859</ele>
        <time>2011-07-22T06:50:49.000Z</time>
      </trkpt>
      <trkpt lat="44.74192" lon="5.4488">
        <ele>1341</ele>
        <time>2011-07-22T06:50:50.000Z</time>
      </trkpt>
      <trkpt lat="44.74197" lon="5.44877">
        <ele>1338.8000488281</ele>
        <time>2011-07-22T06:50:53.000Z</time>
      </trkpt>
      <trkpt lat="44.742" lon="5.44875">
        <ele>1337.4000244141</ele>
        <time>2011-07-22T06:50:55.000Z</time>
      </trkpt>
      <trkpt lat="44.74202" lon="5.44874">
        <ele>1336.8000488281</ele>
        <time>2011-07-22T06:50:56.000Z</time>
      </trkpt>
      <trkpt lat="44.74205" lon="5.44875">
        <ele>1335.4000244141</ele>
        <time>2011-07-22T06:50:58.000Z</time>
      </trkpt>
      <trkpt lat="44.74209" lon="5.44873">
        <ele>1334</ele>
        <time>2011-07-22T06:51:00.000Z</time>
      </trkpt>
      <trkpt lat="44.74218" lon="5.44876">
        <ele>1331.8000488281</ele>
        <time>2011-07-22T06:51:03.000Z</time>
      </trkpt>
      <trkpt lat="44.74221" lon="5.44876">
        <ele>1330.5999755859</ele>
        <time>2011-07-22T06:51:05.000Z</time>
      </trkpt>
      <trkpt lat="44.74223" lon="5.44878">
        <ele>1329.8000488281</ele>
        <time>2011-07-22T06:51:06.000Z</time>
      </trkpt>
      <trkpt lat="44.74231" lon="5.44882">
        <ele>1326.5999755859</ele>
        <time>2011-07-22T06:51:11.000Z</time>
      </trkpt>
      <trkpt lat="44.7424" lon="5.44882">
        <ele>1324.5999755859</ele>
        <time>2011-07-22T06:51:14.000Z</time>
      </trkpt>
      <trkpt lat="44.74241" lon="5.44881">
        <ele>1324</ele>
        <time>2011-07-22T06:51:15.000Z</time>
      </trkpt>
      <trkpt lat="44.74246" lon="5.4488">
        <ele>1322.8000488281</ele>
        <time>2011-07-22T06:51:17.000Z</time>
      </trkpt>
      <trkpt lat="44.74255" lon="5.44874">
        <ele>1319.8000488281</ele>
        <time>2011-07-22T06:51:22.000Z</time>
      </trkpt>
      <trkpt lat="44.74258" lon="5.44871">
        <ele>1319.1999511719</ele>
        <time>2011-07-22T06:51:23.000Z</time>
      </trkpt>
      <trkpt lat="44.74263" lon="5.44869">
        <ele>1318.1999511719</ele>
        <time>2011-07-22T06:51:25.000Z</time>
      </trkpt>
      <trkpt lat="44.74269" lon="5.44867">
        <ele>1317</ele>
        <time>2011-07-22T06:51:27.000Z</time>
      </trkpt>
      <trkpt lat="44.74274" lon="5.44867">
        <ele>1316.5999755859</ele>
        <time>2011-07-22T06:51:28.000Z</time>
      </trkpt>
      <trkpt lat="44.74279" lon="5.44867">
        <ele>1316.1999511719</ele>
        <time>2011-07-22T06:51:29.000Z</time>
      </trkpt>
      <trkpt lat="44.74285" lon="5.44868">
        <ele>1315</ele>
        <time>2011-07-22T06:51:31.000Z</time>
      </trkpt>
      <trkpt lat="44.74293" lon="5.44872">
        <ele>1313.4000244141</ele>
        <time>2011-07-22T06:51:34.000Z</time>
      </trkpt>
      <trkpt lat="44.74297" lon="5.44872">
        <ele>1312.8000488281</ele>
        <time>2011-07-22T06:51:35.000Z</time>
      </trkpt>
      <trkpt lat="44.74306" lon="5.44873">
        <ele>1311</ele>
        <time>2011-07-22T06:51:39.000Z</time>
      </trkpt>
      <trkpt lat="44.74313" lon="5.44874">
        <ele>1309.4000244141</ele>
        <time>2011-07-22T06:51:42.000Z</time>
      </trkpt>
      <trkpt lat="44.74318" lon="5.44875">
        <ele>1308.1999511719</ele>
        <time>2011-07-22T06:51:44.000Z</time>
      </trkpt>
      <trkpt lat="44.74324" lon="5.44874">
        <ele>1306.8000488281</ele>
        <time>2011-07-22T06:51:47.000Z</time>
      </trkpt>
      <trkpt lat="44.74329" lon="5.4487">
        <ele>1305.4000244141</ele>
        <time>2011-07-22T06:51:50.000Z</time>
      </trkpt>
      <trkpt lat="44.74332" lon="5.44869">
        <ele>1304.8000488281</ele>
        <time>2011-07-22T06:51:51.000Z</time>
      </trkpt>
      <trkpt lat="44.74343" lon="5.44858">
        <ele>1303.1999511719</ele>
        <time>2011-07-22T06:51:55.000Z</time>
      </trkpt>
      <trkpt lat="44.74348" lon="5.44854">
        <ele>1302.1999511719</ele>
        <time>2011-07-22T06:51:57.000Z</time>
      </trkpt>
      <trkpt lat="44.7435" lon="5.44852">
        <ele>1301.8000488281</ele>
        <time>2011-07-22T06:51:58.000Z</time>
      </trkpt>
      <trkpt lat="44.74355" lon="5.44843">
        <ele>1301.1999511719</ele>
        <time>2011-07-22T06:52:00.000Z</time>
      </trkpt>
      <trkpt lat="44.74362" lon="5.44834">
        <ele>1300.4000244141</ele>
        <time>2011-07-22T06:52:02.000Z</time>
      </trkpt>
      <trkpt lat="44.74374" lon="5.44823">
        <ele>1299.4000244141</ele>
        <time>2011-07-22T06:52:05.000Z</time>
      </trkpt>
      <trkpt lat="44.74377" lon="5.4482">
        <ele>1299</ele>
        <time>2011-07-22T06:52:06.000Z</time>
      </trkpt>
      <trkpt lat="44.74386" lon="5.44814">
        <ele>1297.5999755859</ele>
        <time>2011-07-22T06:52:09.000Z</time>
      </trkpt>
      <trkpt lat="44.7439" lon="5.44813">
        <ele>1297.1999511719</ele>
        <time>2011-07-22T06:52:10.000Z</time>
      </trkpt>
      <trkpt lat="44.74393" lon="5.44813">
        <ele>1296.8000488281</ele>
        <time>2011-07-22T06:52:11.000Z</time>
      </trkpt>
      <trkpt lat="44.74397" lon="5.44812">
        <ele>1296.1999511719</ele>
        <time>2011-07-22T06:52:12.000Z</time>
      </trkpt>
      <trkpt lat="44.74404" lon="5.44806">
        <ele>1295</ele>
        <time>2011-07-22T06:52:15.000Z</time>
      </trkpt>
      <trkpt lat="44.74413" lon="5.44795">
        <ele>1292.5999755859</ele>
        <time>2011-07-22T06:52:20.000Z</time>
      </trkpt>
      <trkpt lat="44.74415" lon="5.44794">
        <ele>1292.1999511719</ele>
        <time>2011-07-22T06:52:21.000Z</time>
      </trkpt>
      <trkpt lat="44.7442" lon="5.44791">
        <ele>1290.8000488281</ele>
        <time>2011-07-22T06:52:24.000Z</time>
      </trkpt>
      <trkpt lat="44.74428" lon="5.44795">
        <ele>1288.5999755859</ele>
        <time>2011-07-22T06:52:28.000Z</time>
      </trkpt>
      <trkpt lat="44.7443" lon="5.44799">
        <ele>1287.4000244141</ele>
        <time>2011-07-22T06:52:30.000Z</time>
      </trkpt>
      <trkpt lat="44.74435" lon="5.44805">
        <ele>1285.8000488281</ele>
        <time>2011-07-22T06:52:33.000Z</time>
      </trkpt>
      <trkpt lat="44.74438" lon="5.44808">
        <ele>1284.5999755859</ele>
        <time>2011-07-22T06:52:35.000Z</time>
      </trkpt>
      <trkpt lat="44.74438" lon="5.44809">
        <ele>1284</ele>
        <time>2011-07-22T06:52:36.000Z</time>
      </trkpt>
      <trkpt lat="44.7444" lon="5.44814">
        <ele>1282.8000488281</ele>
        <time>2011-07-22T06:52:38.000Z</time>
      </trkpt>
      <trkpt lat="44.74442" lon="5.44819">
        <ele>1281</ele>
        <time>2011-07-22T06:52:41.000Z</time>
      </trkpt>
      <trkpt lat="44.74443" lon="5.4482">
        <ele>1280.4000244141</ele>
        <time>2011-07-22T06:52:42.000Z</time>
      </trkpt>
      <trkpt lat="44.74446" lon="5.44821">
        <ele>1279.1999511719</ele>
        <time>2011-07-22T06:52:44.000Z</time>
      </trkpt>
      <trkpt lat="44.74458" lon="5.4481">
        <ele>1276.1999511719</ele>
        <time>2011-07-22T06:52:49.000Z</time>
      </trkpt>
      <trkpt lat="44.7446" lon="5.4481">
        <ele>1275.8000488281</ele>
        <time>2011-07-22T06:52:50.000Z</time>
      </trkpt>
      <trkpt lat="44.74475" lon="5.44805">
        <ele>1274</ele>
        <time>2011-07-22T06:52:53.000Z</time>
      </trkpt>
      <trkpt lat="44.74477" lon="5.44801">
        <ele>1272.8000488281</ele>
        <time>2011-07-22T06:52:55.000Z</time>
      </trkpt>
      <trkpt lat="44.74479" lon="5.44799">
        <ele>1271.5999755859</ele>
        <time>2011-07-22T06:52:57.000Z</time>
      </trkpt>
      <trkpt lat="44.74482" lon="5.448">
        <ele>1270.5999755859</ele>
        <time>2011-07-22T06:52:59.000Z</time>
      </trkpt>
      <trkpt lat="44.74489" lon="5.44801">
        <ele>1268.4000244141</ele>
        <time>2011-07-22T06:53:03.000Z</time>
      </trkpt>
      <trkpt lat="44.74491" lon="5.44803">
        <ele>1267.1999511719</ele>
        <time>2011-07-22T06:53:05.000Z</time>
      </trkpt>
      <trkpt lat="44.74492" lon="5.44803">
        <ele>1265.8000488281</ele>
        <time>2011-07-22T06:53:08.000Z</time>
      </trkpt>
      <trkpt lat="44.74508" lon="5.44804">
        <ele>1241.8000488281</ele>
        <time>2011-07-22T06:54:20.000Z</time>
      </trkpt>
      <trkpt lat="44.7451" lon="5.44806">
        <ele>1241.4000244141</ele>
        <time>2011-07-22T06:54:21.000Z</time>
      </trkpt>
      <trkpt lat="44.74511" lon="5.4481">
        <ele>1241</ele>
        <time>2011-07-22T06:54:22.000Z</time>
      </trkpt>
      <trkpt lat="44.7452" lon="5.44821">
        <ele>1238.8000488281</ele>
        <time>2011-07-22T06:54:27.000Z</time>
      </trkpt>
      <trkpt lat="44.74524" lon="5.44823">
        <ele>1238</ele>
        <time>2011-07-22T06:54:29.000Z</time>
      </trkpt>
      <trkpt lat="44.74529" lon="5.44822">
        <ele>1236.5999755859</ele>
        <time>2011-07-22T06:54:32.000Z</time>
      </trkpt>
      <trkpt lat="44.74538" lon="5.44817">
        <ele>1230.8000488281</ele>
        <time>2011-07-22T06:54:47.000Z</time>
      </trkpt>
      <trkpt lat="44.7454" lon="5.44818">
        <ele>1230</ele>
        <time>2011-07-22T06:54:49.000Z</time>
      </trkpt>
      <trkpt lat="44.74541" lon="5.4482">
        <ele>1229.5999755859</ele>
        <time>2011-07-22T06:54:50.000Z</time>
      </trkpt>
      <trkpt lat="44.74541" lon="5.44822">
        <ele>1229.1999511719</ele>
        <time>2011-07-22T06:54:51.000Z</time>
      </trkpt>
      <trkpt lat="44.74545" lon="5.44827">
        <ele>1228.4000244141</ele>
        <time>2011-07-22T06:54:53.000Z</time>
      </trkpt>
      <trkpt lat="44.74554" lon="5.44836">
        <ele>1226</ele>
        <time>2011-07-22T06:54:58.000Z</time>
      </trkpt>
      <trkpt lat="44.74557" lon="5.44837">
        <ele>1225.4000244141</ele>
        <time>2011-07-22T06:54:59.000Z</time>
      </trkpt>
      <trkpt lat="44.74559" lon="5.44838">
        <ele>1225</ele>
        <time>2011-07-22T06:55:00.000Z</time>
      </trkpt>
      <trkpt lat="44.74561" lon="5.4484">
        <ele>1224.4000244141</ele>
        <time>2011-07-22T06:55:01.000Z</time>
      </trkpt>
      <trkpt lat="44.74564" lon="5.44844">
        <ele>1223.4000244141</ele>
        <time>2011-07-22T06:55:03.000Z</time>
      </trkpt>
      <trkpt lat="44.7457" lon="5.44848">
        <ele>1222.1999511719</ele>
        <time>2011-07-22T06:55:05.000Z</time>
      </trkpt>
      <trkpt lat="44.74572" lon="5.4485">
        <ele>1221.5999755859</ele>
        <time>2011-07-22T06:55:06.000Z</time>
      </trkpt>
      <trkpt lat="44.74584" lon="5.4485">
        <ele>1220.5999755859</ele>
        <time>2011-07-22T06:55:08.000Z</time>
      </trkpt>
      <trkpt lat="44.74594" lon="5.44853">
        <ele>1219.1999511719</ele>
        <time>2011-07-22T06:55:11.000Z</time>
      </trkpt>
      <trkpt lat="44.74599" lon="5.44849">
        <ele>1218.1999511719</ele>
        <time>2011-07-22T06:55:13.000Z</time>
      </trkpt>
      <trkpt lat="44.74611" lon="5.44838">
        <ele>1216.8000488281</ele>
        <time>2011-07-22T06:55:17.000Z</time>
      </trkpt>
      <trkpt lat="44.7462" lon="5.44822">
        <ele>1214.5999755859</ele>
        <time>2011-07-22T06:55:22.000Z</time>
      </trkpt>
      <trkpt lat="44.74625" lon="5.44813">
        <ele>1214</ele>
        <time>2011-07-22T06:55:24.000Z</time>
      </trkpt>
      <trkpt lat="44.74633" lon="5.44802">
        <ele>1212.8000488281</ele>
        <time>2011-07-22T06:55:27.000Z</time>
      </trkpt>
      <trkpt lat="44.74633" lon="5.44799">
        <ele>1212.4000244141</ele>
        <time>2011-07-22T06:55:28.000Z</time>
      </trkpt>
      <trkpt lat="44.74633" lon="5.44789">
        <ele>1211.5999755859</ele>
        <time>2011-07-22T06:55:30.000Z</time>
      </trkpt>
      <trkpt lat="44.74634" lon="5.44786">
        <ele>1211.1999511719</ele>
        <time>2011-07-22T06:55:31.000Z</time>
      </trkpt>
      <trkpt lat="44.74636" lon="5.44781">
        <ele>1210.5999755859</ele>
        <time>2011-07-22T06:55:32.000Z</time>
      </trkpt>
      <trkpt lat="44.74646" lon="5.44771">
        <ele>1209.4000244141</ele>
        <time>2011-07-22T06:55:35.000Z</time>
      </trkpt>
      <trkpt lat="44.74649" lon="5.44769">
        <ele>1209</ele>
        <time>2011-07-22T06:55:36.000Z</time>
      </trkpt>
      <trkpt lat="44.74659" lon="5.44774">
        <ele>1206.8000488281</ele>
        <time>2011-07-22T06:55:41.000Z</time>
      </trkpt>
      <trkpt lat="44.74664" lon="5.44779">
        <ele>1205.8000488281</ele>
        <time>2011-07-22T06:55:43.000Z</time>
      </trkpt>
      <trkpt lat="44.74671" lon="5.44783">
        <ele>1204.1999511719</ele>
        <time>2011-07-22T06:55:46.000Z</time>
      </trkpt>
      <trkpt lat="44.74678" lon="5.4478">
        <ele>1203.1999511719</ele>
        <time>2011-07-22T06:55:48.000Z</time>
      </trkpt>
      <trkpt lat="44.74682" lon="5.44778">
        <ele>1202.8000488281</ele>
        <time>2011-07-22T06:55:49.000Z</time>
      </trkpt>
      <trkpt lat="44.74688" lon="5.44775">
        <ele>1202</ele>
        <time>2011-07-22T06:55:51.000Z</time>
      </trkpt>
      <trkpt lat="44.74699" lon="5.44771">
        <ele>1200.1999511719</ele>
        <time>2011-07-22T06:55:55.000Z</time>
      </trkpt>
      <trkpt lat="44.74706" lon="5.4477">
        <ele>1199.1999511719</ele>
        <time>2011-07-22T06:55:57.000Z</time>
      </trkpt>
      <trkpt lat="44.74709" lon="5.44768">
        <ele>1198.8000488281</ele>
        <time>2011-07-22T06:55:58.000Z</time>
      </trkpt>
      <trkpt lat="44.74716" lon="5.44771">
        <ele>1197.8000488281</ele>
        <time>2011-07-22T06:56:00.000Z</time>
      </trkpt>
      <trkpt lat="44.74718" lon="5.44773">
        <ele>1197.1999511719</ele>
        <time>2011-07-22T06:56:01.000Z</time>
      </trkpt>
      <trkpt lat="44.7472" lon="5.44775">
        <ele>1196.8000488281</ele>
        <time>2011-07-22T06:56:02.000Z</time>
      </trkpt>
      <trkpt lat="44.74727" lon="5.44776">
        <ele>1195.1999511719</ele>
        <time>2011-07-22T06:56:05.000Z</time>
      </trkpt>
      <trkpt lat="44.74733" lon="5.44775">
        <ele>1194.1999511719</ele>
        <time>2011-07-22T06:56:07.000Z</time>
      </trkpt>
      <trkpt lat="44.74736" lon="5.44772">
        <ele>1193.1999511719</ele>
        <time>2011-07-22T06:56:09.000Z</time>
      </trkpt>
      <trkpt lat="44.74739" lon="5.44768">
        <ele>1192.1999511719</ele>
        <time>2011-07-22T06:56:11.000Z</time>
      </trkpt>
      <trkpt lat="44.74747" lon="5.44767">
        <ele>1190</ele>
        <time>2011-07-22T06:56:15.000Z</time>
      </trkpt>
      <trkpt lat="44.74755" lon="5.4477">
        <ele>1185.5999755859</ele>
        <time>2011-07-22T06:56:25.000Z</time>
      </trkpt>
      <trkpt lat="44.74757" lon="5.44771">
        <ele>1185</ele>
        <time>2011-07-22T06:56:26.000Z</time>
      </trkpt>
      <trkpt lat="44.74759" lon="5.44773">
        <ele>1184</ele>
        <time>2011-07-22T06:56:28.000Z</time>
      </trkpt>
      <trkpt lat="44.74761" lon="5.44773">
        <ele>1183.1999511719</ele>
        <time>2011-07-22T06:56:30.000Z</time>
      </trkpt>
      <trkpt lat="44.74764" lon="5.44774">
        <ele>1181.5999755859</ele>
        <time>2011-07-22T06:56:33.000Z</time>
      </trkpt>
      <trkpt lat="44.74766" lon="5.44774">
        <ele>1181.1999511719</ele>
        <time>2011-07-22T06:56:34.000Z</time>
      </trkpt>
      <trkpt lat="44.74772" lon="5.4478">
        <ele>1179.5999755859</ele>
        <time>2011-07-22T06:56:37.000Z</time>
      </trkpt>
      <trkpt lat="44.74773" lon="5.44783">
        <ele>1179</ele>
        <time>2011-07-22T06:56:38.000Z</time>
      </trkpt>
      <trkpt lat="44.74774" lon="5.44785">
        <ele>1178.5999755859</ele>
        <time>2011-07-22T06:56:39.000Z</time>
      </trkpt>
      <trkpt lat="44.74781" lon="5.44798">
        <ele>1175.4000244141</ele>
        <time>2011-07-22T06:56:45.000Z</time>
      </trkpt>
      <trkpt lat="44.74783" lon="5.44803">
        <ele>1174.4000244141</ele>
        <time>2011-07-22T06:56:47.000Z</time>
      </trkpt>
      <trkpt lat="44.74783" lon="5.44805">
        <ele>1173.8000488281</ele>
        <time>2011-07-22T06:56:48.000Z</time>
      </trkpt>
      <trkpt lat="44.74784" lon="5.44807">
        <ele>1172.5999755859</ele>
        <time>2011-07-22T06:56:50.000Z</time>
      </trkpt>
      <trkpt lat="44.74786" lon="5.44808">
        <ele>1172</ele>
        <time>2011-07-22T06:56:51.000Z</time>
      </trkpt>
      <trkpt lat="44.74792" lon="5.44813">
        <ele>1170</ele>
        <time>2011-07-22T06:56:54.000Z</time>
      </trkpt>
      <trkpt lat="44.74794" lon="5.44815">
        <ele>1169.1999511719</ele>
        <time>2011-07-22T06:56:55.000Z</time>
      </trkpt>
      <trkpt lat="44.74798" lon="5.44821">
        <ele>1168</ele>
        <time>2011-07-22T06:56:57.000Z</time>
      </trkpt>
      <trkpt lat="44.74805" lon="5.44829">
        <ele>1165.8000488281</ele>
        <time>2011-07-22T06:57:00.000Z</time>
      </trkpt>
      <trkpt lat="44.74813" lon="5.44838">
        <ele>1163</ele>
        <time>2011-07-22T06:57:04.000Z</time>
      </trkpt>
      <trkpt lat="44.74815" lon="5.4484">
        <ele>1162.1999511719</ele>
        <time>2011-07-22T06:57:05.000Z</time>
      </trkpt>
      <trkpt lat="44.74825" lon="5.44853">
        <ele>1158.5999755859</ele>
        <time>2011-07-22T06:57:10.000Z</time>
      </trkpt>
      <trkpt lat="44.74828" lon="5.44856">
        <ele>1158</ele>
        <time>2011-07-22T06:57:11.000Z</time>
      </trkpt>
      <trkpt lat="44.74831" lon="5.44867">
        <ele>1155.5999755859</ele>
        <time>2011-07-22T06:57:14.000Z</time>
      </trkpt>
      <trkpt lat="44.74831" lon="5.4487">
        <ele>1154.8000488281</ele>
        <time>2011-07-22T06:57:15.000Z</time>
      </trkpt>
      <trkpt lat="44.74836" lon="5.44883">
        <ele>1151.8000488281</ele>
        <time>2011-07-22T06:57:19.000Z</time>
      </trkpt>
      <trkpt lat="44.74837" lon="5.44887">
        <ele>1151</ele>
        <time>2011-07-22T06:57:20.000Z</time>
      </trkpt>
      <trkpt lat="44.74839" lon="5.44891">
        <ele>1149.5999755859</ele>
        <time>2011-07-22T06:57:22.000Z</time>
      </trkpt>
      <trkpt lat="44.74841" lon="5.44889">
        <ele>1148</ele>
        <time>2011-07-22T06:57:24.000Z</time>
      </trkpt>
      <trkpt lat="44.74847" lon="5.44889">
        <ele>1144.1999511719</ele>
        <time>2011-07-22T06:57:29.000Z</time>
      </trkpt>
      <trkpt lat="44.7485" lon="5.44894">
        <ele>1141.8000488281</ele>
        <time>2011-07-22T06:57:32.000Z</time>
      </trkpt>
      <trkpt lat="44.74851" lon="5.44895">
        <ele>1141.1999511719</ele>
        <time>2011-07-22T06:57:33.000Z</time>
      </trkpt>
      <trkpt lat="44.74853" lon="5.44891">
        <ele>1138.8000488281</ele>
        <time>2011-07-22T06:57:36.000Z</time>
      </trkpt>
      <trkpt lat="44.74855" lon="5.4489">
        <ele>1138</ele>
        <time>2011-07-22T06:57:37.000Z</time>
      </trkpt>
      <trkpt lat="44.74858" lon="5.4489">
        <ele>1136.5999755859</ele>
        <time>2011-07-22T06:57:39.000Z</time>
      </trkpt>
      <trkpt lat="44.74864" lon="5.44893">
        <ele>1134.4000244141</ele>
        <time>2011-07-22T06:57:42.000Z</time>
      </trkpt>
      <trkpt lat="44.74865" lon="5.44894">
        <ele>1133.8000488281</ele>
        <time>2011-07-22T06:57:43.000Z</time>
      </trkpt>
      <trkpt lat="44.74868" lon="5.44897">
        <ele>1132.4000244141</ele>
        <time>2011-07-22T06:57:45.000Z</time>
      </trkpt>
      <trkpt lat="44.74874" lon="5.44903">
        <ele>1129</ele>
        <time>2011-07-22T06:57:50.000Z</time>
      </trkpt>
      <trkpt lat="44.74876" lon="5.44902">
        <ele>1127.1999511719</ele>
        <time>2011-07-22T06:57:53.000Z</time>
      </trkpt>
      <trkpt lat="44.74878" lon="5.44898">
        <ele>1126.4000244141</ele>
        <time>2011-07-22T06:57:54.000Z</time>
      </trkpt>
      <trkpt lat="44.74878" lon="5.44897">
        <ele>1125.1999511719</ele>
        <time>2011-07-22T06:57:56.000Z</time>
      </trkpt>
      <trkpt lat="44.74886" lon="5.44884">
        <ele>1120.8000488281</ele>
        <time>2011-07-22T06:58:04.000Z</time>
      </trkpt>
      <trkpt lat="44.74889" lon="5.44879">
        <ele>1119.1999511719</ele>
        <time>2011-07-22T06:58:07.000Z</time>
      </trkpt>
      <trkpt lat="44.74892" lon="5.44878">
        <ele>1118.8000488281</ele>
        <time>2011-07-22T06:58:08.000Z</time>
      </trkpt>
      <trkpt lat="44.74895" lon="5.44875">
        <ele>1118.4000244141</ele>
        <time>2011-07-22T06:58:09.000Z</time>
      </trkpt>
      <trkpt lat="44.74904" lon="5.44869">
        <ele>1117.8000488281</ele>
        <time>2011-07-22T06:58:11.000Z</time>
      </trkpt>
      <trkpt lat="44.74913" lon="5.44864">
        <ele>1117.5999755859</ele>
        <time>2011-07-22T06:58:12.000Z</time>
      </trkpt>
      <trkpt lat="44.74929" lon="5.44848">
        <ele>1116.5999755859</ele>
        <time>2011-07-22T06:58:16.000Z</time>
      </trkpt>
      <trkpt lat="44.74937" lon="5.44834">
        <ele>1115.5999755859</ele>
        <time>2011-07-22T06:58:20.000Z</time>
      </trkpt>
      <trkpt lat="44.74939" lon="5.44825">
        <ele>1114.8000488281</ele>
        <time>2011-07-22T06:58:23.000Z</time>
      </trkpt>
      <trkpt lat="44.74941" lon="5.44818">
        <ele>1114.1999511719</ele>
        <time>2011-07-22T06:58:25.000Z</time>
      </trkpt>
      <trkpt lat="44.74945" lon="5.448">
        <ele>1112.5999755859</ele>
        <time>2011-07-22T06:58:30.000Z</time>
      </trkpt>
      <trkpt lat="44.74955" lon="5.44788">
        <ele>1111.1999511719</ele>
        <time>2011-07-22T06:58:34.000Z</time>
      </trkpt>
      <trkpt lat="44.74957" lon="5.44779">
        <ele>1110.4000244141</ele>
        <time>2011-07-22T06:58:36.000Z</time>
      </trkpt>
      <trkpt lat="44.74962" lon="5.44769">
        <ele>1109.1999511719</ele>
        <time>2011-07-22T06:58:39.000Z</time>
      </trkpt>
      <trkpt lat="44.74969" lon="5.44759">
        <ele>1108</ele>
        <time>2011-07-22T06:58:42.000Z</time>
      </trkpt>
      <trkpt lat="44.74971" lon="5.44751">
        <ele>1107.4000244141</ele>
        <time>2011-07-22T06:58:44.000Z</time>
      </trkpt>
      <trkpt lat="44.74978" lon="5.44735">
        <ele>1105.8000488281</ele>
        <time>2011-07-22T06:58:48.000Z</time>
      </trkpt>
      <trkpt lat="44.74982" lon="5.44716">
        <ele>1104.1999511719</ele>
        <time>2011-07-22T06:58:52.000Z</time>
      </trkpt>
      <trkpt lat="44.74984" lon="5.44709">
        <ele>1103.4000244141</ele>
        <time>2011-07-22T06:58:54.000Z</time>
      </trkpt>
      <trkpt lat="44.74986" lon="5.447">
        <ele>1102.5999755859</ele>
        <time>2011-07-22T06:58:56.000Z</time>
      </trkpt>
      <trkpt lat="44.74989" lon="5.44686">
        <ele>1101.4000244141</ele>
        <time>2011-07-22T06:58:59.000Z</time>
      </trkpt>
      <trkpt lat="44.74989" lon="5.44681">
        <ele>1101</ele>
        <time>2011-07-22T06:59:00.000Z</time>
      </trkpt>
      <trkpt lat="44.74994" lon="5.44658">
        <ele>1099.1999511719</ele>
        <time>2011-07-22T06:59:05.000Z</time>
      </trkpt>
      <trkpt lat="44.74997" lon="5.4465">
        <ele>1098.4000244141</ele>
        <time>2011-07-22T06:59:07.000Z</time>
      </trkpt>
      <trkpt lat="44.75003" lon="5.44635">
        <ele>1096.8000488281</ele>
        <time>2011-07-22T06:59:11.000Z</time>
      </trkpt>
      <trkpt lat="44.75003" lon="5.44633">
        <ele>1096.4000244141</ele>
        <time>2011-07-22T06:59:12.000Z</time>
      </trkpt>
      <trkpt lat="44.75008" lon="5.44621">
        <ele>1095</ele>
        <time>2011-07-22T06:59:16.000Z</time>
      </trkpt>
      <trkpt lat="44.75011" lon="5.44613">
        <ele>1094.1999511719</ele>
        <time>2011-07-22T06:59:18.000Z</time>
      </trkpt>
      <trkpt lat="44.75018" lon="5.44606">
        <ele>1093.1999511719</ele>
        <time>2011-07-22T06:59:21.000Z</time>
      </trkpt>
      <trkpt lat="44.75028" lon="5.44595">
        <ele>1091.8000488281</ele>
        <time>2011-07-22T06:59:25.000Z</time>
      </trkpt>
      <trkpt lat="44.75033" lon="5.44589">
        <ele>1091</ele>
        <time>2011-07-22T06:59:27.000Z</time>
      </trkpt>
      <trkpt lat="44.75044" lon="5.44578">
        <ele>1089.5999755859</ele>
        <time>2011-07-22T06:59:31.000Z</time>
      </trkpt>
      <trkpt lat="44.7506" lon="5.44564">
        <ele>1087.5999755859</ele>
        <time>2011-07-22T06:59:36.000Z</time>
      </trkpt>
      <trkpt lat="44.75064" lon="5.44556">
        <ele>1087</ele>
        <time>2011-07-22T06:59:38.000Z</time>
      </trkpt>
      <trkpt lat="44.75068" lon="5.44547">
        <ele>1086.4000244141</ele>
        <time>2011-07-22T06:59:40.000Z</time>
      </trkpt>
      <trkpt lat="44.75071" lon="5.44543">
        <ele>1086</ele>
        <time>2011-07-22T06:59:41.000Z</time>
      </trkpt>
      <trkpt lat="44.75083" lon="5.44522">
        <ele>1084.4000244141</ele>
        <time>2011-07-22T06:59:46.000Z</time>
      </trkpt>
      <trkpt lat="44.75098" lon="5.44501">
        <ele>1082.4000244141</ele>
        <time>2011-07-22T06:59:52.000Z</time>
      </trkpt>
      <trkpt lat="44.75109" lon="5.44487">
        <ele>1080.8000488281</ele>
        <time>2011-07-22T06:59:57.000Z</time>
      </trkpt>
      <trkpt lat="44.75112" lon="5.44483">
        <ele>1080.4000244141</ele>
        <time>2011-07-22T06:59:58.000Z</time>
      </trkpt>
      <trkpt lat="44.75126" lon="5.44468">
        <ele>1078.8000488281</ele>
        <time>2011-07-22T07:00:03.000Z</time>
      </trkpt>
      <trkpt lat="44.75138" lon="5.44456">
        <ele>1077</ele>
        <time>2011-07-22T07:00:08.000Z</time>
      </trkpt>
      <trkpt lat="44.75141" lon="5.44454">
        <ele>1076.5999755859</ele>
        <time>2011-07-22T07:00:09.000Z</time>
      </trkpt>
      <trkpt lat="44.75153" lon="5.44447">
        <ele>1075</ele>
        <time>2011-07-22T07:00:13.000Z</time>
      </trkpt>
      <trkpt lat="44.75159" lon="5.4444">
        <ele>1073.8000488281</ele>
        <time>2011-07-22T07:00:16.000Z</time>
      </trkpt>
      <trkpt lat="44.75161" lon="5.44438">
        <ele>1073.4000244141</ele>
        <time>2011-07-22T07:00:17.000Z</time>
      </trkpt>
      <trkpt lat="44.75169" lon="5.44431">
        <ele>1071.4000244141</ele>
        <time>2011-07-22T07:00:22.000Z</time>
      </trkpt>
      <trkpt lat="44.7517" lon="5.4443">
        <ele>1070.5999755859</ele>
        <time>2011-07-22T07:00:24.000Z</time>
      </trkpt>
      <trkpt lat="44.75162" lon="5.44427">
        <ele>1049</ele>
        <time>2011-07-22T07:01:37.000Z</time>
      </trkpt>
      <trkpt lat="44.75149" lon="5.44423">
        <ele>1048</ele>
        <time>2011-07-22T07:01:41.000Z</time>
      </trkpt>
      <trkpt lat="44.75145" lon="5.44423">
        <ele>1047.8000488281</ele>
        <time>2011-07-22T07:01:42.000Z</time>
      </trkpt>
      <trkpt lat="44.75132" lon="5.44422">
        <ele>1047</ele>
        <time>2011-07-22T07:01:45.000Z</time>
      </trkpt>
      <trkpt lat="44.75126" lon="5.44422">
        <ele>1046.4000244141</ele>
        <time>2011-07-22T07:01:47.000Z</time>
      </trkpt>
      <trkpt lat="44.75115" lon="5.44424">
        <ele>1045.5999755859</ele>
        <time>2011-07-22T07:01:50.000Z</time>
      </trkpt>
      <trkpt lat="44.75105" lon="5.44426">
        <ele>1044.8000488281</ele>
        <time>2011-07-22T07:01:53.000Z</time>
      </trkpt>
      <trkpt lat="44.75101" lon="5.44426">
        <ele>1044.4000244141</ele>
        <time>2011-07-22T07:01:54.000Z</time>
      </trkpt>
      <trkpt lat="44.75088" lon="5.44426">
        <ele>1043</ele>
        <time>2011-07-22T07:01:59.000Z</time>
      </trkpt>
      <trkpt lat="44.75085" lon="5.44427">
        <ele>1042.8000488281</ele>
        <time>2011-07-22T07:02:00.000Z</time>
      </trkpt>
      <trkpt lat="44.75071" lon="5.44437">
        <ele>1041.1999511719</ele>
        <time>2011-07-22T07:02:05.000Z</time>
      </trkpt>
      <trkpt lat="44.75068" lon="5.4444">
        <ele>1041</ele>
        <time>2011-07-22T07:02:06.000Z</time>
      </trkpt>
      <trkpt lat="44.75057" lon="5.44449">
        <ele>1039.8000488281</ele>
        <time>2011-07-22T07:02:10.000Z</time>
      </trkpt>
      <trkpt lat="44.7505" lon="5.44454">
        <ele>1039.1999511719</ele>
        <time>2011-07-22T07:02:12.000Z</time>
      </trkpt>
      <trkpt lat="44.7504" lon="5.44465">
        <ele>1038</ele>
        <time>2011-07-22T07:02:16.000Z</time>
      </trkpt>
      <trkpt lat="44.75035" lon="5.44471">
        <ele>1037.4000244141</ele>
        <time>2011-07-22T07:02:18.000Z</time>
      </trkpt>
      <trkpt lat="44.75023" lon="5.44482">
        <ele>1036.5999755859</ele>
        <time>2011-07-22T07:02:22.000Z</time>
      </trkpt>
      <trkpt lat="44.75016" lon="5.44486">
        <ele>1036</ele>
        <time>2011-07-22T07:02:24.000Z</time>
      </trkpt>
      <trkpt lat="44.75007" lon="5.44491">
        <ele>1035.1999511719</ele>
        <time>2011-07-22T07:02:27.000Z</time>
      </trkpt>
      <trkpt lat="44.74998" lon="5.44496">
        <ele>1034.4000244141</ele>
        <time>2011-07-22T07:02:30.000Z</time>
      </trkpt>
      <trkpt lat="44.74991" lon="5.44499">
        <ele>1033.8000488281</ele>
        <time>2011-07-22T07:02:32.000Z</time>
      </trkpt>
      <trkpt lat="44.74977" lon="5.44504">
        <ele>1032.8000488281</ele>
        <time>2011-07-22T07:02:36.000Z</time>
      </trkpt>
      <trkpt lat="44.74975" lon="5.44506">
        <ele>1032.5999755859</ele>
        <time>2011-07-22T07:02:37.000Z</time>
      </trkpt>
      <trkpt lat="44.74961" lon="5.44519">
        <ele>1031.1999511719</ele>
        <time>2011-07-22T07:02:42.000Z</time>
      </trkpt>
      <trkpt lat="44.7495" lon="5.44535">
        <ele>1029.5999755859</ele>
        <time>2011-07-22T07:02:47.000Z</time>
      </trkpt>
      <trkpt lat="44.74949" lon="5.44538">
        <ele>1029.1999511719</ele>
        <time>2011-07-22T07:02:48.000Z</time>
      </trkpt>
      <trkpt lat="44.74943" lon="5.44553">
        <ele>1027.5999755859</ele>
        <time>2011-07-22T07:02:52.000Z</time>
      </trkpt>
      <trkpt lat="44.74941" lon="5.44563">
        <ele>1027</ele>
        <time>2011-07-22T07:02:54.000Z</time>
      </trkpt>
      <trkpt lat="44.74938" lon="5.44571">
        <ele>1026.1999511719</ele>
        <time>2011-07-22T07:02:56.000Z</time>
      </trkpt>
      <trkpt lat="44.74929" lon="5.44582">
        <ele>1025</ele>
        <time>2011-07-22T07:03:00.000Z</time>
      </trkpt>
      <trkpt lat="44.74927" lon="5.44586">
        <ele>1024.5999755859</ele>
        <time>2011-07-22T07:03:01.000Z</time>
      </trkpt>
      <trkpt lat="44.74927" lon="5.44594">
        <ele>1023.799987793</ele>
        <time>2011-07-22T07:03:03.000Z</time>
      </trkpt>
      <trkpt lat="44.74925" lon="5.446">
        <ele>1023.200012207</ele>
        <time>2011-07-22T07:03:05.000Z</time>
      </trkpt>
      <trkpt lat="44.74923" lon="5.446">
        <ele>1023</ele>
        <time>2011-07-22T07:03:06.000Z</time>
      </trkpt>
      <trkpt lat="44.7492" lon="5.446">
        <ele>1022.799987793</ele>
        <time>2011-07-22T07:03:07.000Z</time>
      </trkpt>
      <trkpt lat="44.74917" lon="5.446">
        <ele>1022.4000244141</ele>
        <time>2011-07-22T07:03:08.000Z</time>
      </trkpt>
      <trkpt lat="44.7491" lon="5.44596">
        <ele>1021.799987793</ele>
        <time>2011-07-22T07:03:11.000Z</time>
      </trkpt>
      <trkpt lat="44.74904" lon="5.44591">
        <ele>1021</ele>
        <time>2011-07-22T07:03:14.000Z</time>
      </trkpt>
      <trkpt lat="44.74899" lon="5.44587">
        <ele>1020.4000244141</ele>
        <time>2011-07-22T07:03:16.000Z</time>
      </trkpt>
      <trkpt lat="44.74895" lon="5.44577">
        <ele>1019.5999755859</ele>
        <time>2011-07-22T07:03:19.000Z</time>
      </trkpt>
      <trkpt lat="44.74894" lon="5.44573">
        <ele>1019.200012207</ele>
        <time>2011-07-22T07:03:20.000Z</time>
      </trkpt>
      <trkpt lat="44.7489" lon="5.44564">
        <ele>1018.799987793</ele>
        <time>2011-07-22T07:03:22.000Z</time>
      </trkpt>
      <trkpt lat="44.74885" lon="5.44556">
        <ele>1018.200012207</ele>
        <time>2011-07-22T07:03:24.000Z</time>
      </trkpt>
      <trkpt lat="44.74872" lon="5.44556">
        <ele>1017</ele>
        <time>2011-07-22T07:03:27.000Z</time>
      </trkpt>
      <trkpt lat="44.74855" lon="5.44559">
        <ele>1015.5999755859</ele>
        <time>2011-07-22T07:03:32.000Z</time>
      </trkpt>
      <trkpt lat="44.74852" lon="5.44559">
        <ele>1015.200012207</ele>
        <time>2011-07-22T07:03:33.000Z</time>
      </trkpt>
      <trkpt lat="44.74836" lon="5.44562">
        <ele>1013.799987793</ele>
        <time>2011-07-22T07:03:38.000Z</time>
      </trkpt>
      <trkpt lat="44.74833" lon="5.44564">
        <ele>1013.5999755859</ele>
        <time>2011-07-22T07:03:39.000Z</time>
      </trkpt>
      <trkpt lat="44.74819" lon="5.44558">
        <ele>1012.4000244141</ele>
        <time>2011-07-22T07:03:43.000Z</time>
      </trkpt>
      <trkpt lat="44.74815" lon="5.44556">
        <ele>1012</ele>
        <time>2011-07-22T07:03:44.000Z</time>
      </trkpt>
      <trkpt lat="44.74799" lon="5.44549">
        <ele>1010.5999755859</ele>
        <time>2011-07-22T07:03:49.000Z</time>
      </trkpt>
      <trkpt lat="44.74796" lon="5.44547">
        <ele>1010.200012207</ele>
        <time>2011-07-22T07:03:50.000Z</time>
      </trkpt>
      <trkpt lat="44.74783" lon="5.44539">
        <ele>1009</ele>
        <time>2011-07-22T07:03:54.000Z</time>
      </trkpt>
      <trkpt lat="44.74776" lon="5.44536">
        <ele>1008.4000244141</ele>
        <time>2011-07-22T07:03:56.000Z</time>
      </trkpt>
      <trkpt lat="44.74766" lon="5.44531">
        <ele>1007.5999755859</ele>
        <time>2011-07-22T07:03:59.000Z</time>
      </trkpt>
      <trkpt lat="44.74758" lon="5.44528">
        <ele>1006.4000244141</ele>
        <time>2011-07-22T07:04:02.000Z</time>
      </trkpt>
      <trkpt lat="44.74751" lon="5.44526">
        <ele>1005.4000244141</ele>
        <time>2011-07-22T07:04:05.000Z</time>
      </trkpt>
      <trkpt lat="44.7474" lon="5.44529">
        <ele>1003.5999755859</ele>
        <time>2011-07-22T07:04:10.000Z</time>
      </trkpt>
      <trkpt lat="44.74739" lon="5.44527">
        <ele>1003.200012207</ele>
        <time>2011-07-22T07:04:11.000Z</time>
      </trkpt>
      <trkpt lat="44.74737" lon="5.44521">
        <ele>1002.4000244141</ele>
        <time>2011-07-22T07:04:13.000Z</time>
      </trkpt>
      <trkpt lat="44.74733" lon="5.44516">
        <ele>1001.799987793</ele>
        <time>2011-07-22T07:04:15.000Z</time>
      </trkpt>
      <trkpt lat="44.74728" lon="5.44513">
        <ele>1001</ele>
        <time>2011-07-22T07:04:17.000Z</time>
      </trkpt>
      <trkpt lat="44.74725" lon="5.44512">
        <ele>1000.5999755859</ele>
        <time>2011-07-22T07:04:18.000Z</time>
      </trkpt>
      <trkpt lat="44.74717" lon="5.445">
        <ele>998.79998779297</ele>
        <time>2011-07-22T07:04:22.000Z</time>
      </trkpt>
      <trkpt lat="44.74713" lon="5.44492">
        <ele>998.20001220703</ele>
        <time>2011-07-22T07:04:24.000Z</time>
      </trkpt>
      <trkpt lat="44.74704" lon="5.44486">
        <ele>996.79998779297</ele>
        <time>2011-07-22T07:04:27.000Z</time>
      </trkpt>
      <trkpt lat="44.74696" lon="5.44482">
        <ele>995.59997558594</ele>
        <time>2011-07-22T07:04:30.000Z</time>
      </trkpt>
      <trkpt lat="44.74692" lon="5.4448">
        <ele>994.79998779297</ele>
        <time>2011-07-22T07:04:32.000Z</time>
      </trkpt>
      <trkpt lat="44.7468" lon="5.44472">
        <ele>993.20001220703</ele>
        <time>2011-07-22T07:04:36.000Z</time>
      </trkpt>
      <trkpt lat="44.74677" lon="5.4447">
        <ele>992.79998779297</ele>
        <time>2011-07-22T07:04:37.000Z</time>
      </trkpt>
      <trkpt lat="44.74665" lon="5.44458">
        <ele>990.79998779297</ele>
        <time>2011-07-22T07:04:42.000Z</time>
      </trkpt>
      <trkpt lat="44.74664" lon="5.44456">
        <ele>990.40002441406</ele>
        <time>2011-07-22T07:04:43.000Z</time>
      </trkpt>
      <trkpt lat="44.74657" lon="5.44449">
        <ele>989.20001220703</ele>
        <time>2011-07-22T07:04:46.000Z</time>
      </trkpt>
      <trkpt lat="44.74654" lon="5.44446">
        <ele>988.79998779297</ele>
        <time>2011-07-22T07:04:47.000Z</time>
      </trkpt>
      <trkpt lat="44.74647" lon="5.4444">
        <ele>987.79998779297</ele>
        <time>2011-07-22T07:04:50.000Z</time>
      </trkpt>
      <trkpt lat="44.74641" lon="5.44434">
        <ele>987</ele>
        <time>2011-07-22T07:04:52.000Z</time>
      </trkpt>
      <trkpt lat="44.74632" lon="5.44421">
        <ele>985.79998779297</ele>
        <time>2011-07-22T07:04:56.000Z</time>
      </trkpt>
      <trkpt lat="44.7463" lon="5.44419">
        <ele>985.40002441406</ele>
        <time>2011-07-22T07:04:57.000Z</time>
      </trkpt>
      <trkpt lat="44.74628" lon="5.44418">
        <ele>985</ele>
        <time>2011-07-22T07:04:58.000Z</time>
      </trkpt>
      <trkpt lat="44.74619" lon="5.44417">
        <ele>984</ele>
        <time>2011-07-22T07:05:01.000Z</time>
      </trkpt>
      <trkpt lat="44.74615" lon="5.44415">
        <ele>983.20001220703</ele>
        <time>2011-07-22T07:05:03.000Z</time>
      </trkpt>
      <trkpt lat="44.74604" lon="5.44411">
        <ele>981.79998779297</ele>
        <time>2011-07-22T07:05:07.000Z</time>
      </trkpt>
      <trkpt lat="44.74596" lon="5.44403">
        <ele>980.79998779297</ele>
        <time>2011-07-22T07:05:10.000Z</time>
      </trkpt>
      <trkpt lat="44.74592" lon="5.44402">
        <ele>980</ele>
        <time>2011-07-22T07:05:13.000Z</time>
      </trkpt>
      <trkpt lat="44.74586" lon="5.44402">
        <ele>978.59997558594</ele>
        <time>2011-07-22T07:05:17.000Z</time>
      </trkpt>
      <trkpt lat="44.74582" lon="5.444">
        <ele>978</ele>
        <time>2011-07-22T07:05:19.000Z</time>
      </trkpt>
      <trkpt lat="44.74577" lon="5.44396">
        <ele>977.40002441406</ele>
        <time>2011-07-22T07:05:21.000Z</time>
      </trkpt>
      <trkpt lat="44.74574" lon="5.44393">
        <ele>977</ele>
        <time>2011-07-22T07:05:22.000Z</time>
      </trkpt>
      <trkpt lat="44.74571" lon="5.44389">
        <ele>976.40002441406</ele>
        <time>2011-07-22T07:05:24.000Z</time>
      </trkpt>
      <trkpt lat="44.74567" lon="5.44375">
        <ele>966.40002441406</ele>
        <time>2011-07-22T07:06:09.000Z</time>
      </trkpt>
      <trkpt lat="44.74569" lon="5.44372">
        <ele>966.20001220703</ele>
        <time>2011-07-22T07:06:10.000Z</time>
      </trkpt>
      <trkpt lat="44.74571" lon="5.44353">
        <ele>964.59997558594</ele>
        <time>2011-07-22T07:06:15.000Z</time>
      </trkpt>
      <trkpt lat="44.74571" lon="5.44349">
        <ele>964.40002441406</ele>
        <time>2011-07-22T07:06:16.000Z</time>
      </trkpt>
      <trkpt lat="44.7457" lon="5.44333">
        <ele>962.79998779297</ele>
        <time>2011-07-22T07:06:20.000Z</time>
      </trkpt>
      <trkpt lat="44.74571" lon="5.44323">
        <ele>961.79998779297</ele>
        <time>2011-07-22T07:06:23.000Z</time>
      </trkpt>
      <trkpt lat="44.7457" lon="5.44313">
        <ele>961</ele>
        <time>2011-07-22T07:06:25.000Z</time>
      </trkpt>
      <trkpt lat="44.74566" lon="5.44299">
        <ele>959.79998779297</ele>
        <time>2011-07-22T07:06:28.000Z</time>
      </trkpt>
      <trkpt lat="44.74563" lon="5.4429">
        <ele>959</ele>
        <time>2011-07-22T07:06:30.000Z</time>
      </trkpt>
      <trkpt lat="44.74556" lon="5.44276">
        <ele>957.59997558594</ele>
        <time>2011-07-22T07:06:33.000Z</time>
      </trkpt>
      <trkpt lat="44.74551" lon="5.44265">
        <ele>956.40002441406</ele>
        <time>2011-07-22T07:06:36.000Z</time>
      </trkpt>
      <trkpt lat="44.74543" lon="5.44254">
        <ele>955</ele>
        <time>2011-07-22T07:06:39.000Z</time>
      </trkpt>
      <trkpt lat="44.74541" lon="5.44251">
        <ele>954.40002441406</ele>
        <time>2011-07-22T07:06:40.000Z</time>
      </trkpt>
      <trkpt lat="44.74534" lon="5.44236">
        <ele>952.40002441406</ele>
        <time>2011-07-22T07:06:44.000Z</time>
      </trkpt>
      <trkpt lat="44.74533" lon="5.44232">
        <ele>952</ele>
        <time>2011-07-22T07:06:45.000Z</time>
      </trkpt>
      <trkpt lat="44.74529" lon="5.44214">
        <ele>950.20001220703</ele>
        <time>2011-07-22T07:06:49.000Z</time>
      </trkpt>
      <trkpt lat="44.74526" lon="5.44207">
        <ele>949.20001220703</ele>
        <time>2011-07-22T07:06:51.000Z</time>
      </trkpt>
      <trkpt lat="44.74525" lon="5.44205">
        <ele>948.79998779297</ele>
        <time>2011-07-22T07:06:52.000Z</time>
      </trkpt>
      <trkpt lat="44.74525" lon="5.44207">
        <ele>947.79998779297</ele>
        <time>2011-07-22T07:06:54.000Z</time>
      </trkpt>
      <trkpt lat="44.74534" lon="5.44219">
        <ele>945.79998779297</ele>
        <time>2011-07-22T07:06:58.000Z</time>
      </trkpt>
      <trkpt lat="44.74541" lon="5.44232">
        <ele>944</ele>
        <time>2011-07-22T07:07:02.000Z</time>
      </trkpt>
      <trkpt lat="44.74551" lon="5.44237">
        <ele>942.59997558594</ele>
        <time>2011-07-22T07:07:05.000Z</time>
      </trkpt>
      <trkpt lat="44.74559" lon="5.4424">
        <ele>941.40002441406</ele>
        <time>2011-07-22T07:07:07.000Z</time>
      </trkpt>
      <trkpt lat="44.7457" lon="5.44239">
        <ele>940</ele>
        <time>2011-07-22T07:07:10.000Z</time>
      </trkpt>
      <trkpt lat="44.74579" lon="5.44239">
        <ele>939</ele>
        <time>2011-07-22T07:07:12.000Z</time>
      </trkpt>
      <trkpt lat="44.7458" lon="5.44247">
        <ele>938</ele>
        <time>2011-07-22T07:07:14.000Z</time>
      </trkpt>
      <trkpt lat="44.7458" lon="5.44252">
        <ele>937.59997558594</ele>
        <time>2011-07-22T07:07:15.000Z</time>
      </trkpt>
      <trkpt lat="44.74582" lon="5.44273">
        <ele>935</ele>
        <time>2011-07-22T07:07:20.000Z</time>
      </trkpt>
      <trkpt lat="44.74585" lon="5.44279">
        <ele>934</ele>
        <time>2011-07-22T07:07:22.000Z</time>
      </trkpt>
      <trkpt lat="44.74591" lon="5.44288">
        <ele>932.59997558594</ele>
        <time>2011-07-22T07:07:25.000Z</time>
      </trkpt>
      <trkpt lat="44.74594" lon="5.44294">
        <ele>930.79998779297</ele>
        <time>2011-07-22T07:07:29.000Z</time>
      </trkpt>
      <trkpt lat="44.74601" lon="5.44289">
        <ele>925.79998779297</ele>
        <time>2011-07-22T07:07:41.000Z</time>
      </trkpt>
      <trkpt lat="44.74601" lon="5.44283">
        <ele>925</ele>
        <time>2011-07-22T07:07:43.000Z</time>
      </trkpt>
      <trkpt lat="44.74591" lon="5.44272">
        <ele>923.20001220703</ele>
        <time>2011-07-22T07:07:47.000Z</time>
      </trkpt>
      <trkpt lat="44.74593" lon="5.44268">
        <ele>922.79998779297</ele>
        <time>2011-07-22T07:07:48.000Z</time>
      </trkpt>
      <trkpt lat="44.74599" lon="5.44254">
        <ele>921.79998779297</ele>
        <time>2011-07-22T07:07:51.000Z</time>
      </trkpt>
      <trkpt lat="44.74601" lon="5.44249">
        <ele>921.59997558594</ele>
        <time>2011-07-22T07:07:52.000Z</time>
      </trkpt>
      <trkpt lat="44.74602" lon="5.44245">
        <ele>921.20001220703</ele>
        <time>2011-07-22T07:07:53.000Z</time>
      </trkpt>
      <trkpt lat="44.74597" lon="5.44234">
        <ele>920</ele>
        <time>2011-07-22T07:07:56.000Z</time>
      </trkpt>
      <trkpt lat="44.74591" lon="5.44221">
        <ele>918.40002441406</ele>
        <time>2011-07-22T07:08:00.000Z</time>
      </trkpt>
      <trkpt lat="44.7459" lon="5.44218">
        <ele>918</ele>
        <time>2011-07-22T07:08:01.000Z</time>
      </trkpt>
      <trkpt lat="44.74574" lon="5.44206">
        <ele>915.79998779297</ele>
        <time>2011-07-22T07:08:06.000Z</time>
      </trkpt>
      <trkpt lat="44.74563" lon="5.44193">
        <ele>913.79998779297</ele>
        <time>2011-07-22T07:08:11.000Z</time>
      </trkpt>
      <trkpt lat="44.7456" lon="5.44188">
        <ele>913.20001220703</ele>
        <time>2011-07-22T07:08:13.000Z</time>
      </trkpt>
      <trkpt lat="44.74556" lon="5.44183">
        <ele>912.20001220703</ele>
        <time>2011-07-22T07:08:15.000Z</time>
      </trkpt>
      <trkpt lat="44.74545" lon="5.4416">
        <ele>910.59997558594</ele>
        <time>2011-07-22T07:08:19.000Z</time>
      </trkpt>
      <trkpt lat="44.74543" lon="5.44156">
        <ele>910.40002441406</ele>
        <time>2011-07-22T07:08:20.000Z</time>
      </trkpt>
      <trkpt lat="44.74541" lon="5.4415">
        <ele>908.59997558594</ele>
        <time>2011-07-22T07:08:24.000Z</time>
      </trkpt>
      <trkpt lat="44.74543" lon="5.44152">
        <ele>908.20001220703</ele>
        <time>2011-07-22T07:08:25.000Z</time>
      </trkpt>
      <trkpt lat="44.74546" lon="5.44159">
        <ele>907.59997558594</ele>
        <time>2011-07-22T07:08:27.000Z</time>
      </trkpt>
      <trkpt lat="44.74546" lon="5.44162">
        <ele>906.79998779297</ele>
        <time>2011-07-22T07:08:29.000Z</time>
      </trkpt>
      <trkpt lat="44.74554" lon="5.44167">
        <ele>906.20001220703</ele>
        <time>2011-07-22T07:08:31.000Z</time>
      </trkpt>
      <trkpt lat="44.74558" lon="5.44174">
        <ele>905</ele>
        <time>2011-07-22T07:08:34.000Z</time>
      </trkpt>
      <trkpt lat="44.7456" lon="5.44176">
        <ele>904.59997558594</ele>
        <time>2011-07-22T07:08:35.000Z</time>
      </trkpt>
      <trkpt lat="44.74575" lon="5.44183">
        <ele>903</ele>
        <time>2011-07-22T07:08:39.000Z</time>
      </trkpt>
      <trkpt lat="44.74584" lon="5.44185">
        <ele>902.59997558594</ele>
        <time>2011-07-22T07:08:40.000Z</time>
      </trkpt>
      <trkpt lat="44.74597" lon="5.44192">
        <ele>901</ele>
        <time>2011-07-22T07:08:44.000Z</time>
      </trkpt>
      <trkpt lat="44.74614" lon="5.44203">
        <ele>899</ele>
        <time>2011-07-22T07:08:49.000Z</time>
      </trkpt>
      <trkpt lat="44.74626" lon="5.44215">
        <ele>897.20001220703</ele>
        <time>2011-07-22T07:08:54.000Z</time>
      </trkpt>
      <trkpt lat="44.74634" lon="5.44241">
        <ele>895</ele>
        <time>2011-07-22T07:09:00.000Z</time>
      </trkpt>
      <trkpt lat="44.74633" lon="5.44244">
        <ele>894.59997558594</ele>
        <time>2011-07-22T07:09:01.000Z</time>
      </trkpt>
      <trkpt lat="44.74632" lon="5.44248">
        <ele>893.59997558594</ele>
        <time>2011-07-22T07:09:04.000Z</time>
      </trkpt>
      <trkpt lat="44.74633" lon="5.4425">
        <ele>893.20001220703</ele>
        <time>2011-07-22T07:09:05.000Z</time>
      </trkpt>
      <trkpt lat="44.74633" lon="5.4425">
        <ele>892.59997558594</ele>
        <time>2011-07-22T07:09:07.000Z</time>
      </trkpt>
      <trkpt lat="44.74635" lon="5.44257">
        <ele>892</ele>
        <time>2011-07-22T07:09:09.000Z</time>
      </trkpt>
      <trkpt lat="44.74634" lon="5.4427">
        <ele>891.20001220703</ele>
        <time>2011-07-22T07:09:12.000Z</time>
      </trkpt>
      <trkpt lat="44.74635" lon="5.44275">
        <ele>891</ele>
        <time>2011-07-22T07:09:13.000Z</time>
      </trkpt>
      <trkpt lat="44.74639" lon="5.44283">
        <ele>890</ele>
        <time>2011-07-22T07:09:16.000Z</time>
      </trkpt>
      <trkpt lat="44.74643" lon="5.44289">
        <ele>888.79998779297</ele>
        <time>2011-07-22T07:09:20.000Z</time>
      </trkpt>
      <trkpt lat="44.74646" lon="5.4429">
        <ele>888.59997558594</ele>
        <time>2011-07-22T07:09:21.000Z</time>
      </trkpt>
      <trkpt lat="44.74648" lon="5.44288">
        <ele>888</ele>
        <time>2011-07-22T07:09:23.000Z</time>
      </trkpt>
      <trkpt lat="44.74656" lon="5.44281">
        <ele>886.79998779297</ele>
        <time>2011-07-22T07:09:28.000Z</time>
      </trkpt>
      <trkpt lat="44.74664" lon="5.44274">
        <ele>886</ele>
        <time>2011-07-22T07:09:31.000Z</time>
      </trkpt>
      <trkpt lat="44.74669" lon="5.44271">
        <ele>885.59997558594</ele>
        <time>2011-07-22T07:09:33.000Z</time>
      </trkpt>
      <trkpt lat="44.7468" lon="5.44265">
        <ele>885.20001220703</ele>
        <time>2011-07-22T07:09:35.000Z</time>
      </trkpt>
      <trkpt lat="44.74689" lon="5.44261">
        <ele>884.40002441406</ele>
        <time>2011-07-22T07:09:37.000Z</time>
      </trkpt>
      <trkpt lat="44.74698" lon="5.44264">
        <ele>883.79998779297</ele>
        <time>2011-07-22T07:09:39.000Z</time>
      </trkpt>
      <trkpt lat="44.74701" lon="5.44266">
        <ele>883.40002441406</ele>
        <time>2011-07-22T07:09:40.000Z</time>
      </trkpt>
      <trkpt lat="44.74708" lon="5.4427">
        <ele>882.59997558594</ele>
        <time>2011-07-22T07:09:42.000Z</time>
      </trkpt>
      <trkpt lat="44.74717" lon="5.44275">
        <ele>881.20001220703</ele>
        <time>2011-07-22T07:09:46.000Z</time>
      </trkpt>
      <trkpt lat="44.74728" lon="5.44275">
        <ele>879.59997558594</ele>
        <time>2011-07-22T07:09:50.000Z</time>
      </trkpt>
      <trkpt lat="44.74736" lon="5.44273">
        <ele>878.79998779297</ele>
        <time>2011-07-22T07:09:52.000Z</time>
      </trkpt>
      <trkpt lat="44.74746" lon="5.44269">
        <ele>878.20001220703</ele>
        <time>2011-07-22T07:09:54.000Z</time>
      </trkpt>
      <trkpt lat="44.7475" lon="5.44268">
        <ele>877.79998779297</ele>
        <time>2011-07-22T07:09:55.000Z</time>
      </trkpt>
      <trkpt lat="44.74755" lon="5.44263">
        <ele>877</ele>
        <time>2011-07-22T07:09:57.000Z</time>
      </trkpt>
      <trkpt lat="44.74757" lon="5.44261">
        <ele>876.59997558594</ele>
        <time>2011-07-22T07:09:58.000Z</time>
      </trkpt>
      <trkpt lat="44.74756" lon="5.44259">
        <ele>876.20001220703</ele>
        <time>2011-07-22T07:09:59.000Z</time>
      </trkpt>
      <trkpt lat="44.74749" lon="5.44254">
        <ele>874.59997558594</ele>
        <time>2011-07-22T07:10:03.000Z</time>
      </trkpt>
      <trkpt lat="44.74743" lon="5.44251">
        <ele>874</ele>
        <time>2011-07-22T07:10:05.000Z</time>
      </trkpt>
      <trkpt lat="44.74731" lon="5.44241">
        <ele>871.59997558594</ele>
        <time>2011-07-22T07:10:11.000Z</time>
      </trkpt>
      <trkpt lat="44.74728" lon="5.44236">
        <ele>870.79998779297</ele>
        <time>2011-07-22T07:10:13.000Z</time>
      </trkpt>
      <trkpt lat="44.74724" lon="5.4423">
        <ele>870</ele>
        <time>2011-07-22T07:10:15.000Z</time>
      </trkpt>
      <trkpt lat="44.74709" lon="5.44225">
        <ele>868.40002441406</ele>
        <time>2011-07-22T07:10:19.000Z</time>
      </trkpt>
      <trkpt lat="44.74697" lon="5.44227">
        <ele>866.40002441406</ele>
        <time>2011-07-22T07:10:24.000Z</time>
      </trkpt>
      <trkpt lat="44.74691" lon="5.44224">
        <ele>866</ele>
        <time>2011-07-22T07:10:25.000Z</time>
      </trkpt>
      <trkpt lat="44.74683" lon="5.44217">
        <ele>865.20001220703</ele>
        <time>2011-07-22T07:10:27.000Z</time>
      </trkpt>
      <trkpt lat="44.74675" lon="5.44207">
        <ele>864.20001220703</ele>
        <time>2011-07-22T07:10:30.000Z</time>
      </trkpt>
      <trkpt lat="44.74673" lon="5.44202">
        <ele>864</ele>
        <time>2011-07-22T07:10:31.000Z</time>
      </trkpt>
      <trkpt lat="44.74669" lon="5.44182">
        <ele>862.20001220703</ele>
        <time>2011-07-22T07:10:36.000Z</time>
      </trkpt>
      <trkpt lat="44.74667" lon="5.4416">
        <ele>860.40002441406</ele>
        <time>2011-07-22T07:10:41.000Z</time>
      </trkpt>
      <trkpt lat="44.74668" lon="5.44156">
        <ele>860</ele>
        <time>2011-07-22T07:10:42.000Z</time>
      </trkpt>
      <trkpt lat="44.74667" lon="5.44137">
        <ele>858.40002441406</ele>
        <time>2011-07-22T07:10:47.000Z</time>
      </trkpt>
      <trkpt lat="44.74665" lon="5.44134">
        <ele>858</ele>
        <time>2011-07-22T07:10:48.000Z</time>
      </trkpt>
      <trkpt lat="44.74663" lon="5.44131">
        <ele>857.59997558594</ele>
        <time>2011-07-22T07:10:49.000Z</time>
      </trkpt>
      <trkpt lat="44.74658" lon="5.44125">
        <ele>856.79998779297</ele>
        <time>2011-07-22T07:10:51.000Z</time>
      </trkpt>
      <trkpt lat="44.74648" lon="5.44113">
        <ele>855.20001220703</ele>
        <time>2011-07-22T07:10:55.000Z</time>
      </trkpt>
      <trkpt lat="44.74645" lon="5.44109">
        <ele>854.79998779297</ele>
        <time>2011-07-22T07:10:56.000Z</time>
      </trkpt>
      <trkpt lat="44.74634" lon="5.44098">
        <ele>852.59997558594</ele>
        <time>2011-07-22T07:11:01.000Z</time>
      </trkpt>
      <trkpt lat="44.74632" lon="5.44094">
        <ele>852.20001220703</ele>
        <time>2011-07-22T07:11:02.000Z</time>
      </trkpt>
      <trkpt lat="44.74622" lon="5.44088">
        <ele>850.79998779297</ele>
        <time>2011-07-22T07:11:06.000Z</time>
      </trkpt>
      <trkpt lat="44.74612" lon="5.44088">
        <ele>849.59997558594</ele>
        <time>2011-07-22T07:11:09.000Z</time>
      </trkpt>
      <trkpt lat="44.74609" lon="5.44087">
        <ele>849.20001220703</ele>
        <time>2011-07-22T07:11:10.000Z</time>
      </trkpt>
      <trkpt lat="44.746" lon="5.44083">
        <ele>848.40002441406</ele>
        <time>2011-07-22T07:11:12.000Z</time>
      </trkpt>
      <trkpt lat="44.74594" lon="5.44077">
        <ele>847.59997558594</ele>
        <time>2011-07-22T07:11:14.000Z</time>
      </trkpt>
      <trkpt lat="44.74584" lon="5.44062">
        <ele>845.59997558594</ele>
        <time>2011-07-22T07:11:19.000Z</time>
      </trkpt>
      <trkpt lat="44.74581" lon="5.44055">
        <ele>844.59997558594</ele>
        <time>2011-07-22T07:11:21.000Z</time>
      </trkpt>
      <trkpt lat="44.74575" lon="5.44044">
        <ele>843.40002441406</ele>
        <time>2011-07-22T07:11:24.000Z</time>
      </trkpt>
      <trkpt lat="44.74567" lon="5.44033">
        <ele>841.79998779297</ele>
        <time>2011-07-22T07:11:27.000Z</time>
      </trkpt>
      <trkpt lat="44.74566" lon="5.44029">
        <ele>841</ele>
        <time>2011-07-22T07:11:29.000Z</time>
      </trkpt>
      <trkpt lat="44.74564" lon="5.44019">
        <ele>839.40002441406</ele>
        <time>2011-07-22T07:11:34.000Z</time>
      </trkpt>
      <trkpt lat="44.74564" lon="5.44017">
        <ele>837.79998779297</ele>
        <time>2011-07-22T07:11:38.000Z</time>
      </trkpt>
      <trkpt lat="44.74562" lon="5.44017">
        <ele>837</ele>
        <time>2011-07-22T07:11:40.000Z</time>
      </trkpt>
      <trkpt lat="44.74561" lon="5.44016">
        <ele>836.20001220703</ele>
        <time>2011-07-22T07:11:43.000Z</time>
      </trkpt>
      <trkpt lat="44.74556" lon="5.44011">
        <ele>835</ele>
        <time>2011-07-22T07:11:46.000Z</time>
      </trkpt>
      <trkpt lat="44.74553" lon="5.44007">
        <ele>834</ele>
        <time>2011-07-22T07:11:49.000Z</time>
      </trkpt>
      <trkpt lat="44.74548" lon="5.44002">
        <ele>833</ele>
        <time>2011-07-22T07:11:52.000Z</time>
      </trkpt>
      <trkpt lat="44.74545" lon="5.44001">
        <ele>832.79998779297</ele>
        <time>2011-07-22T07:11:53.000Z</time>
      </trkpt>
      <trkpt lat="44.7454" lon="5.43999">
        <ele>832</ele>
        <time>2011-07-22T07:11:55.000Z</time>
      </trkpt>
      <trkpt lat="44.74535" lon="5.43997">
        <ele>831.20001220703</ele>
        <time>2011-07-22T07:11:57.000Z</time>
      </trkpt>
      <trkpt lat="44.74522" lon="5.43993">
        <ele>829.40002441406</ele>
        <time>2011-07-22T07:12:02.000Z</time>
      </trkpt>
      <trkpt lat="44.74513" lon="5.43995">
        <ele>828</ele>
        <time>2011-07-22T07:12:06.000Z</time>
      </trkpt>
      <trkpt lat="44.74507" lon="5.43998">
        <ele>826.79998779297</ele>
        <time>2011-07-22T07:12:09.000Z</time>
      </trkpt>
      <trkpt lat="44.74504" lon="5.43998">
        <ele>826.20001220703</ele>
        <time>2011-07-22T07:12:11.000Z</time>
      </trkpt>
      <trkpt lat="44.74499" lon="5.43998">
        <ele>825</ele>
        <time>2011-07-22T07:12:15.000Z</time>
      </trkpt>
      <trkpt lat="44.74498" lon="5.43999">
        <ele>824.79998779297</ele>
        <time>2011-07-22T07:12:16.000Z</time>
      </trkpt>
      <trkpt lat="44.74496" lon="5.43999">
        <ele>824</ele>
        <time>2011-07-22T07:12:18.000Z</time>
      </trkpt>
      <trkpt lat="44.74491" lon="5.43996">
        <ele>823.20001220703</ele>
        <time>2011-07-22T07:12:21.000Z</time>
      </trkpt>
      <trkpt lat="44.7449" lon="5.43994">
        <ele>823</ele>
        <time>2011-07-22T07:12:22.000Z</time>
      </trkpt>
      <trkpt lat="44.74488" lon="5.43992">
        <ele>822.59997558594</ele>
        <time>2011-07-22T07:12:23.000Z</time>
      </trkpt>
      <trkpt lat="44.74484" lon="5.43991">
        <ele>822</ele>
        <time>2011-07-22T07:12:25.000Z</time>
      </trkpt>
      <trkpt lat="44.74481" lon="5.4399">
        <ele>821.79998779297</ele>
        <time>2011-07-22T07:12:26.000Z</time>
      </trkpt>
      <trkpt lat="44.7448" lon="5.43987">
        <ele>821.20001220703</ele>
        <time>2011-07-22T07:12:28.000Z</time>
      </trkpt>
      <trkpt lat="44.74481" lon="5.43986">
        <ele>820.79998779297</ele>
        <time>2011-07-22T07:12:29.000Z</time>
      </trkpt>
      <trkpt lat="44.74482" lon="5.43985">
        <ele>820.40002441406</ele>
        <time>2011-07-22T07:12:30.000Z</time>
      </trkpt>
      <trkpt lat="44.74486" lon="5.43984">
        <ele>819.79998779297</ele>
        <time>2011-07-22T07:12:32.000Z</time>
      </trkpt>
      <trkpt lat="44.74493" lon="5.43983">
        <ele>819.20001220703</ele>
        <time>2011-07-22T07:12:35.000Z</time>
      </trkpt>
      <trkpt lat="44.74496" lon="5.43982">
        <ele>818.79998779297</ele>
        <time>2011-07-22T07:12:36.000Z</time>
      </trkpt>
      <trkpt lat="44.74501" lon="5.43977">
        <ele>818</ele>
        <time>2011-07-22T07:12:39.000Z</time>
      </trkpt>
      <trkpt lat="44.74509" lon="5.43969">
        <ele>816</ele>
        <time>2011-07-22T07:12:45.000Z</time>
      </trkpt>
      <trkpt lat="44.7451" lon="5.43968">
        <ele>815.79998779297</ele>
        <time>2011-07-22T07:12:46.000Z</time>
      </trkpt>
      <trkpt lat="44.74513" lon="5.43966">
        <ele>815</ele>
        <time>2011-07-22T07:12:48.000Z</time>
      </trkpt>
      <trkpt lat="44.7452" lon="5.43963">
        <ele>814</ele>
        <time>2011-07-22T07:12:51.000Z</time>
      </trkpt>
      <trkpt lat="44.74526" lon="5.43962">
        <ele>813.40002441406</ele>
        <time>2011-07-22T07:12:53.000Z</time>
      </trkpt>
      <trkpt lat="44.74528" lon="5.43962">
        <ele>813.20001220703</ele>
        <time>2011-07-22T07:12:54.000Z</time>
      </trkpt>
      <trkpt lat="44.7453" lon="5.43961">
        <ele>812.79998779297</ele>
        <time>2011-07-22T07:12:55.000Z</time>
      </trkpt>
      <trkpt lat="44.74532" lon="5.4396">
        <ele>812.59997558594</ele>
        <time>2011-07-22T07:12:56.000Z</time>
      </trkpt>
      <trkpt lat="44.74545" lon="5.43957">
        <ele>810.79998779297</ele>
        <time>2011-07-22T07:13:02.000Z</time>
      </trkpt>
      <trkpt lat="44.74546" lon="5.43957">
        <ele>810.40002441406</ele>
        <time>2011-07-22T07:13:03.000Z</time>
      </trkpt>
      <trkpt lat="44.74553" lon="5.43958">
        <ele>809.40002441406</ele>
        <time>2011-07-22T07:13:06.000Z</time>
      </trkpt>
      <trkpt lat="44.74566" lon="5.43963">
        <ele>807.79998779297</ele>
        <time>2011-07-22T07:13:11.000Z</time>
      </trkpt>
      <trkpt lat="44.74569" lon="5.43965">
        <ele>807.40002441406</ele>
        <time>2011-07-22T07:13:12.000Z</time>
      </trkpt>
      <trkpt lat="44.74579" lon="5.43972">
        <ele>805.79998779297</ele>
        <time>2011-07-22T07:13:17.000Z</time>
      </trkpt>
      <trkpt lat="44.74583" lon="5.43973">
        <ele>805</ele>
        <time>2011-07-22T07:13:19.000Z</time>
      </trkpt>
      <trkpt lat="44.74588" lon="5.43978">
        <ele>803.79998779297</ele>
        <time>2011-07-22T07:13:22.000Z</time>
      </trkpt>
      <trkpt lat="44.74594" lon="5.43983">
        <ele>802.20001220703</ele>
        <time>2011-07-22T07:13:26.000Z</time>
      </trkpt>
      <trkpt lat="44.74596" lon="5.43985">
        <ele>801.79998779297</ele>
        <time>2011-07-22T07:13:27.000Z</time>
      </trkpt>
      <trkpt lat="44.74599" lon="5.43987">
        <ele>801</ele>
        <time>2011-07-22T07:13:29.000Z</time>
      </trkpt>
      <trkpt lat="44.74604" lon="5.43988">
        <ele>800.20001220703</ele>
        <time>2011-07-22T07:13:31.000Z</time>
      </trkpt>
      <trkpt lat="44.74614" lon="5.43993">
        <ele>797.79998779297</ele>
        <time>2011-07-22T07:13:36.000Z</time>
      </trkpt>
      <trkpt lat="44.74618" lon="5.43991">
        <ele>796.40002441406</ele>
        <time>2011-07-22T07:13:39.000Z</time>
      </trkpt>
      <trkpt lat="44.74619" lon="5.4399">
        <ele>796</ele>
        <time>2011-07-22T07:13:40.000Z</time>
      </trkpt>
      <trkpt lat="44.74633" lon="5.43978">
        <ele>794</ele>
        <time>2011-07-22T07:13:45.000Z</time>
      </trkpt>
      <trkpt lat="44.74636" lon="5.43975">
        <ele>793.59997558594</ele>
        <time>2011-07-22T07:13:46.000Z</time>
      </trkpt>
      <trkpt lat="44.74646" lon="5.43972">
        <ele>791.79998779297</ele>
        <time>2011-07-22T07:13:50.000Z</time>
      </trkpt>
      <trkpt lat="44.74651" lon="5.4398">
        <ele>790.40002441406</ele>
        <time>2011-07-22T07:13:53.000Z</time>
      </trkpt>
      <trkpt lat="44.74654" lon="5.43985">
        <ele>789.59997558594</ele>
        <time>2011-07-22T07:13:55.000Z</time>
      </trkpt>
      <trkpt lat="44.74663" lon="5.43994">
        <ele>787.20001220703</ele>
        <time>2011-07-22T07:14:00.000Z</time>
      </trkpt>
      <trkpt lat="44.74666" lon="5.43991">
        <ele>786.20001220703</ele>
        <time>2011-07-22T07:14:02.000Z</time>
      </trkpt>
      <trkpt lat="44.7467" lon="5.43986">
        <ele>785.40002441406</ele>
        <time>2011-07-22T07:14:04.000Z</time>
      </trkpt>
      <trkpt lat="44.74682" lon="5.43975">
        <ele>783.59997558594</ele>
        <time>2011-07-22T07:14:08.000Z</time>
      </trkpt>
      <trkpt lat="44.74685" lon="5.43972">
        <ele>783.20001220703</ele>
        <time>2011-07-22T07:14:09.000Z</time>
      </trkpt>
      <trkpt lat="44.74694" lon="5.43962">
        <ele>781.40002441406</ele>
        <time>2011-07-22T07:14:14.000Z</time>
      </trkpt>
      <trkpt lat="44.74697" lon="5.43961">
        <ele>781.20001220703</ele>
        <time>2011-07-22T07:14:15.000Z</time>
      </trkpt>
      <trkpt lat="44.74699" lon="5.43956">
        <ele>780.40002441406</ele>
        <time>2011-07-22T07:14:17.000Z</time>
      </trkpt>
      <trkpt lat="44.74701" lon="5.43953">
        <ele>780</ele>
        <time>2011-07-22T07:14:18.000Z</time>
      </trkpt>
      <trkpt lat="44.74701" lon="5.43948">
        <ele>779.20001220703</ele>
        <time>2011-07-22T07:14:21.000Z</time>
      </trkpt>
      <trkpt lat="44.74697" lon="5.43941">
        <ele>778.20001220703</ele>
        <time>2011-07-22T07:14:24.000Z</time>
      </trkpt>
      <trkpt lat="44.74696" lon="5.43938">
        <ele>777.79998779297</ele>
        <time>2011-07-22T07:14:25.000Z</time>
      </trkpt>
      <trkpt lat="44.74696" lon="5.43936">
        <ele>777.59997558594</ele>
        <time>2011-07-22T07:14:26.000Z</time>
      </trkpt>
      <trkpt lat="44.74689" lon="5.4392">
        <ele>776.20001220703</ele>
        <time>2011-07-22T07:14:31.000Z</time>
      </trkpt>
      <trkpt lat="44.74688" lon="5.43915">
        <ele>775.59997558594</ele>
        <time>2011-07-22T07:14:33.000Z</time>
      </trkpt>
      <trkpt lat="44.74687" lon="5.43907">
        <ele>774.79998779297</ele>
        <time>2011-07-22T07:14:36.000Z</time>
      </trkpt>
      <trkpt lat="44.74683" lon="5.43896">
        <ele>773.20001220703</ele>
        <time>2011-07-22T07:14:41.000Z</time>
      </trkpt>
      <trkpt lat="44.74682" lon="5.43894">
        <ele>773</ele>
        <time>2011-07-22T07:14:42.000Z</time>
      </trkpt>
      <trkpt lat="44.74681" lon="5.43891">
        <ele>772.40002441406</ele>
        <time>2011-07-22T07:14:44.000Z</time>
      </trkpt>
      <trkpt lat="44.7468" lon="5.43888">
        <ele>772</ele>
        <time>2011-07-22T07:14:45.000Z</time>
      </trkpt>
      <trkpt lat="44.74676" lon="5.43873">
        <ele>770.79998779297</ele>
        <time>2011-07-22T07:14:50.000Z</time>
      </trkpt>
      <trkpt lat="44.74673" lon="5.43865">
        <ele>769.79998779297</ele>
        <time>2011-07-22T07:14:53.000Z</time>
      </trkpt>
      <trkpt lat="44.74671" lon="5.4386">
        <ele>769.40002441406</ele>
        <time>2011-07-22T07:14:55.000Z</time>
      </trkpt>
      <trkpt lat="44.74669" lon="5.43852">
        <ele>768.40002441406</ele>
        <time>2011-07-22T07:14:58.000Z</time>
      </trkpt>
      <trkpt lat="44.74666" lon="5.43844">
        <ele>767.59997558594</ele>
        <time>2011-07-22T07:15:01.000Z</time>
      </trkpt>
      <trkpt lat="44.74665" lon="5.43839">
        <ele>767</ele>
        <time>2011-07-22T07:15:03.000Z</time>
      </trkpt>
      <trkpt lat="44.7466" lon="5.43831">
        <ele>766.20001220703</ele>
        <time>2011-07-22T07:15:06.000Z</time>
      </trkpt>
      <trkpt lat="44.74657" lon="5.4382">
        <ele>765.20001220703</ele>
        <time>2011-07-22T07:15:10.000Z</time>
      </trkpt>
      <trkpt lat="44.74655" lon="5.43817">
        <ele>764</ele>
        <time>2011-07-22T07:15:14.000Z</time>
      </trkpt>
      <trkpt lat="44.74655" lon="5.43815">
        <ele>763.40002441406</ele>
        <time>2011-07-22T07:15:16.000Z</time>
      </trkpt>
      <trkpt lat="44.74654" lon="5.43812">
        <ele>763.20001220703</ele>
        <time>2011-07-22T07:15:17.000Z</time>
      </trkpt>
      <trkpt lat="44.74655" lon="5.4381">
        <ele>762</ele>
        <time>2011-07-22T07:15:21.000Z</time>
      </trkpt>
      <trkpt lat="44.74654" lon="5.43808">
        <ele>761.40002441406</ele>
        <time>2011-07-22T07:15:23.000Z</time>
      </trkpt>
      <trkpt lat="44.74654" lon="5.43805">
        <ele>760.79998779297</ele>
        <time>2011-07-22T07:15:26.000Z</time>
      </trkpt>
      <trkpt lat="44.74654" lon="5.43803">
        <ele>760.59997558594</ele>
        <time>2011-07-22T07:15:27.000Z</time>
      </trkpt>
      <trkpt lat="44.74653" lon="5.43795">
        <ele>759.59997558594</ele>
        <time>2011-07-22T07:15:30.000Z</time>
      </trkpt>
      <trkpt lat="44.74653" lon="5.43792">
        <ele>759.40002441406</ele>
        <time>2011-07-22T07:15:31.000Z</time>
      </trkpt>
      <trkpt lat="44.74652" lon="5.43789">
        <ele>759.20001220703</ele>
        <time>2011-07-22T07:15:32.000Z</time>
      </trkpt>
      <trkpt lat="44.74651" lon="5.43781">
        <ele>758.40002441406</ele>
        <time>2011-07-22T07:15:35.000Z</time>
      </trkpt>
      <trkpt lat="44.74651" lon="5.4377">
        <ele>757.20001220703</ele>
        <time>2011-07-22T07:15:40.000Z</time>
      </trkpt>
      <trkpt lat="44.74651" lon="5.43761">
        <ele>756.40002441406</ele>
        <time>2011-07-22T07:15:43.000Z</time>
      </trkpt>
      <trkpt lat="44.74649" lon="5.43755">
        <ele>756</ele>
        <time>2011-07-22T07:15:45.000Z</time>
      </trkpt>
      <trkpt lat="44.74644" lon="5.43741">
        <ele>754.59997558594</ele>
        <time>2011-07-22T07:15:50.000Z</time>
      </trkpt>
      <trkpt lat="44.74644" lon="5.43737">
        <ele>754.40002441406</ele>
        <time>2011-07-22T07:15:51.000Z</time>
      </trkpt>
      <trkpt lat="44.74641" lon="5.43729">
        <ele>753.40002441406</ele>
        <time>2011-07-22T07:15:54.000Z</time>
      </trkpt>
      <trkpt lat="44.7464" lon="5.43727">
        <ele>753.20001220703</ele>
        <time>2011-07-22T07:15:55.000Z</time>
      </trkpt>
      <trkpt lat="44.74637" lon="5.43724">
        <ele>751.59997558594</ele>
        <time>2011-07-22T07:16:00.000Z</time>
      </trkpt>
      <trkpt lat="44.74628" lon="5.43717">
        <ele>744.59997558594</ele>
        <time>2011-07-22T07:16:28.000Z</time>
      </trkpt>
      <trkpt lat="44.74626" lon="5.43716">
        <ele>744.20001220703</ele>
        <time>2011-07-22T07:16:30.000Z</time>
      </trkpt>
      <trkpt lat="44.74625" lon="5.43717">
        <ele>744</ele>
        <time>2011-07-22T07:16:31.000Z</time>
      </trkpt>
      <trkpt lat="44.74622" lon="5.43723">
        <ele>743</ele>
        <time>2011-07-22T07:16:35.000Z</time>
      </trkpt>
      <trkpt lat="44.74621" lon="5.43724">
        <ele>742.59997558594</ele>
        <time>2011-07-22T07:16:36.000Z</time>
      </trkpt>
      <trkpt lat="44.74617" lon="5.43727">
        <ele>741.59997558594</ele>
        <time>2011-07-22T07:16:40.000Z</time>
      </trkpt>
      <trkpt lat="44.74616" lon="5.43727">
        <ele>741.40002441406</ele>
        <time>2011-07-22T07:16:41.000Z</time>
      </trkpt>
      <trkpt lat="44.74614" lon="5.4372">
        <ele>740.40002441406</ele>
        <time>2011-07-22T07:16:45.000Z</time>
      </trkpt>
      <trkpt lat="44.74612" lon="5.43718">
        <ele>740</ele>
        <time>2011-07-22T07:16:46.000Z</time>
      </trkpt>
      <trkpt lat="44.74612" lon="5.43709">
        <ele>739.20001220703</ele>
        <time>2011-07-22T07:16:49.000Z</time>
      </trkpt>
      <trkpt lat="44.74614" lon="5.43698">
        <ele>738.20001220703</ele>
        <time>2011-07-22T07:16:52.000Z</time>
      </trkpt>
      <trkpt lat="44.74615" lon="5.43694">
        <ele>738</ele>
        <time>2011-07-22T07:16:53.000Z</time>
      </trkpt>
      <trkpt lat="44.74615" lon="5.4369">
        <ele>737.59997558594</ele>
        <time>2011-07-22T07:16:54.000Z</time>
      </trkpt>
      <trkpt lat="44.74614" lon="5.4368">
        <ele>737</ele>
        <time>2011-07-22T07:16:56.000Z</time>
      </trkpt>
      <trkpt lat="44.74615" lon="5.4366">
        <ele>735.20001220703</ele>
        <time>2011-07-22T07:17:01.000Z</time>
      </trkpt>
      <trkpt lat="44.74616" lon="5.43656">
        <ele>735</ele>
        <time>2011-07-22T07:17:02.000Z</time>
      </trkpt>
      <trkpt lat="44.74617" lon="5.4365">
        <ele>734.59997558594</ele>
        <time>2011-07-22T07:17:04.000Z</time>
      </trkpt>
      <trkpt lat="44.74615" lon="5.43642">
        <ele>733.59997558594</ele>
        <time>2011-07-22T07:17:07.000Z</time>
      </trkpt>
      <trkpt lat="44.74614" lon="5.43635">
        <ele>733.20001220703</ele>
        <time>2011-07-22T07:17:09.000Z</time>
      </trkpt>
      <trkpt lat="44.74611" lon="5.43624">
        <ele>732.40002441406</ele>
        <time>2011-07-22T07:17:12.000Z</time>
      </trkpt>
      <trkpt lat="44.74606" lon="5.43608">
        <ele>731.40002441406</ele>
        <time>2011-07-22T07:17:16.000Z</time>
      </trkpt>
      <trkpt lat="44.74603" lon="5.43601">
        <ele>730.59997558594</ele>
        <time>2011-07-22T07:17:19.000Z</time>
      </trkpt>
      <trkpt lat="44.74602" lon="5.43601">
        <ele>730.20001220703</ele>
        <time>2011-07-22T07:17:20.000Z</time>
      </trkpt>
      <trkpt lat="44.74598" lon="5.43601">
        <ele>729.40002441406</ele>
        <time>2011-07-22T07:17:23.000Z</time>
      </trkpt>
      <trkpt lat="44.74596" lon="5.43601">
        <ele>729</ele>
        <time>2011-07-22T07:17:24.000Z</time>
      </trkpt>
      <trkpt lat="44.74593" lon="5.43598">
        <ele>728</ele>
        <time>2011-07-22T07:17:27.000Z</time>
      </trkpt>
      <trkpt lat="44.74591" lon="5.43595">
        <ele>727.40002441406</ele>
        <time>2011-07-22T07:17:29.000Z</time>
      </trkpt>
      <trkpt lat="44.74586" lon="5.43582">
        <ele>725.79998779297</ele>
        <time>2011-07-22T07:17:34.000Z</time>
      </trkpt>
      <trkpt lat="44.74584" lon="5.4357">
        <ele>724.40002441406</ele>
        <time>2011-07-22T07:17:38.000Z</time>
      </trkpt>
      <trkpt lat="44.74583" lon="5.43566">
        <ele>724.20001220703</ele>
        <time>2011-07-22T07:17:39.000Z</time>
      </trkpt>
      <trkpt lat="44.74574" lon="5.43548">
        <ele>722.79998779297</ele>
        <time>2011-07-22T07:17:44.000Z</time>
      </trkpt>
      <trkpt lat="44.74566" lon="5.43527">
        <ele>721</ele>
        <time>2011-07-22T07:17:50.000Z</time>
      </trkpt>
      <trkpt lat="44.74565" lon="5.43523">
        <ele>720.79998779297</ele>
        <time>2011-07-22T07:17:51.000Z</time>
      </trkpt>
      <trkpt lat="44.74562" lon="5.43504">
        <ele>719.40002441406</ele>
        <time>2011-07-22T07:17:56.000Z</time>
      </trkpt>
      <trkpt lat="44.74561" lon="5.43497">
        <ele>719</ele>
        <time>2011-07-22T07:17:58.000Z</time>
      </trkpt>
      <trkpt lat="44.74558" lon="5.43487">
        <ele>718.20001220703</ele>
        <time>2011-07-22T07:18:01.000Z</time>
      </trkpt>
      <trkpt lat="44.74552" lon="5.43473">
        <ele>717</ele>
        <time>2011-07-22T07:18:05.000Z</time>
      </trkpt>
      <trkpt lat="44.74546" lon="5.43454">
        <ele>715.40002441406</ele>
        <time>2011-07-22T07:18:11.000Z</time>
      </trkpt>
      <trkpt lat="44.74543" lon="5.43449">
        <ele>715</ele>
        <time>2011-07-22T07:18:13.000Z</time>
      </trkpt>
      <trkpt lat="44.74543" lon="5.43447">
        <ele>714.79998779297</ele>
        <time>2011-07-22T07:18:14.000Z</time>
      </trkpt>
      <trkpt lat="44.74538" lon="5.4344">
        <ele>714.40002441406</ele>
        <time>2011-07-22T07:18:16.000Z</time>
      </trkpt>
      <trkpt lat="44.74533" lon="5.43427">
        <ele>713.40002441406</ele>
        <time>2011-07-22T07:18:20.000Z</time>
      </trkpt>
      <trkpt lat="44.7453" lon="5.4341">
        <ele>712.59997558594</ele>
        <time>2011-07-22T07:18:24.000Z</time>
      </trkpt>
      <trkpt lat="44.74528" lon="5.43402">
        <ele>712.20001220703</ele>
        <time>2011-07-22T07:18:26.000Z</time>
      </trkpt>
      <trkpt lat="44.74526" lon="5.43385">
        <ele>711.20001220703</ele>
        <time>2011-07-22T07:18:30.000Z</time>
      </trkpt>
      <trkpt lat="44.74526" lon="5.43373">
        <ele>710.20001220703</ele>
        <time>2011-07-22T07:18:33.000Z</time>
      </trkpt>
      <trkpt lat="44.74526" lon="5.43366">
        <ele>709.79998779297</ele>
        <time>2011-07-22T07:18:35.000Z</time>
      </trkpt>
      <trkpt lat="44.74527" lon="5.43363">
        <ele>709.59997558594</ele>
        <time>2011-07-22T07:18:36.000Z</time>
      </trkpt>
      <trkpt lat="44.74528" lon="5.43353">
        <ele>708.79998779297</ele>
        <time>2011-07-22T07:18:39.000Z</time>
      </trkpt>
      <trkpt lat="44.74529" lon="5.43348">
        <ele>708.20001220703</ele>
        <time>2011-07-22T07:18:41.000Z</time>
      </trkpt>
      <trkpt lat="44.74531" lon="5.43344">
        <ele>707.79998779297</ele>
        <time>2011-07-22T07:18:43.000Z</time>
      </trkpt>
      <trkpt lat="44.74535" lon="5.43334">
        <ele>706.59997558594</ele>
        <time>2011-07-22T07:18:47.000Z</time>
      </trkpt>
      <trkpt lat="44.74536" lon="5.43322">
        <ele>705.79998779297</ele>
        <time>2011-07-22T07:18:50.000Z</time>
      </trkpt>
      <trkpt lat="44.74537" lon="5.43318">
        <ele>705.40002441406</ele>
        <time>2011-07-22T07:18:51.000Z</time>
      </trkpt>
      <trkpt lat="44.74535" lon="5.43311">
        <ele>704.79998779297</ele>
        <time>2011-07-22T07:18:53.000Z</time>
      </trkpt>
      <trkpt lat="44.74535" lon="5.43296">
        <ele>703.40002441406</ele>
        <time>2011-07-22T07:18:57.000Z</time>
      </trkpt>
      <trkpt lat="44.74535" lon="5.43293">
        <ele>703</ele>
        <time>2011-07-22T07:18:58.000Z</time>
      </trkpt>
      <trkpt lat="44.74533" lon="5.43269">
        <ele>701</ele>
        <time>2011-07-22T07:19:04.000Z</time>
      </trkpt>
      <trkpt lat="44.74537" lon="5.43251">
        <ele>699.40002441406</ele>
        <time>2011-07-22T07:19:09.000Z</time>
      </trkpt>
      <trkpt lat="44.74539" lon="5.43244">
        <ele>698.79998779297</ele>
        <time>2011-07-22T07:19:11.000Z</time>
      </trkpt>
      <trkpt lat="44.74542" lon="5.43236">
        <ele>697.79998779297</ele>
        <time>2011-07-22T07:19:14.000Z</time>
      </trkpt>
      <trkpt lat="44.74541" lon="5.43235">
        <ele>697</ele>
        <time>2011-07-22T07:19:16.000Z</time>
      </trkpt>
      <trkpt lat="44.74541" lon="5.43235">
        <ele>696.20001220703</ele>
        <time>2011-07-22T07:19:19.000Z</time>
      </trkpt>
      <trkpt lat="44.74531" lon="5.43224">
        <ele>694.40002441406</ele>
        <time>2011-07-22T07:19:25.000Z</time>
      </trkpt>
      <trkpt lat="44.74522" lon="5.43203">
        <ele>692.79998779297</ele>
        <time>2011-07-22T07:19:31.000Z</time>
      </trkpt>
      <trkpt lat="44.7452" lon="5.43199">
        <ele>692.40002441406</ele>
        <time>2011-07-22T07:19:32.000Z</time>
      </trkpt>
      <trkpt lat="44.74515" lon="5.43176">
        <ele>690.40002441406</ele>
        <time>2011-07-22T07:19:38.000Z</time>
      </trkpt>
      <trkpt lat="44.74514" lon="5.43172">
        <ele>690.20001220703</ele>
        <time>2011-07-22T07:19:39.000Z</time>
      </trkpt>
      <trkpt lat="44.74511" lon="5.43157">
        <ele>689</ele>
        <time>2011-07-22T07:19:43.000Z</time>
      </trkpt>
      <trkpt lat="44.74509" lon="5.43144">
        <ele>687.59997558594</ele>
        <time>2011-07-22T07:19:47.000Z</time>
      </trkpt>
      <trkpt lat="44.74506" lon="5.43133">
        <ele>686.79998779297</ele>
        <time>2011-07-22T07:19:50.000Z</time>
      </trkpt>
      <trkpt lat="44.74502" lon="5.43119">
        <ele>685.59997558594</ele>
        <time>2011-07-22T07:19:54.000Z</time>
      </trkpt>
      <trkpt lat="44.74499" lon="5.43109">
        <ele>684.59997558594</ele>
        <time>2011-07-22T07:19:57.000Z</time>
      </trkpt>
      <trkpt lat="44.74494" lon="5.43096">
        <ele>683.59997558594</ele>
        <time>2011-07-22T07:20:01.000Z</time>
      </trkpt>
      <trkpt lat="44.74492" lon="5.43089">
        <ele>683</ele>
        <time>2011-07-22T07:20:03.000Z</time>
      </trkpt>
      <trkpt lat="44.74486" lon="5.43073">
        <ele>681.79998779297</ele>
        <time>2011-07-22T07:20:07.000Z</time>
      </trkpt>
      <trkpt lat="44.74483" lon="5.43067">
        <ele>681.40002441406</ele>
        <time>2011-07-22T07:20:09.000Z</time>
      </trkpt>
      <trkpt lat="44.74477" lon="5.43049">
        <ele>680</ele>
        <time>2011-07-22T07:20:14.000Z</time>
      </trkpt>
      <trkpt lat="44.74474" lon="5.43042">
        <ele>679.40002441406</ele>
        <time>2011-07-22T07:20:16.000Z</time>
      </trkpt>
      <trkpt lat="44.74469" lon="5.43026">
        <ele>678.20001220703</ele>
        <time>2011-07-22T07:20:21.000Z</time>
      </trkpt>
      <trkpt lat="44.74466" lon="5.4302">
        <ele>677.79998779297</ele>
        <time>2011-07-22T07:20:23.000Z</time>
      </trkpt>
      <trkpt lat="44.74459" lon="5.43001">
        <ele>676.20001220703</ele>
        <time>2011-07-22T07:20:29.000Z</time>
      </trkpt>
      <trkpt lat="44.74455" lon="5.4299">
        <ele>675.59997558594</ele>
        <time>2011-07-22T07:20:32.000Z</time>
      </trkpt>
      <trkpt lat="44.7445" lon="5.42977">
        <ele>674.59997558594</ele>
        <time>2011-07-22T07:20:36.000Z</time>
      </trkpt>
      <trkpt lat="44.74446" lon="5.42967">
        <ele>673.79998779297</ele>
        <time>2011-07-22T07:20:39.000Z</time>
      </trkpt>
      <trkpt lat="44.74441" lon="5.42953">
        <ele>672.79998779297</ele>
        <time>2011-07-22T07:20:43.000Z</time>
      </trkpt>
      <trkpt lat="44.74438" lon="5.42946">
        <ele>672.40002441406</ele>
        <time>2011-07-22T07:20:45.000Z</time>
      </trkpt>
      <trkpt lat="44.74431" lon="5.42928">
        <ele>671.20001220703</ele>
        <time>2011-07-22T07:20:50.000Z</time>
      </trkpt>
      <trkpt lat="44.7443" lon="5.42924">
        <ele>671</ele>
        <time>2011-07-22T07:20:51.000Z</time>
      </trkpt>
      <trkpt lat="44.74421" lon="5.42902">
        <ele>669.40002441406</ele>
        <time>2011-07-22T07:20:57.000Z</time>
      </trkpt>
      <trkpt lat="44.74412" lon="5.42881">
        <ele>668</ele>
        <time>2011-07-22T07:21:03.000Z</time>
      </trkpt>
      <trkpt lat="44.74411" lon="5.42877">
        <ele>667.79998779297</ele>
        <time>2011-07-22T07:21:04.000Z</time>
      </trkpt>
      <trkpt lat="44.74403" lon="5.42855">
        <ele>666.20001220703</ele>
        <time>2011-07-22T07:21:10.000Z</time>
      </trkpt>
      <trkpt lat="44.74401" lon="5.42851">
        <ele>666</ele>
        <time>2011-07-22T07:21:11.000Z</time>
      </trkpt>
      <trkpt lat="44.74393" lon="5.42831">
        <ele>664.40002441406</ele>
        <time>2011-07-22T07:21:17.000Z</time>
      </trkpt>
      <trkpt lat="44.74384" lon="5.4281">
        <ele>663</ele>
        <time>2011-07-22T07:21:23.000Z</time>
      </trkpt>
      <trkpt lat="44.74382" lon="5.42807">
        <ele>662.59997558594</ele>
        <time>2011-07-22T07:21:24.000Z</time>
      </trkpt>
      <trkpt lat="44.74377" lon="5.42794">
        <ele>661.59997558594</ele>
        <time>2011-07-22T07:21:28.000Z</time>
      </trkpt>
      <trkpt lat="44.74374" lon="5.42783">
        <ele>660.79998779297</ele>
        <time>2011-07-22T07:21:31.000Z</time>
      </trkpt>
      <trkpt lat="44.74371" lon="5.42773">
        <ele>660</ele>
        <time>2011-07-22T07:21:34.000Z</time>
      </trkpt>
      <trkpt lat="44.74366" lon="5.4276">
        <ele>659</ele>
        <time>2011-07-22T07:21:38.000Z</time>
      </trkpt>
      <trkpt lat="44.74363" lon="5.42753">
        <ele>658.40002441406</ele>
        <time>2011-07-22T07:21:40.000Z</time>
      </trkpt>
      <trkpt lat="44.74353" lon="5.42738">
        <ele>657.20001220703</ele>
        <time>2011-07-22T07:21:45.000Z</time>
      </trkpt>
      <trkpt lat="44.74351" lon="5.42736">
        <ele>656.79998779297</ele>
        <time>2011-07-22T07:21:46.000Z</time>
      </trkpt>
      <trkpt lat="44.7434" lon="5.42718">
        <ele>655.40002441406</ele>
        <time>2011-07-22T07:21:52.000Z</time>
      </trkpt>
      <trkpt lat="44.74338" lon="5.42716">
        <ele>655.20001220703</ele>
        <time>2011-07-22T07:21:53.000Z</time>
      </trkpt>
      <trkpt lat="44.74328" lon="5.42702">
        <ele>653.79998779297</ele>
        <time>2011-07-22T07:21:58.000Z</time>
      </trkpt>
      <trkpt lat="44.74326" lon="5.427">
        <ele>653.40002441406</ele>
        <time>2011-07-22T07:21:59.000Z</time>
      </trkpt>
      <trkpt lat="44.74319" lon="5.42688">
        <ele>652.20001220703</ele>
        <time>2011-07-22T07:22:03.000Z</time>
      </trkpt>
      <trkpt lat="44.74313" lon="5.42682">
        <ele>651.20001220703</ele>
        <time>2011-07-22T07:22:06.000Z</time>
      </trkpt>
      <trkpt lat="44.74307" lon="5.42678">
        <ele>650.20001220703</ele>
        <time>2011-07-22T07:22:09.000Z</time>
      </trkpt>
      <trkpt lat="44.74294" lon="5.42671">
        <ele>648.59997558594</ele>
        <time>2011-07-22T07:22:14.000Z</time>
      </trkpt>
      <trkpt lat="44.74292" lon="5.42669">
        <ele>648.40002441406</ele>
        <time>2011-07-22T07:22:15.000Z</time>
      </trkpt>
      <trkpt lat="44.74276" lon="5.42662">
        <ele>646.40002441406</ele>
        <time>2011-07-22T07:22:21.000Z</time>
      </trkpt>
      <trkpt lat="44.74266" lon="5.4266">
        <ele>644.59997558594</ele>
        <time>2011-07-22T07:22:26.000Z</time>
      </trkpt>
      <trkpt lat="44.74258" lon="5.42653">
        <ele>643.20001220703</ele>
        <time>2011-07-22T07:22:30.000Z</time>
      </trkpt>
      <trkpt lat="44.74254" lon="5.42647">
        <ele>642.40002441406</ele>
        <time>2011-07-22T07:22:32.000Z</time>
      </trkpt>
      <trkpt lat="44.74246" lon="5.42632">
        <ele>640.79998779297</ele>
        <time>2011-07-22T07:22:37.000Z</time>
      </trkpt>
      <trkpt lat="44.74244" lon="5.42629">
        <ele>640.40002441406</ele>
        <time>2011-07-22T07:22:38.000Z</time>
      </trkpt>
      <trkpt lat="44.74235" lon="5.42609">
        <ele>638.40002441406</ele>
        <time>2011-07-22T07:22:44.000Z</time>
      </trkpt>
      <trkpt lat="44.74227" lon="5.42589">
        <ele>636.79998779297</ele>
        <time>2011-07-22T07:22:50.000Z</time>
      </trkpt>
      <trkpt lat="44.74226" lon="5.42585">
        <ele>636.40002441406</ele>
        <time>2011-07-22T07:22:51.000Z</time>
      </trkpt>
      <trkpt lat="44.74218" lon="5.4257">
        <ele>635</ele>
        <time>2011-07-22T07:22:56.000Z</time>
      </trkpt>
      <trkpt lat="44.74215" lon="5.42565">
        <ele>634.40002441406</ele>
        <time>2011-07-22T07:22:58.000Z</time>
      </trkpt>
      <trkpt lat="44.74207" lon="5.42554">
        <ele>633.20001220703</ele>
        <time>2011-07-22T07:23:02.000Z</time>
      </trkpt>
      <trkpt lat="44.74205" lon="5.42548">
        <ele>632.59997558594</ele>
        <time>2011-07-22T07:23:04.000Z</time>
      </trkpt>
      <trkpt lat="44.74205" lon="5.42544">
        <ele>632.20001220703</ele>
        <time>2011-07-22T07:23:05.000Z</time>
      </trkpt>
      <trkpt lat="44.74206" lon="5.42541">
        <ele>632</ele>
        <time>2011-07-22T07:23:06.000Z</time>
      </trkpt>
    </trkseg>
  </trk>
</gpx>